<?xml version="1.0" encoding="UTF-8" standalone="no" ?>
<gpx xmlns="http://www.topografix.com/GPX/1/1" xmlns:xsi="http://www.w3.org/2001/XMLSchema-instance" xsi:schemaLocation="http://www.topografix.com/GPX/1/1 http://www.topografix.com/GPX/1/1/gpx.xsd" version="1.1" creator="VisuGPX - https://www.visugpx.com">
  <metadata>
    <name>VTT - Aumont Aubrac truyére</name>
    <desc><![CDATA[Chouette sortie en vtt avec des chemins très sympa et de belles descentes.]]></desc>
  </metadata>
  <trk>
    <name><![CDATA[23-FEV-16 17:24:08]]></name>
    <trkseg>
      <trkpt lat="44.72152" lon="3.287">
        <ele>1032.11</ele>
        <time>2016-02-23T13:23:02Z</time>
      </trkpt>
      <trkpt lat="44.7215" lon="3.28696">
        <ele>1036.92</ele>
        <time>2016-02-23T13:23:12Z</time>
      </trkpt>
      <trkpt lat="44.72149" lon="3.28696">
        <ele>1038.36</ele>
        <time>2016-02-23T13:23:14Z</time>
      </trkpt>
      <trkpt lat="44.72147" lon="3.28696">
        <ele>1041.73</ele>
        <time>2016-02-23T13:23:17Z</time>
      </trkpt>
      <trkpt lat="44.72147" lon="3.28696">
        <ele>1044.61</ele>
        <time>2016-02-23T13:23:20Z</time>
      </trkpt>
      <trkpt lat="44.72148" lon="3.28695">
        <ele>1048.45</ele>
        <time>2016-02-23T13:23:23Z</time>
      </trkpt>
      <trkpt lat="44.72147" lon="3.28695">
        <ele>1049.9</ele>
        <time>2016-02-23T13:23:26Z</time>
      </trkpt>
      <trkpt lat="44.72147" lon="3.28695">
        <ele>1053.26</ele>
        <time>2016-02-23T13:23:31Z</time>
      </trkpt>
      <trkpt lat="44.72147" lon="3.28694">
        <ele>1056.63</ele>
        <time>2016-02-23T13:23:35Z</time>
      </trkpt>
      <trkpt lat="44.72146" lon="3.28695">
        <ele>1059.99</ele>
        <time>2016-02-23T13:23:40Z</time>
      </trkpt>
      <trkpt lat="44.72158" lon="3.2869">
        <ele>1032.59</ele>
        <time>2016-02-23T13:25:03Z</time>
      </trkpt>
      <trkpt lat="44.72159" lon="3.28692">
        <ele>1032.59</ele>
        <time>2016-02-23T13:25:04Z</time>
      </trkpt>
      <trkpt lat="44.72148" lon="3.28695">
        <ele>1032.59</ele>
        <time>2016-02-23T13:25:17Z</time>
      </trkpt>
      <trkpt lat="44.72147" lon="3.28675">
        <ele>1032.11</ele>
        <time>2016-02-23T13:25:26Z</time>
      </trkpt>
      <trkpt lat="44.72156" lon="3.28672">
        <ele>1031.63</ele>
        <time>2016-02-23T13:25:35Z</time>
      </trkpt>
      <trkpt lat="44.72159" lon="3.28674">
        <ele>1031.15</ele>
        <time>2016-02-23T13:25:38Z</time>
      </trkpt>
      <trkpt lat="44.72171" lon="3.28668">
        <ele>1028.75</ele>
        <time>2016-02-23T13:25:44Z</time>
      </trkpt>
      <trkpt lat="44.72177" lon="3.2866">
        <ele>1027.31</ele>
        <time>2016-02-23T13:25:46Z</time>
      </trkpt>
      <trkpt lat="44.72181" lon="3.28657">
        <ele>1027.31</ele>
        <time>2016-02-23T13:25:47Z</time>
      </trkpt>
      <trkpt lat="44.72202" lon="3.28649">
        <ele>1024.9</ele>
        <time>2016-02-23T13:25:51Z</time>
      </trkpt>
      <trkpt lat="44.72206" lon="3.2865">
        <ele>1024.42</ele>
        <time>2016-02-23T13:25:52Z</time>
      </trkpt>
      <trkpt lat="44.7221" lon="3.28651">
        <ele>1024.9</ele>
        <time>2016-02-23T13:25:53Z</time>
      </trkpt>
      <trkpt lat="44.72212" lon="3.28655">
        <ele>1024.9</ele>
        <time>2016-02-23T13:25:54Z</time>
      </trkpt>
      <trkpt lat="44.72214" lon="3.2866">
        <ele>1024.9</ele>
        <time>2016-02-23T13:25:55Z</time>
      </trkpt>
      <trkpt lat="44.72216" lon="3.28665">
        <ele>1025.38</ele>
        <time>2016-02-23T13:25:56Z</time>
      </trkpt>
      <trkpt lat="44.72217" lon="3.28669">
        <ele>1025.38</ele>
        <time>2016-02-23T13:25:57Z</time>
      </trkpt>
      <trkpt lat="44.72224" lon="3.2873">
        <ele>1028.75</ele>
        <time>2016-02-23T13:26:11Z</time>
      </trkpt>
      <trkpt lat="44.72211" lon="3.2878">
        <ele>1030.67</ele>
        <time>2016-02-23T13:26:24Z</time>
      </trkpt>
      <trkpt lat="44.72186" lon="3.28848">
        <ele>1033.07</ele>
        <time>2016-02-23T13:26:41Z</time>
      </trkpt>
      <trkpt lat="44.72165" lon="3.28907">
        <ele>1035.48</ele>
        <time>2016-02-23T13:26:56Z</time>
      </trkpt>
      <trkpt lat="44.72148" lon="3.28975">
        <ele>1038.36</ele>
        <time>2016-02-23T13:27:12Z</time>
      </trkpt>
      <trkpt lat="44.72133" lon="3.29035">
        <ele>1041.73</ele>
        <time>2016-02-23T13:27:26Z</time>
      </trkpt>
      <trkpt lat="44.72119" lon="3.29091">
        <ele>1043.65</ele>
        <time>2016-02-23T13:27:40Z</time>
      </trkpt>
      <trkpt lat="44.7211" lon="3.29133">
        <ele>1047.01</ele>
        <time>2016-02-23T13:27:51Z</time>
      </trkpt>
      <trkpt lat="44.721" lon="3.29179">
        <ele>1050.38</ele>
        <time>2016-02-23T13:28:03Z</time>
      </trkpt>
      <trkpt lat="44.72081" lon="3.29238">
        <ele>1052.78</ele>
        <time>2016-02-23T13:28:18Z</time>
      </trkpt>
      <trkpt lat="44.72045" lon="3.29306">
        <ele>1053.74</ele>
        <time>2016-02-23T13:28:37Z</time>
      </trkpt>
      <trkpt lat="44.72014" lon="3.29363">
        <ele>1056.15</ele>
        <time>2016-02-23T13:28:53Z</time>
      </trkpt>
      <trkpt lat="44.71979" lon="3.29412">
        <ele>1057.59</ele>
        <time>2016-02-23T13:29:10Z</time>
      </trkpt>
      <trkpt lat="44.71936" lon="3.29448">
        <ele>1059.03</ele>
        <time>2016-02-23T13:29:27Z</time>
      </trkpt>
      <trkpt lat="44.71908" lon="3.29489">
        <ele>1060.95</ele>
        <time>2016-02-23T13:29:40Z</time>
      </trkpt>
      <trkpt lat="44.71902" lon="3.29538">
        <ele>1061.91</ele>
        <time>2016-02-23T13:29:51Z</time>
      </trkpt>
      <trkpt lat="44.71903" lon="3.29541">
        <ele>1061.91</ele>
        <time>2016-02-23T13:29:52Z</time>
      </trkpt>
      <trkpt lat="44.71906" lon="3.29544">
        <ele>1062.39</ele>
        <time>2016-02-23T13:29:53Z</time>
      </trkpt>
      <trkpt lat="44.71908" lon="3.29546">
        <ele>1062.39</ele>
        <time>2016-02-23T13:29:54Z</time>
      </trkpt>
      <trkpt lat="44.71918" lon="3.29554">
        <ele>1061.43</ele>
        <time>2016-02-23T13:29:57Z</time>
      </trkpt>
      <trkpt lat="44.71921" lon="3.29559">
        <ele>1060.95</ele>
        <time>2016-02-23T13:29:58Z</time>
      </trkpt>
      <trkpt lat="44.71925" lon="3.29563">
        <ele>1061.43</ele>
        <time>2016-02-23T13:29:59Z</time>
      </trkpt>
      <trkpt lat="44.71937" lon="3.29577">
        <ele>1059.99</ele>
        <time>2016-02-23T13:30:02Z</time>
      </trkpt>
      <trkpt lat="44.71986" lon="3.29634">
        <ele>1061.43</ele>
        <time>2016-02-23T13:30:15Z</time>
      </trkpt>
      <trkpt lat="44.72032" lon="3.29688">
        <ele>1062.87</ele>
        <time>2016-02-23T13:30:29Z</time>
      </trkpt>
      <trkpt lat="44.72035" lon="3.29693">
        <ele>1062.87</ele>
        <time>2016-02-23T13:30:30Z</time>
      </trkpt>
      <trkpt lat="44.72043" lon="3.29708">
        <ele>1062.87</ele>
        <time>2016-02-23T13:30:33Z</time>
      </trkpt>
      <trkpt lat="44.72057" lon="3.29741">
        <ele>1062.87</ele>
        <time>2016-02-23T13:30:39Z</time>
      </trkpt>
      <trkpt lat="44.72069" lon="3.2978">
        <ele>1062.87</ele>
        <time>2016-02-23T13:30:46Z</time>
      </trkpt>
      <trkpt lat="44.72071" lon="3.29786">
        <ele>1062.39</ele>
        <time>2016-02-23T13:30:47Z</time>
      </trkpt>
      <trkpt lat="44.72093" lon="3.29859">
        <ele>1063.36</ele>
        <time>2016-02-23T13:31:01Z</time>
      </trkpt>
      <trkpt lat="44.72096" lon="3.29867">
        <ele>1063.36</ele>
        <time>2016-02-23T13:31:04Z</time>
      </trkpt>
      <trkpt lat="44.72097" lon="3.29867">
        <ele>1063.36</ele>
        <time>2016-02-23T13:31:05Z</time>
      </trkpt>
      <trkpt lat="44.72099" lon="3.29867">
        <ele>1062.87</ele>
        <time>2016-02-23T13:31:06Z</time>
      </trkpt>
      <trkpt lat="44.721" lon="3.29866">
        <ele>1062.87</ele>
        <time>2016-02-23T13:31:07Z</time>
      </trkpt>
      <trkpt lat="44.72101" lon="3.29866">
        <ele>1063.36</ele>
        <time>2016-02-23T13:31:08Z</time>
      </trkpt>
      <trkpt lat="44.72103" lon="3.29866">
        <ele>1063.36</ele>
        <time>2016-02-23T13:31:09Z</time>
      </trkpt>
      <trkpt lat="44.72104" lon="3.29867">
        <ele>1062.87</ele>
        <time>2016-02-23T13:31:10Z</time>
      </trkpt>
      <trkpt lat="44.72104" lon="3.29867">
        <ele>1062.87</ele>
        <time>2016-02-23T13:31:21Z</time>
      </trkpt>
      <trkpt lat="44.72102" lon="3.29869">
        <ele>1063.36</ele>
        <time>2016-02-23T13:31:29Z</time>
      </trkpt>
      <trkpt lat="44.721" lon="3.29871">
        <ele>1062.87</ele>
        <time>2016-02-23T13:31:30Z</time>
      </trkpt>
      <trkpt lat="44.72098" lon="3.29874">
        <ele>1063.36</ele>
        <time>2016-02-23T13:31:31Z</time>
      </trkpt>
      <trkpt lat="44.72098" lon="3.29878">
        <ele>1063.36</ele>
        <time>2016-02-23T13:31:32Z</time>
      </trkpt>
      <trkpt lat="44.72099" lon="3.29883">
        <ele>1063.36</ele>
        <time>2016-02-23T13:31:33Z</time>
      </trkpt>
      <trkpt lat="44.72101" lon="3.29888">
        <ele>1063.36</ele>
        <time>2016-02-23T13:31:34Z</time>
      </trkpt>
      <trkpt lat="44.72123" lon="3.29962">
        <ele>1064.8</ele>
        <time>2016-02-23T13:31:48Z</time>
      </trkpt>
      <trkpt lat="44.72124" lon="3.29967">
        <ele>1064.8</ele>
        <time>2016-02-23T13:31:49Z</time>
      </trkpt>
      <trkpt lat="44.72126" lon="3.29972">
        <ele>1064.8</ele>
        <time>2016-02-23T13:31:50Z</time>
      </trkpt>
      <trkpt lat="44.72127" lon="3.29978">
        <ele>1064.8</ele>
        <time>2016-02-23T13:31:51Z</time>
      </trkpt>
      <trkpt lat="44.72129" lon="3.29984">
        <ele>1065.28</ele>
        <time>2016-02-23T13:31:52Z</time>
      </trkpt>
      <trkpt lat="44.72131" lon="3.29989">
        <ele>1065.28</ele>
        <time>2016-02-23T13:31:53Z</time>
      </trkpt>
      <trkpt lat="44.72142" lon="3.30045">
        <ele>1065.76</ele>
        <time>2016-02-23T13:32:03Z</time>
      </trkpt>
      <trkpt lat="44.72142" lon="3.30051">
        <ele>1065.76</ele>
        <time>2016-02-23T13:32:04Z</time>
      </trkpt>
      <trkpt lat="44.72147" lon="3.30135">
        <ele>1068.16</ele>
        <time>2016-02-23T13:32:19Z</time>
      </trkpt>
      <trkpt lat="44.72131" lon="3.30189">
        <ele>1068.16</ele>
        <time>2016-02-23T13:32:30Z</time>
      </trkpt>
      <trkpt lat="44.72099" lon="3.30258">
        <ele>1069.12</ele>
        <time>2016-02-23T13:32:44Z</time>
      </trkpt>
      <trkpt lat="44.72098" lon="3.30264">
        <ele>1069.12</ele>
        <time>2016-02-23T13:32:45Z</time>
      </trkpt>
      <trkpt lat="44.72097" lon="3.30269">
        <ele>1069.6</ele>
        <time>2016-02-23T13:32:46Z</time>
      </trkpt>
      <trkpt lat="44.72093" lon="3.30302">
        <ele>1068.64</ele>
        <time>2016-02-23T13:32:51Z</time>
      </trkpt>
      <trkpt lat="44.72094" lon="3.30309">
        <ele>1068.64</ele>
        <time>2016-02-23T13:32:52Z</time>
      </trkpt>
      <trkpt lat="44.72094" lon="3.30315">
        <ele>1068.64</ele>
        <time>2016-02-23T13:32:53Z</time>
      </trkpt>
      <trkpt lat="44.72096" lon="3.30322">
        <ele>1069.12</ele>
        <time>2016-02-23T13:32:54Z</time>
      </trkpt>
      <trkpt lat="44.72097" lon="3.30328">
        <ele>1069.12</ele>
        <time>2016-02-23T13:32:55Z</time>
      </trkpt>
      <trkpt lat="44.72136" lon="3.30389">
        <ele>1071.05</ele>
        <time>2016-02-23T13:33:09Z</time>
      </trkpt>
      <trkpt lat="44.72176" lon="3.30421">
        <ele>1074.41</ele>
        <time>2016-02-23T13:33:21Z</time>
      </trkpt>
      <trkpt lat="44.72179" lon="3.30424">
        <ele>1073.93</ele>
        <time>2016-02-23T13:33:22Z</time>
      </trkpt>
      <trkpt lat="44.72215" lon="3.30478">
        <ele>1075.85</ele>
        <time>2016-02-23T13:33:36Z</time>
      </trkpt>
      <trkpt lat="44.72238" lon="3.30515">
        <ele>1075.37</ele>
        <time>2016-02-23T13:33:45Z</time>
      </trkpt>
      <trkpt lat="44.72241" lon="3.30518">
        <ele>1075.85</ele>
        <time>2016-02-23T13:33:46Z</time>
      </trkpt>
      <trkpt lat="44.72244" lon="3.30522">
        <ele>1075.85</ele>
        <time>2016-02-23T13:33:47Z</time>
      </trkpt>
      <trkpt lat="44.72246" lon="3.30526">
        <ele>1076.33</ele>
        <time>2016-02-23T13:33:48Z</time>
      </trkpt>
      <trkpt lat="44.72248" lon="3.3053">
        <ele>1076.33</ele>
        <time>2016-02-23T13:33:49Z</time>
      </trkpt>
      <trkpt lat="44.72249" lon="3.30533">
        <ele>1076.81</ele>
        <time>2016-02-23T13:33:50Z</time>
      </trkpt>
      <trkpt lat="44.72269" lon="3.30574">
        <ele>1076.81</ele>
        <time>2016-02-23T13:34:00Z</time>
      </trkpt>
      <trkpt lat="44.72272" lon="3.30579">
        <ele>1076.81</ele>
        <time>2016-02-23T13:34:01Z</time>
      </trkpt>
      <trkpt lat="44.72275" lon="3.30583">
        <ele>1076.33</ele>
        <time>2016-02-23T13:34:02Z</time>
      </trkpt>
      <trkpt lat="44.72288" lon="3.30599">
        <ele>1076.33</ele>
        <time>2016-02-23T13:34:06Z</time>
      </trkpt>
      <trkpt lat="44.72303" lon="3.30612">
        <ele>1076.33</ele>
        <time>2016-02-23T13:34:10Z</time>
      </trkpt>
      <trkpt lat="44.72307" lon="3.30615">
        <ele>1076.33</ele>
        <time>2016-02-23T13:34:11Z</time>
      </trkpt>
      <trkpt lat="44.72368" lon="3.3064">
        <ele>1075.37</ele>
        <time>2016-02-23T13:34:24Z</time>
      </trkpt>
      <trkpt lat="44.72374" lon="3.30643">
        <ele>1074.89</ele>
        <time>2016-02-23T13:34:25Z</time>
      </trkpt>
      <trkpt lat="44.72398" lon="3.30657">
        <ele>1073.93</ele>
        <time>2016-02-23T13:34:29Z</time>
      </trkpt>
      <trkpt lat="44.72403" lon="3.30663">
        <ele>1073.93</ele>
        <time>2016-02-23T13:34:30Z</time>
      </trkpt>
      <trkpt lat="44.72408" lon="3.30669">
        <ele>1073.93</ele>
        <time>2016-02-23T13:34:31Z</time>
      </trkpt>
      <trkpt lat="44.72417" lon="3.30682">
        <ele>1074.41</ele>
        <time>2016-02-23T13:34:33Z</time>
      </trkpt>
      <trkpt lat="44.72442" lon="3.30725">
        <ele>1074.89</ele>
        <time>2016-02-23T13:34:39Z</time>
      </trkpt>
      <trkpt lat="44.72446" lon="3.30731">
        <ele>1074.89</ele>
        <time>2016-02-23T13:34:40Z</time>
      </trkpt>
      <trkpt lat="44.72451" lon="3.30737">
        <ele>1075.37</ele>
        <time>2016-02-23T13:34:41Z</time>
      </trkpt>
      <trkpt lat="44.72461" lon="3.30745">
        <ele>1075.85</ele>
        <time>2016-02-23T13:34:43Z</time>
      </trkpt>
      <trkpt lat="44.72466" lon="3.30749">
        <ele>1075.37</ele>
        <time>2016-02-23T13:34:44Z</time>
      </trkpt>
      <trkpt lat="44.72476" lon="3.30756">
        <ele>1075.37</ele>
        <time>2016-02-23T13:34:46Z</time>
      </trkpt>
      <trkpt lat="44.72481" lon="3.3076">
        <ele>1074.89</ele>
        <time>2016-02-23T13:34:47Z</time>
      </trkpt>
      <trkpt lat="44.72487" lon="3.30762">
        <ele>1074.41</ele>
        <time>2016-02-23T13:34:48Z</time>
      </trkpt>
      <trkpt lat="44.72492" lon="3.30761">
        <ele>1073.45</ele>
        <time>2016-02-23T13:34:49Z</time>
      </trkpt>
      <trkpt lat="44.72497" lon="3.30759">
        <ele>1072.97</ele>
        <time>2016-02-23T13:34:50Z</time>
      </trkpt>
      <trkpt lat="44.72502" lon="3.30759">
        <ele>1072.97</ele>
        <time>2016-02-23T13:34:51Z</time>
      </trkpt>
      <trkpt lat="44.72506" lon="3.30758">
        <ele>1072.97</ele>
        <time>2016-02-23T13:34:52Z</time>
      </trkpt>
      <trkpt lat="44.7251" lon="3.30758">
        <ele>1072.97</ele>
        <time>2016-02-23T13:34:53Z</time>
      </trkpt>
      <trkpt lat="44.72514" lon="3.30759">
        <ele>1072.97</ele>
        <time>2016-02-23T13:34:54Z</time>
      </trkpt>
      <trkpt lat="44.72516" lon="3.3076">
        <ele>1073.45</ele>
        <time>2016-02-23T13:34:55Z</time>
      </trkpt>
      <trkpt lat="44.7253" lon="3.30787">
        <ele>1070.57</ele>
        <time>2016-02-23T13:35:04Z</time>
      </trkpt>
      <trkpt lat="44.72533" lon="3.308">
        <ele>1069.6</ele>
        <time>2016-02-23T13:35:06Z</time>
      </trkpt>
      <trkpt lat="44.72533" lon="3.30808">
        <ele>1069.6</ele>
        <time>2016-02-23T13:35:07Z</time>
      </trkpt>
      <trkpt lat="44.72534" lon="3.30815">
        <ele>1069.6</ele>
        <time>2016-02-23T13:35:08Z</time>
      </trkpt>
      <trkpt lat="44.72538" lon="3.30829">
        <ele>1069.12</ele>
        <time>2016-02-23T13:35:10Z</time>
      </trkpt>
      <trkpt lat="44.72539" lon="3.30835">
        <ele>1068.64</ele>
        <time>2016-02-23T13:35:11Z</time>
      </trkpt>
      <trkpt lat="44.72541" lon="3.30841">
        <ele>1068.64</ele>
        <time>2016-02-23T13:35:12Z</time>
      </trkpt>
      <trkpt lat="44.72543" lon="3.30847">
        <ele>1068.64</ele>
        <time>2016-02-23T13:35:13Z</time>
      </trkpt>
      <trkpt lat="44.72545" lon="3.30854">
        <ele>1068.64</ele>
        <time>2016-02-23T13:35:14Z</time>
      </trkpt>
      <trkpt lat="44.72548" lon="3.30868">
        <ele>1068.64</ele>
        <time>2016-02-23T13:35:16Z</time>
      </trkpt>
      <trkpt lat="44.72553" lon="3.30882">
        <ele>1068.16</ele>
        <time>2016-02-23T13:35:18Z</time>
      </trkpt>
      <trkpt lat="44.72554" lon="3.30889">
        <ele>1068.16</ele>
        <time>2016-02-23T13:35:19Z</time>
      </trkpt>
      <trkpt lat="44.72555" lon="3.30907">
        <ele>1068.16</ele>
        <time>2016-02-23T13:35:21Z</time>
      </trkpt>
      <trkpt lat="44.72557" lon="3.30915">
        <ele>1068.16</ele>
        <time>2016-02-23T13:35:22Z</time>
      </trkpt>
      <trkpt lat="44.72558" lon="3.30923">
        <ele>1068.64</ele>
        <time>2016-02-23T13:35:23Z</time>
      </trkpt>
      <trkpt lat="44.72558" lon="3.30931">
        <ele>1068.16</ele>
        <time>2016-02-23T13:35:24Z</time>
      </trkpt>
      <trkpt lat="44.72557" lon="3.30938">
        <ele>1068.16</ele>
        <time>2016-02-23T13:35:25Z</time>
      </trkpt>
      <trkpt lat="44.72557" lon="3.30945">
        <ele>1068.16</ele>
        <time>2016-02-23T13:35:26Z</time>
      </trkpt>
      <trkpt lat="44.72557" lon="3.30952">
        <ele>1068.64</ele>
        <time>2016-02-23T13:35:27Z</time>
      </trkpt>
      <trkpt lat="44.72558" lon="3.30959">
        <ele>1068.16</ele>
        <time>2016-02-23T13:35:28Z</time>
      </trkpt>
      <trkpt lat="44.72557" lon="3.30965">
        <ele>1068.16</ele>
        <time>2016-02-23T13:35:29Z</time>
      </trkpt>
      <trkpt lat="44.72557" lon="3.30972">
        <ele>1068.16</ele>
        <time>2016-02-23T13:35:30Z</time>
      </trkpt>
      <trkpt lat="44.72556" lon="3.30978">
        <ele>1068.16</ele>
        <time>2016-02-23T13:35:31Z</time>
      </trkpt>
      <trkpt lat="44.72556" lon="3.30985">
        <ele>1068.16</ele>
        <time>2016-02-23T13:35:32Z</time>
      </trkpt>
      <trkpt lat="44.72556" lon="3.30992">
        <ele>1068.16</ele>
        <time>2016-02-23T13:35:33Z</time>
      </trkpt>
      <trkpt lat="44.72557" lon="3.30999">
        <ele>1068.16</ele>
        <time>2016-02-23T13:35:34Z</time>
      </trkpt>
      <trkpt lat="44.72557" lon="3.31006">
        <ele>1068.16</ele>
        <time>2016-02-23T13:35:35Z</time>
      </trkpt>
      <trkpt lat="44.72558" lon="3.31012">
        <ele>1068.16</ele>
        <time>2016-02-23T13:35:36Z</time>
      </trkpt>
      <trkpt lat="44.72558" lon="3.31059">
        <ele>1067.68</ele>
        <time>2016-02-23T13:35:43Z</time>
      </trkpt>
      <trkpt lat="44.72558" lon="3.31075">
        <ele>1067.2</ele>
        <time>2016-02-23T13:35:45Z</time>
      </trkpt>
      <trkpt lat="44.72557" lon="3.31111">
        <ele>1064.32</ele>
        <time>2016-02-23T13:35:49Z</time>
      </trkpt>
      <trkpt lat="44.72556" lon="3.31145">
        <ele>1060.47</ele>
        <time>2016-02-23T13:35:52Z</time>
      </trkpt>
      <trkpt lat="44.72555" lon="3.31186">
        <ele>1056.63</ele>
        <time>2016-02-23T13:35:55Z</time>
      </trkpt>
      <trkpt lat="44.72554" lon="3.31255">
        <ele>1052.78</ele>
        <time>2016-02-23T13:36:00Z</time>
      </trkpt>
      <trkpt lat="44.72553" lon="3.31282">
        <ele>1051.34</ele>
        <time>2016-02-23T13:36:02Z</time>
      </trkpt>
      <trkpt lat="44.72547" lon="3.31358">
        <ele>1051.34</ele>
        <time>2016-02-23T13:36:08Z</time>
      </trkpt>
      <trkpt lat="44.72545" lon="3.31369">
        <ele>1050.86</ele>
        <time>2016-02-23T13:36:09Z</time>
      </trkpt>
      <trkpt lat="44.72539" lon="3.31433">
        <ele>1047.97</ele>
        <time>2016-02-23T13:36:15Z</time>
      </trkpt>
      <trkpt lat="44.72539" lon="3.31469">
        <ele>1045.57</ele>
        <time>2016-02-23T13:36:18Z</time>
      </trkpt>
      <trkpt lat="44.72539" lon="3.31481">
        <ele>1045.57</ele>
        <time>2016-02-23T13:36:19Z</time>
      </trkpt>
      <trkpt lat="44.72535" lon="3.31551">
        <ele>1043.17</ele>
        <time>2016-02-23T13:36:25Z</time>
      </trkpt>
      <trkpt lat="44.72533" lon="3.31563">
        <ele>1042.69</ele>
        <time>2016-02-23T13:36:26Z</time>
      </trkpt>
      <trkpt lat="44.72527" lon="3.31597">
        <ele>1041.25</ele>
        <time>2016-02-23T13:36:29Z</time>
      </trkpt>
      <trkpt lat="44.72524" lon="3.31608">
        <ele>1041.25</ele>
        <time>2016-02-23T13:36:30Z</time>
      </trkpt>
      <trkpt lat="44.72522" lon="3.31619">
        <ele>1041.25</ele>
        <time>2016-02-23T13:36:31Z</time>
      </trkpt>
      <trkpt lat="44.72521" lon="3.31631">
        <ele>1040.76</ele>
        <time>2016-02-23T13:36:32Z</time>
      </trkpt>
      <trkpt lat="44.7252" lon="3.31643">
        <ele>1040.28</ele>
        <time>2016-02-23T13:36:33Z</time>
      </trkpt>
      <trkpt lat="44.7252" lon="3.31711">
        <ele>1037.88</ele>
        <time>2016-02-23T13:36:39Z</time>
      </trkpt>
      <trkpt lat="44.7252" lon="3.31721">
        <ele>1037.4</ele>
        <time>2016-02-23T13:36:40Z</time>
      </trkpt>
      <trkpt lat="44.72519" lon="3.31759">
        <ele>1037.88</ele>
        <time>2016-02-23T13:36:44Z</time>
      </trkpt>
      <trkpt lat="44.72508" lon="3.31859">
        <ele>1037.88</ele>
        <time>2016-02-23T13:36:57Z</time>
      </trkpt>
      <trkpt lat="44.72505" lon="3.31889">
        <ele>1037.4</ele>
        <time>2016-02-23T13:37:01Z</time>
      </trkpt>
      <trkpt lat="44.72504" lon="3.31897">
        <ele>1036.92</ele>
        <time>2016-02-23T13:37:02Z</time>
      </trkpt>
      <trkpt lat="44.72503" lon="3.31904">
        <ele>1036.92</ele>
        <time>2016-02-23T13:37:03Z</time>
      </trkpt>
      <trkpt lat="44.72501" lon="3.31911">
        <ele>1036.92</ele>
        <time>2016-02-23T13:37:04Z</time>
      </trkpt>
      <trkpt lat="44.72499" lon="3.31919">
        <ele>1036.44</ele>
        <time>2016-02-23T13:37:05Z</time>
      </trkpt>
      <trkpt lat="44.72493" lon="3.31947">
        <ele>1035.48</ele>
        <time>2016-02-23T13:37:09Z</time>
      </trkpt>
      <trkpt lat="44.72492" lon="3.31955">
        <ele>1034.52</ele>
        <time>2016-02-23T13:37:10Z</time>
      </trkpt>
      <trkpt lat="44.72491" lon="3.31963">
        <ele>1034.04</ele>
        <time>2016-02-23T13:37:11Z</time>
      </trkpt>
      <trkpt lat="44.7249" lon="3.3197">
        <ele>1034.04</ele>
        <time>2016-02-23T13:37:12Z</time>
      </trkpt>
      <trkpt lat="44.72489" lon="3.31977">
        <ele>1034.04</ele>
        <time>2016-02-23T13:37:13Z</time>
      </trkpt>
      <trkpt lat="44.72488" lon="3.32">
        <ele>1032.59</ele>
        <time>2016-02-23T13:37:16Z</time>
      </trkpt>
      <trkpt lat="44.72487" lon="3.32009">
        <ele>1032.11</ele>
        <time>2016-02-23T13:37:17Z</time>
      </trkpt>
      <trkpt lat="44.72487" lon="3.32017">
        <ele>1031.63</ele>
        <time>2016-02-23T13:37:18Z</time>
      </trkpt>
      <trkpt lat="44.72486" lon="3.32025">
        <ele>1031.63</ele>
        <time>2016-02-23T13:37:19Z</time>
      </trkpt>
      <trkpt lat="44.72485" lon="3.32034">
        <ele>1031.63</ele>
        <time>2016-02-23T13:37:20Z</time>
      </trkpt>
      <trkpt lat="44.72483" lon="3.3204">
        <ele>1031.63</ele>
        <time>2016-02-23T13:37:21Z</time>
      </trkpt>
      <trkpt lat="44.72482" lon="3.32044">
        <ele>1031.63</ele>
        <time>2016-02-23T13:37:22Z</time>
      </trkpt>
      <trkpt lat="44.72482" lon="3.32047">
        <ele>1032.11</ele>
        <time>2016-02-23T13:37:31Z</time>
      </trkpt>
      <trkpt lat="44.72481" lon="3.32048">
        <ele>1032.11</ele>
        <time>2016-02-23T13:37:36Z</time>
      </trkpt>
      <trkpt lat="44.72479" lon="3.32049">
        <ele>1032.11</ele>
        <time>2016-02-23T13:37:37Z</time>
      </trkpt>
      <trkpt lat="44.72478" lon="3.32051">
        <ele>1032.11</ele>
        <time>2016-02-23T13:37:38Z</time>
      </trkpt>
      <trkpt lat="44.72478" lon="3.32052">
        <ele>1031.63</ele>
        <time>2016-02-23T13:37:39Z</time>
      </trkpt>
      <trkpt lat="44.72477" lon="3.32054">
        <ele>1030.19</ele>
        <time>2016-02-23T13:37:52Z</time>
      </trkpt>
      <trkpt lat="44.72477" lon="3.32054">
        <ele>1031.63</ele>
        <time>2016-02-23T13:38:12Z</time>
      </trkpt>
      <trkpt lat="44.72476" lon="3.32056">
        <ele>1032.11</ele>
        <time>2016-02-23T13:38:39Z</time>
      </trkpt>
      <trkpt lat="44.72464" lon="3.3208">
        <ele>1032.59</ele>
        <time>2016-02-23T13:38:48Z</time>
      </trkpt>
      <trkpt lat="44.72464" lon="3.32081">
        <ele>1032.11</ele>
        <time>2016-02-23T13:39:02Z</time>
      </trkpt>
      <trkpt lat="44.72462" lon="3.32083">
        <ele>1032.59</ele>
        <time>2016-02-23T13:39:11Z</time>
      </trkpt>
      <trkpt lat="44.7246" lon="3.32085">
        <ele>1032.59</ele>
        <time>2016-02-23T13:39:12Z</time>
      </trkpt>
      <trkpt lat="44.72457" lon="3.32087">
        <ele>1032.11</ele>
        <time>2016-02-23T13:39:13Z</time>
      </trkpt>
      <trkpt lat="44.72455" lon="3.32089">
        <ele>1032.11</ele>
        <time>2016-02-23T13:39:14Z</time>
      </trkpt>
      <trkpt lat="44.72452" lon="3.32091">
        <ele>1031.63</ele>
        <time>2016-02-23T13:39:15Z</time>
      </trkpt>
      <trkpt lat="44.72432" lon="3.32144">
        <ele>1030.67</ele>
        <time>2016-02-23T13:39:26Z</time>
      </trkpt>
      <trkpt lat="44.72432" lon="3.32184">
        <ele>1031.63</ele>
        <time>2016-02-23T13:39:33Z</time>
      </trkpt>
      <trkpt lat="44.72433" lon="3.32201">
        <ele>1031.63</ele>
        <time>2016-02-23T13:39:36Z</time>
      </trkpt>
      <trkpt lat="44.72434" lon="3.32207">
        <ele>1031.63</ele>
        <time>2016-02-23T13:39:37Z</time>
      </trkpt>
      <trkpt lat="44.72434" lon="3.32213">
        <ele>1031.63</ele>
        <time>2016-02-23T13:39:38Z</time>
      </trkpt>
      <trkpt lat="44.72432" lon="3.32295">
        <ele>1034.04</ele>
        <time>2016-02-23T13:39:53Z</time>
      </trkpt>
      <trkpt lat="44.72427" lon="3.32337">
        <ele>1035</ele>
        <time>2016-02-23T13:40:04Z</time>
      </trkpt>
      <trkpt lat="44.72424" lon="3.32347">
        <ele>1035</ele>
        <time>2016-02-23T13:40:06Z</time>
      </trkpt>
      <trkpt lat="44.72423" lon="3.32352">
        <ele>1035</ele>
        <time>2016-02-23T13:40:07Z</time>
      </trkpt>
      <trkpt lat="44.72419" lon="3.3238">
        <ele>1034.04</ele>
        <time>2016-02-23T13:40:12Z</time>
      </trkpt>
      <trkpt lat="44.72417" lon="3.32393">
        <ele>1033.55</ele>
        <time>2016-02-23T13:40:14Z</time>
      </trkpt>
      <trkpt lat="44.7241" lon="3.32442">
        <ele>1032.59</ele>
        <time>2016-02-23T13:40:21Z</time>
      </trkpt>
      <trkpt lat="44.72396" lon="3.32566">
        <ele>1030.19</ele>
        <time>2016-02-23T13:40:35Z</time>
      </trkpt>
      <trkpt lat="44.72395" lon="3.32594">
        <ele>1029.71</ele>
        <time>2016-02-23T13:40:38Z</time>
      </trkpt>
      <trkpt lat="44.72393" lon="3.32603">
        <ele>1029.71</ele>
        <time>2016-02-23T13:40:39Z</time>
      </trkpt>
      <trkpt lat="44.72392" lon="3.32619">
        <ele>1029.71</ele>
        <time>2016-02-23T13:40:41Z</time>
      </trkpt>
      <trkpt lat="44.72393" lon="3.32634">
        <ele>1029.71</ele>
        <time>2016-02-23T13:40:43Z</time>
      </trkpt>
      <trkpt lat="44.72393" lon="3.32641">
        <ele>1029.71</ele>
        <time>2016-02-23T13:40:44Z</time>
      </trkpt>
      <trkpt lat="44.72392" lon="3.32647">
        <ele>1030.19</ele>
        <time>2016-02-23T13:40:45Z</time>
      </trkpt>
      <trkpt lat="44.72392" lon="3.32652">
        <ele>1030.67</ele>
        <time>2016-02-23T13:40:46Z</time>
      </trkpt>
      <trkpt lat="44.72391" lon="3.32657">
        <ele>1030.67</ele>
        <time>2016-02-23T13:40:47Z</time>
      </trkpt>
      <trkpt lat="44.72395" lon="3.3271">
        <ele>1030.67</ele>
        <time>2016-02-23T13:40:57Z</time>
      </trkpt>
      <trkpt lat="44.72401" lon="3.32728">
        <ele>1031.15</ele>
        <time>2016-02-23T13:41:00Z</time>
      </trkpt>
      <trkpt lat="44.72403" lon="3.32734">
        <ele>1031.15</ele>
        <time>2016-02-23T13:41:01Z</time>
      </trkpt>
      <trkpt lat="44.72405" lon="3.32739">
        <ele>1031.63</ele>
        <time>2016-02-23T13:41:02Z</time>
      </trkpt>
      <trkpt lat="44.72407" lon="3.32744">
        <ele>1031.63</ele>
        <time>2016-02-23T13:41:03Z</time>
      </trkpt>
      <trkpt lat="44.72409" lon="3.32748">
        <ele>1031.63</ele>
        <time>2016-02-23T13:41:04Z</time>
      </trkpt>
      <trkpt lat="44.72417" lon="3.32769">
        <ele>1032.59</ele>
        <time>2016-02-23T13:41:09Z</time>
      </trkpt>
      <trkpt lat="44.7243" lon="3.32813">
        <ele>1035</ele>
        <time>2016-02-23T13:41:20Z</time>
      </trkpt>
      <trkpt lat="44.72429" lon="3.3284">
        <ele>1034.52</ele>
        <time>2016-02-23T13:41:30Z</time>
      </trkpt>
      <trkpt lat="44.72425" lon="3.3286">
        <ele>1035</ele>
        <time>2016-02-23T13:41:40Z</time>
      </trkpt>
      <trkpt lat="44.72424" lon="3.3286">
        <ele>1035.48</ele>
        <time>2016-02-23T13:41:59Z</time>
      </trkpt>
      <trkpt lat="44.72425" lon="3.32859">
        <ele>1035.48</ele>
        <time>2016-02-23T13:42:24Z</time>
      </trkpt>
      <trkpt lat="44.72426" lon="3.32855">
        <ele>1035</ele>
        <time>2016-02-23T13:42:30Z</time>
      </trkpt>
      <trkpt lat="44.72427" lon="3.32853">
        <ele>1035</ele>
        <time>2016-02-23T13:42:31Z</time>
      </trkpt>
      <trkpt lat="44.72429" lon="3.32851">
        <ele>1034.52</ele>
        <time>2016-02-23T13:42:32Z</time>
      </trkpt>
      <trkpt lat="44.72432" lon="3.32851">
        <ele>1034.52</ele>
        <time>2016-02-23T13:42:33Z</time>
      </trkpt>
      <trkpt lat="44.72434" lon="3.32852">
        <ele>1034.52</ele>
        <time>2016-02-23T13:42:34Z</time>
      </trkpt>
      <trkpt lat="44.72435" lon="3.32853">
        <ele>1035</ele>
        <time>2016-02-23T13:42:35Z</time>
      </trkpt>
      <trkpt lat="44.72437" lon="3.32856">
        <ele>1035</ele>
        <time>2016-02-23T13:42:36Z</time>
      </trkpt>
      <trkpt lat="44.72438" lon="3.32858">
        <ele>1035</ele>
        <time>2016-02-23T13:42:37Z</time>
      </trkpt>
      <trkpt lat="44.72439" lon="3.32861">
        <ele>1035</ele>
        <time>2016-02-23T13:42:38Z</time>
      </trkpt>
      <trkpt lat="44.7244" lon="3.32863">
        <ele>1035</ele>
        <time>2016-02-23T13:42:39Z</time>
      </trkpt>
      <trkpt lat="44.72441" lon="3.32867">
        <ele>1035</ele>
        <time>2016-02-23T13:42:40Z</time>
      </trkpt>
      <trkpt lat="44.72442" lon="3.3287">
        <ele>1035</ele>
        <time>2016-02-23T13:42:41Z</time>
      </trkpt>
      <trkpt lat="44.72444" lon="3.32874">
        <ele>1035</ele>
        <time>2016-02-23T13:42:42Z</time>
      </trkpt>
      <trkpt lat="44.72446" lon="3.32878">
        <ele>1034.52</ele>
        <time>2016-02-23T13:42:43Z</time>
      </trkpt>
      <trkpt lat="44.72458" lon="3.32922">
        <ele>1035.48</ele>
        <time>2016-02-23T13:42:54Z</time>
      </trkpt>
      <trkpt lat="44.72478" lon="3.32958">
        <ele>1036.92</ele>
        <time>2016-02-23T13:43:05Z</time>
      </trkpt>
      <trkpt lat="44.72501" lon="3.33001">
        <ele>1035.96</ele>
        <time>2016-02-23T13:43:18Z</time>
      </trkpt>
      <trkpt lat="44.7251" lon="3.33015">
        <ele>1036.92</ele>
        <time>2016-02-23T13:43:28Z</time>
      </trkpt>
      <trkpt lat="44.72511" lon="3.33017">
        <ele>1036.44</ele>
        <time>2016-02-23T13:43:33Z</time>
      </trkpt>
      <trkpt lat="44.72511" lon="3.33018">
        <ele>1036.92</ele>
        <time>2016-02-23T13:43:34Z</time>
      </trkpt>
      <trkpt lat="44.72512" lon="3.33021">
        <ele>1037.4</ele>
        <time>2016-02-23T13:43:35Z</time>
      </trkpt>
      <trkpt lat="44.72514" lon="3.33026">
        <ele>1037.4</ele>
        <time>2016-02-23T13:43:37Z</time>
      </trkpt>
      <trkpt lat="44.72516" lon="3.33029">
        <ele>1036.92</ele>
        <time>2016-02-23T13:43:38Z</time>
      </trkpt>
      <trkpt lat="44.72518" lon="3.33032">
        <ele>1036.92</ele>
        <time>2016-02-23T13:43:39Z</time>
      </trkpt>
      <trkpt lat="44.7252" lon="3.33035">
        <ele>1036.92</ele>
        <time>2016-02-23T13:43:40Z</time>
      </trkpt>
      <trkpt lat="44.72523" lon="3.33038">
        <ele>1036.92</ele>
        <time>2016-02-23T13:43:41Z</time>
      </trkpt>
      <trkpt lat="44.72524" lon="3.33042">
        <ele>1036.92</ele>
        <time>2016-02-23T13:43:42Z</time>
      </trkpt>
      <trkpt lat="44.72525" lon="3.33045">
        <ele>1036.44</ele>
        <time>2016-02-23T13:43:43Z</time>
      </trkpt>
      <trkpt lat="44.72526" lon="3.33048">
        <ele>1036.44</ele>
        <time>2016-02-23T13:43:53Z</time>
      </trkpt>
      <trkpt lat="44.72527" lon="3.33049">
        <ele>1036.44</ele>
        <time>2016-02-23T13:43:54Z</time>
      </trkpt>
      <trkpt lat="44.72529" lon="3.33051">
        <ele>1035.96</ele>
        <time>2016-02-23T13:43:55Z</time>
      </trkpt>
      <trkpt lat="44.7253" lon="3.33053">
        <ele>1035.48</ele>
        <time>2016-02-23T13:43:56Z</time>
      </trkpt>
      <trkpt lat="44.72532" lon="3.33056">
        <ele>1035.48</ele>
        <time>2016-02-23T13:43:57Z</time>
      </trkpt>
      <trkpt lat="44.72534" lon="3.3306">
        <ele>1035</ele>
        <time>2016-02-23T13:43:58Z</time>
      </trkpt>
      <trkpt lat="44.72541" lon="3.33073">
        <ele>1034.04</ele>
        <time>2016-02-23T13:44:06Z</time>
      </trkpt>
      <trkpt lat="44.72543" lon="3.33076">
        <ele>1034.04</ele>
        <time>2016-02-23T13:44:07Z</time>
      </trkpt>
      <trkpt lat="44.72544" lon="3.33078">
        <ele>1033.55</ele>
        <time>2016-02-23T13:44:08Z</time>
      </trkpt>
      <trkpt lat="44.72544" lon="3.33082">
        <ele>1033.55</ele>
        <time>2016-02-23T13:44:20Z</time>
      </trkpt>
      <trkpt lat="44.72546" lon="3.33083">
        <ele>1033.07</ele>
        <time>2016-02-23T13:44:30Z</time>
      </trkpt>
      <trkpt lat="44.72546" lon="3.33082">
        <ele>1034.04</ele>
        <time>2016-02-23T13:44:34Z</time>
      </trkpt>
      <trkpt lat="44.72544" lon="3.33082">
        <ele>1033.55</ele>
        <time>2016-02-23T13:44:35Z</time>
      </trkpt>
      <trkpt lat="44.72539" lon="3.33073">
        <ele>1034.04</ele>
        <time>2016-02-23T13:44:39Z</time>
      </trkpt>
      <trkpt lat="44.72538" lon="3.33069">
        <ele>1034.04</ele>
        <time>2016-02-23T13:44:40Z</time>
      </trkpt>
      <trkpt lat="44.72537" lon="3.33067">
        <ele>1034.04</ele>
        <time>2016-02-23T13:44:41Z</time>
      </trkpt>
      <trkpt lat="44.72536" lon="3.33069">
        <ele>1035</ele>
        <time>2016-02-23T13:44:49Z</time>
      </trkpt>
      <trkpt lat="44.72536" lon="3.33069">
        <ele>1035.48</ele>
        <time>2016-02-23T13:45:19Z</time>
      </trkpt>
      <trkpt lat="44.72537" lon="3.33069">
        <ele>1035.48</ele>
        <time>2016-02-23T13:45:35Z</time>
      </trkpt>
      <trkpt lat="44.72539" lon="3.3307">
        <ele>1035.48</ele>
        <time>2016-02-23T13:45:36Z</time>
      </trkpt>
      <trkpt lat="44.72541" lon="3.33073">
        <ele>1035.48</ele>
        <time>2016-02-23T13:45:37Z</time>
      </trkpt>
      <trkpt lat="44.72543" lon="3.33078">
        <ele>1034.52</ele>
        <time>2016-02-23T13:45:38Z</time>
      </trkpt>
      <trkpt lat="44.72546" lon="3.33084">
        <ele>1034.04</ele>
        <time>2016-02-23T13:45:39Z</time>
      </trkpt>
      <trkpt lat="44.7255" lon="3.33089">
        <ele>1033.07</ele>
        <time>2016-02-23T13:45:40Z</time>
      </trkpt>
      <trkpt lat="44.72555" lon="3.33095">
        <ele>1032.59</ele>
        <time>2016-02-23T13:45:41Z</time>
      </trkpt>
      <trkpt lat="44.7256" lon="3.33101">
        <ele>1031.63</ele>
        <time>2016-02-23T13:45:42Z</time>
      </trkpt>
      <trkpt lat="44.72565" lon="3.33109">
        <ele>1030.67</ele>
        <time>2016-02-23T13:45:43Z</time>
      </trkpt>
      <trkpt lat="44.72576" lon="3.33127">
        <ele>1028.75</ele>
        <time>2016-02-23T13:45:45Z</time>
      </trkpt>
      <trkpt lat="44.72579" lon="3.33135">
        <ele>1027.79</ele>
        <time>2016-02-23T13:45:46Z</time>
      </trkpt>
      <trkpt lat="44.72582" lon="3.33145">
        <ele>1027.79</ele>
        <time>2016-02-23T13:45:51Z</time>
      </trkpt>
      <trkpt lat="44.72582" lon="3.33145">
        <ele>1027.79</ele>
        <time>2016-02-23T13:46:03Z</time>
      </trkpt>
      <trkpt lat="44.72583" lon="3.33147">
        <ele>1027.31</ele>
        <time>2016-02-23T13:46:04Z</time>
      </trkpt>
      <trkpt lat="44.72588" lon="3.3316">
        <ele>1026.83</ele>
        <time>2016-02-23T13:46:07Z</time>
      </trkpt>
      <trkpt lat="44.72591" lon="3.33165">
        <ele>1026.34</ele>
        <time>2016-02-23T13:46:08Z</time>
      </trkpt>
      <trkpt lat="44.726" lon="3.33179">
        <ele>1025.38</ele>
        <time>2016-02-23T13:46:12Z</time>
      </trkpt>
      <trkpt lat="44.72601" lon="3.33178">
        <ele>1025.86</ele>
        <time>2016-02-23T13:46:22Z</time>
      </trkpt>
      <trkpt lat="44.72601" lon="3.33178">
        <ele>1026.34</ele>
        <time>2016-02-23T13:46:47Z</time>
      </trkpt>
      <trkpt lat="44.72616" lon="3.33179">
        <ele>1024.9</ele>
        <time>2016-02-23T13:46:56Z</time>
      </trkpt>
      <trkpt lat="44.7265" lon="3.33167">
        <ele>1024.9</ele>
        <time>2016-02-23T13:47:06Z</time>
      </trkpt>
      <trkpt lat="44.72669" lon="3.3316">
        <ele>1024.9</ele>
        <time>2016-02-23T13:47:11Z</time>
      </trkpt>
      <trkpt lat="44.72678" lon="3.33156">
        <ele>1024.9</ele>
        <time>2016-02-23T13:47:13Z</time>
      </trkpt>
      <trkpt lat="44.72705" lon="3.33148">
        <ele>1025.86</ele>
        <time>2016-02-23T13:47:21Z</time>
      </trkpt>
      <trkpt lat="44.72734" lon="3.33143">
        <ele>1026.83</ele>
        <time>2016-02-23T13:47:28Z</time>
      </trkpt>
      <trkpt lat="44.72743" lon="3.33142">
        <ele>1026.83</ele>
        <time>2016-02-23T13:47:30Z</time>
      </trkpt>
      <trkpt lat="44.72746" lon="3.33139">
        <ele>1026.34</ele>
        <time>2016-02-23T13:47:31Z</time>
      </trkpt>
      <trkpt lat="44.72751" lon="3.33136">
        <ele>1025.86</ele>
        <time>2016-02-23T13:47:32Z</time>
      </trkpt>
      <trkpt lat="44.72755" lon="3.33134">
        <ele>1025.86</ele>
        <time>2016-02-23T13:47:33Z</time>
      </trkpt>
      <trkpt lat="44.72759" lon="3.33131">
        <ele>1025.86</ele>
        <time>2016-02-23T13:47:34Z</time>
      </trkpt>
      <trkpt lat="44.72786" lon="3.3311">
        <ele>1023.46</ele>
        <time>2016-02-23T13:47:42Z</time>
      </trkpt>
      <trkpt lat="44.728" lon="3.33097">
        <ele>1022.02</ele>
        <time>2016-02-23T13:47:45Z</time>
      </trkpt>
      <trkpt lat="44.7281" lon="3.33088">
        <ele>1020.1</ele>
        <time>2016-02-23T13:47:47Z</time>
      </trkpt>
      <trkpt lat="44.72815" lon="3.33083">
        <ele>1020.58</ele>
        <time>2016-02-23T13:47:48Z</time>
      </trkpt>
      <trkpt lat="44.7282" lon="3.33078">
        <ele>1020.58</ele>
        <time>2016-02-23T13:47:49Z</time>
      </trkpt>
      <trkpt lat="44.72836" lon="3.3306">
        <ele>1017.21</ele>
        <time>2016-02-23T13:47:52Z</time>
      </trkpt>
      <trkpt lat="44.7286" lon="3.33037">
        <ele>1014.33</ele>
        <time>2016-02-23T13:47:56Z</time>
      </trkpt>
      <trkpt lat="44.72884" lon="3.33027">
        <ele>1011.44</ele>
        <time>2016-02-23T13:47:59Z</time>
      </trkpt>
      <trkpt lat="44.729" lon="3.3302">
        <ele>1010</ele>
        <time>2016-02-23T13:48:01Z</time>
      </trkpt>
      <trkpt lat="44.72908" lon="3.33018">
        <ele>1009.04</ele>
        <time>2016-02-23T13:48:02Z</time>
      </trkpt>
      <trkpt lat="44.72916" lon="3.33013">
        <ele>1007.6</ele>
        <time>2016-02-23T13:48:03Z</time>
      </trkpt>
      <trkpt lat="44.72924" lon="3.33007">
        <ele>1005.68</ele>
        <time>2016-02-23T13:48:04Z</time>
      </trkpt>
      <trkpt lat="44.7293" lon="3.33002">
        <ele>1005.2</ele>
        <time>2016-02-23T13:48:05Z</time>
      </trkpt>
      <trkpt lat="44.72936" lon="3.32998">
        <ele>1005.2</ele>
        <time>2016-02-23T13:48:06Z</time>
      </trkpt>
      <trkpt lat="44.72942" lon="3.32998">
        <ele>1004.72</ele>
        <time>2016-02-23T13:48:07Z</time>
      </trkpt>
      <trkpt lat="44.72948" lon="3.32999">
        <ele>1003.75</ele>
        <time>2016-02-23T13:48:08Z</time>
      </trkpt>
      <trkpt lat="44.72955" lon="3.32999">
        <ele>1003.27</ele>
        <time>2016-02-23T13:48:09Z</time>
      </trkpt>
      <trkpt lat="44.72961" lon="3.32999">
        <ele>1002.31</ele>
        <time>2016-02-23T13:48:10Z</time>
      </trkpt>
      <trkpt lat="44.72968" lon="3.32999">
        <ele>1001.35</ele>
        <time>2016-02-23T13:48:11Z</time>
      </trkpt>
      <trkpt lat="44.72976" lon="3.32999">
        <ele>1000.39</ele>
        <time>2016-02-23T13:48:12Z</time>
      </trkpt>
      <trkpt lat="44.73001" lon="3.32996">
        <ele>996.54</ele>
        <time>2016-02-23T13:48:15Z</time>
      </trkpt>
      <trkpt lat="44.73032" lon="3.32993">
        <ele>993.66</ele>
        <time>2016-02-23T13:48:19Z</time>
      </trkpt>
      <trkpt lat="44.73039" lon="3.32994">
        <ele>993.18</ele>
        <time>2016-02-23T13:48:20Z</time>
      </trkpt>
      <trkpt lat="44.73045" lon="3.32995">
        <ele>992.22</ele>
        <time>2016-02-23T13:48:21Z</time>
      </trkpt>
      <trkpt lat="44.73059" lon="3.32997">
        <ele>990.78</ele>
        <time>2016-02-23T13:48:23Z</time>
      </trkpt>
      <trkpt lat="44.73067" lon="3.33">
        <ele>989.81</ele>
        <time>2016-02-23T13:48:24Z</time>
      </trkpt>
      <trkpt lat="44.73075" lon="3.33005">
        <ele>988.85</ele>
        <time>2016-02-23T13:48:25Z</time>
      </trkpt>
      <trkpt lat="44.73098" lon="3.33026">
        <ele>986.45</ele>
        <time>2016-02-23T13:48:29Z</time>
      </trkpt>
      <trkpt lat="44.73106" lon="3.33035">
        <ele>985.97</ele>
        <time>2016-02-23T13:48:31Z</time>
      </trkpt>
      <trkpt lat="44.7312" lon="3.33042">
        <ele>983.57</ele>
        <time>2016-02-23T13:48:35Z</time>
      </trkpt>
      <trkpt lat="44.73125" lon="3.33043">
        <ele>982.6</ele>
        <time>2016-02-23T13:48:36Z</time>
      </trkpt>
      <trkpt lat="44.7313" lon="3.33041">
        <ele>981.16</ele>
        <time>2016-02-23T13:48:37Z</time>
      </trkpt>
      <trkpt lat="44.73135" lon="3.33037">
        <ele>980.2</ele>
        <time>2016-02-23T13:48:38Z</time>
      </trkpt>
      <trkpt lat="44.7314" lon="3.33032">
        <ele>979.24</ele>
        <time>2016-02-23T13:48:39Z</time>
      </trkpt>
      <trkpt lat="44.73145" lon="3.33026">
        <ele>978.28</ele>
        <time>2016-02-23T13:48:40Z</time>
      </trkpt>
      <trkpt lat="44.7315" lon="3.3302">
        <ele>976.36</ele>
        <time>2016-02-23T13:48:41Z</time>
      </trkpt>
      <trkpt lat="44.73155" lon="3.33015">
        <ele>976.36</ele>
        <time>2016-02-23T13:48:42Z</time>
      </trkpt>
      <trkpt lat="44.73163" lon="3.33006">
        <ele>975.39</ele>
        <time>2016-02-23T13:48:44Z</time>
      </trkpt>
      <trkpt lat="44.73178" lon="3.3299">
        <ele>972.99</ele>
        <time>2016-02-23T13:48:48Z</time>
      </trkpt>
      <trkpt lat="44.73182" lon="3.3299">
        <ele>972.51</ele>
        <time>2016-02-23T13:48:49Z</time>
      </trkpt>
      <trkpt lat="44.73188" lon="3.3299">
        <ele>972.51</ele>
        <time>2016-02-23T13:48:51Z</time>
      </trkpt>
      <trkpt lat="44.7319" lon="3.3299">
        <ele>972.99</ele>
        <time>2016-02-23T13:48:52Z</time>
      </trkpt>
      <trkpt lat="44.73192" lon="3.32991">
        <ele>972.99</ele>
        <time>2016-02-23T13:48:53Z</time>
      </trkpt>
      <trkpt lat="44.73195" lon="3.32993">
        <ele>972.51</ele>
        <time>2016-02-23T13:48:54Z</time>
      </trkpt>
      <trkpt lat="44.73198" lon="3.32995">
        <ele>972.03</ele>
        <time>2016-02-23T13:48:55Z</time>
      </trkpt>
      <trkpt lat="44.73202" lon="3.32998">
        <ele>971.55</ele>
        <time>2016-02-23T13:48:56Z</time>
      </trkpt>
      <trkpt lat="44.73205" lon="3.33">
        <ele>971.07</ele>
        <time>2016-02-23T13:48:57Z</time>
      </trkpt>
      <trkpt lat="44.73218" lon="3.33006">
        <ele>970.11</ele>
        <time>2016-02-23T13:49:00Z</time>
      </trkpt>
      <trkpt lat="44.73223" lon="3.33007">
        <ele>970.11</ele>
        <time>2016-02-23T13:49:01Z</time>
      </trkpt>
      <trkpt lat="44.73227" lon="3.33007">
        <ele>970.11</ele>
        <time>2016-02-23T13:49:02Z</time>
      </trkpt>
      <trkpt lat="44.73231" lon="3.33009">
        <ele>969.63</ele>
        <time>2016-02-23T13:49:03Z</time>
      </trkpt>
      <trkpt lat="44.73234" lon="3.33012">
        <ele>969.15</ele>
        <time>2016-02-23T13:49:04Z</time>
      </trkpt>
      <trkpt lat="44.73237" lon="3.33017">
        <ele>969.15</ele>
        <time>2016-02-23T13:49:05Z</time>
      </trkpt>
      <trkpt lat="44.7324" lon="3.33021">
        <ele>969.15</ele>
        <time>2016-02-23T13:49:06Z</time>
      </trkpt>
      <trkpt lat="44.73242" lon="3.33026">
        <ele>969.15</ele>
        <time>2016-02-23T13:49:07Z</time>
      </trkpt>
      <trkpt lat="44.73255" lon="3.33041">
        <ele>968.67</ele>
        <time>2016-02-23T13:49:11Z</time>
      </trkpt>
      <trkpt lat="44.73269" lon="3.33057">
        <ele>969.63</ele>
        <time>2016-02-23T13:49:16Z</time>
      </trkpt>
      <trkpt lat="44.73271" lon="3.33062">
        <ele>969.63</ele>
        <time>2016-02-23T13:49:17Z</time>
      </trkpt>
      <trkpt lat="44.73273" lon="3.33067">
        <ele>969.15</ele>
        <time>2016-02-23T13:49:18Z</time>
      </trkpt>
      <trkpt lat="44.73279" lon="3.33086">
        <ele>969.63</ele>
        <time>2016-02-23T13:49:22Z</time>
      </trkpt>
      <trkpt lat="44.73282" lon="3.33091">
        <ele>969.15</ele>
        <time>2016-02-23T13:49:23Z</time>
      </trkpt>
      <trkpt lat="44.73284" lon="3.33097">
        <ele>968.18</ele>
        <time>2016-02-23T13:49:24Z</time>
      </trkpt>
      <trkpt lat="44.73285" lon="3.33102">
        <ele>968.18</ele>
        <time>2016-02-23T13:49:25Z</time>
      </trkpt>
      <trkpt lat="44.73287" lon="3.33108">
        <ele>968.18</ele>
        <time>2016-02-23T13:49:26Z</time>
      </trkpt>
      <trkpt lat="44.73292" lon="3.33119">
        <ele>967.7</ele>
        <time>2016-02-23T13:49:28Z</time>
      </trkpt>
      <trkpt lat="44.73294" lon="3.33124">
        <ele>967.7</ele>
        <time>2016-02-23T13:49:29Z</time>
      </trkpt>
      <trkpt lat="44.73324" lon="3.33198">
        <ele>965.78</ele>
        <time>2016-02-23T13:49:41Z</time>
      </trkpt>
      <trkpt lat="44.73326" lon="3.33204">
        <ele>965.78</ele>
        <time>2016-02-23T13:49:42Z</time>
      </trkpt>
      <trkpt lat="44.73329" lon="3.3321">
        <ele>965.78</ele>
        <time>2016-02-23T13:49:43Z</time>
      </trkpt>
      <trkpt lat="44.73332" lon="3.33214">
        <ele>965.3</ele>
        <time>2016-02-23T13:49:44Z</time>
      </trkpt>
      <trkpt lat="44.73336" lon="3.33219">
        <ele>965.3</ele>
        <time>2016-02-23T13:49:45Z</time>
      </trkpt>
      <trkpt lat="44.7334" lon="3.33223">
        <ele>965.3</ele>
        <time>2016-02-23T13:49:46Z</time>
      </trkpt>
      <trkpt lat="44.73369" lon="3.33249">
        <ele>964.82</ele>
        <time>2016-02-23T13:49:53Z</time>
      </trkpt>
      <trkpt lat="44.73374" lon="3.33252">
        <ele>965.3</ele>
        <time>2016-02-23T13:49:54Z</time>
      </trkpt>
      <trkpt lat="44.73393" lon="3.33256">
        <ele>965.3</ele>
        <time>2016-02-23T13:49:58Z</time>
      </trkpt>
      <trkpt lat="44.73397" lon="3.33259">
        <ele>965.3</ele>
        <time>2016-02-23T13:49:59Z</time>
      </trkpt>
      <trkpt lat="44.73401" lon="3.33262">
        <ele>965.3</ele>
        <time>2016-02-23T13:50:00Z</time>
      </trkpt>
      <trkpt lat="44.73429" lon="3.33289">
        <ele>966.26</ele>
        <time>2016-02-23T13:50:09Z</time>
      </trkpt>
      <trkpt lat="44.7343" lon="3.33292">
        <ele>966.26</ele>
        <time>2016-02-23T13:50:10Z</time>
      </trkpt>
      <trkpt lat="44.73432" lon="3.33296">
        <ele>966.26</ele>
        <time>2016-02-23T13:50:11Z</time>
      </trkpt>
      <trkpt lat="44.73433" lon="3.333">
        <ele>966.26</ele>
        <time>2016-02-23T13:50:12Z</time>
      </trkpt>
      <trkpt lat="44.73435" lon="3.33303">
        <ele>966.26</ele>
        <time>2016-02-23T13:50:13Z</time>
      </trkpt>
      <trkpt lat="44.73437" lon="3.33307">
        <ele>966.26</ele>
        <time>2016-02-23T13:50:14Z</time>
      </trkpt>
      <trkpt lat="44.73439" lon="3.33311">
        <ele>966.26</ele>
        <time>2016-02-23T13:50:15Z</time>
      </trkpt>
      <trkpt lat="44.73446" lon="3.33329">
        <ele>966.74</ele>
        <time>2016-02-23T13:50:20Z</time>
      </trkpt>
      <trkpt lat="44.73447" lon="3.33332">
        <ele>966.74</ele>
        <time>2016-02-23T13:50:21Z</time>
      </trkpt>
      <trkpt lat="44.73448" lon="3.33336">
        <ele>966.74</ele>
        <time>2016-02-23T13:50:22Z</time>
      </trkpt>
      <trkpt lat="44.7347" lon="3.33396">
        <ele>969.15</ele>
        <time>2016-02-23T13:50:39Z</time>
      </trkpt>
      <trkpt lat="44.73479" lon="3.33451">
        <ele>970.11</ele>
        <time>2016-02-23T13:50:51Z</time>
      </trkpt>
      <trkpt lat="44.7348" lon="3.33465">
        <ele>969.15</ele>
        <time>2016-02-23T13:50:53Z</time>
      </trkpt>
      <trkpt lat="44.7348" lon="3.33473">
        <ele>968.67</ele>
        <time>2016-02-23T13:50:54Z</time>
      </trkpt>
      <trkpt lat="44.73477" lon="3.33481">
        <ele>967.7</ele>
        <time>2016-02-23T13:50:55Z</time>
      </trkpt>
      <trkpt lat="44.73474" lon="3.33489">
        <ele>966.74</ele>
        <time>2016-02-23T13:50:56Z</time>
      </trkpt>
      <trkpt lat="44.73471" lon="3.33498">
        <ele>965.78</ele>
        <time>2016-02-23T13:50:57Z</time>
      </trkpt>
      <trkpt lat="44.73468" lon="3.33507">
        <ele>964.82</ele>
        <time>2016-02-23T13:50:58Z</time>
      </trkpt>
      <trkpt lat="44.73465" lon="3.33516">
        <ele>964.82</ele>
        <time>2016-02-23T13:50:59Z</time>
      </trkpt>
      <trkpt lat="44.73459" lon="3.33535">
        <ele>963.38</ele>
        <time>2016-02-23T13:51:01Z</time>
      </trkpt>
      <trkpt lat="44.73452" lon="3.33553">
        <ele>962.9</ele>
        <time>2016-02-23T13:51:03Z</time>
      </trkpt>
      <trkpt lat="44.73451" lon="3.33563">
        <ele>962.9</ele>
        <time>2016-02-23T13:51:04Z</time>
      </trkpt>
      <trkpt lat="44.73449" lon="3.33574">
        <ele>962.42</ele>
        <time>2016-02-23T13:51:05Z</time>
      </trkpt>
      <trkpt lat="44.73448" lon="3.33583">
        <ele>962.42</ele>
        <time>2016-02-23T13:51:06Z</time>
      </trkpt>
      <trkpt lat="44.73447" lon="3.33591">
        <ele>962.42</ele>
        <time>2016-02-23T13:51:07Z</time>
      </trkpt>
      <trkpt lat="44.73447" lon="3.336">
        <ele>961.94</ele>
        <time>2016-02-23T13:51:08Z</time>
      </trkpt>
      <trkpt lat="44.73447" lon="3.33649">
        <ele>962.42</ele>
        <time>2016-02-23T13:51:14Z</time>
      </trkpt>
      <trkpt lat="44.73446" lon="3.33656">
        <ele>962.42</ele>
        <time>2016-02-23T13:51:15Z</time>
      </trkpt>
      <trkpt lat="44.73445" lon="3.33663">
        <ele>962.42</ele>
        <time>2016-02-23T13:51:16Z</time>
      </trkpt>
      <trkpt lat="44.73446" lon="3.33669">
        <ele>962.9</ele>
        <time>2016-02-23T13:51:17Z</time>
      </trkpt>
      <trkpt lat="44.73446" lon="3.33675">
        <ele>962.9</ele>
        <time>2016-02-23T13:51:18Z</time>
      </trkpt>
      <trkpt lat="44.73447" lon="3.33681">
        <ele>962.9</ele>
        <time>2016-02-23T13:51:19Z</time>
      </trkpt>
      <trkpt lat="44.73448" lon="3.33686">
        <ele>963.38</ele>
        <time>2016-02-23T13:51:20Z</time>
      </trkpt>
      <trkpt lat="44.7345" lon="3.33691">
        <ele>963.86</ele>
        <time>2016-02-23T13:51:21Z</time>
      </trkpt>
      <trkpt lat="44.73452" lon="3.33695">
        <ele>963.86</ele>
        <time>2016-02-23T13:51:22Z</time>
      </trkpt>
      <trkpt lat="44.73453" lon="3.337">
        <ele>964.34</ele>
        <time>2016-02-23T13:51:23Z</time>
      </trkpt>
      <trkpt lat="44.73454" lon="3.33705">
        <ele>964.34</ele>
        <time>2016-02-23T13:51:24Z</time>
      </trkpt>
      <trkpt lat="44.73456" lon="3.3371">
        <ele>964.34</ele>
        <time>2016-02-23T13:51:25Z</time>
      </trkpt>
      <trkpt lat="44.73457" lon="3.33714">
        <ele>964.82</ele>
        <time>2016-02-23T13:51:26Z</time>
      </trkpt>
      <trkpt lat="44.73458" lon="3.33719">
        <ele>964.82</ele>
        <time>2016-02-23T13:51:27Z</time>
      </trkpt>
      <trkpt lat="44.73459" lon="3.33724">
        <ele>964.82</ele>
        <time>2016-02-23T13:51:28Z</time>
      </trkpt>
      <trkpt lat="44.7346" lon="3.33729">
        <ele>964.82</ele>
        <time>2016-02-23T13:51:29Z</time>
      </trkpt>
      <trkpt lat="44.7346" lon="3.33734">
        <ele>965.3</ele>
        <time>2016-02-23T13:51:30Z</time>
      </trkpt>
      <trkpt lat="44.73461" lon="3.33738">
        <ele>965.3</ele>
        <time>2016-02-23T13:51:31Z</time>
      </trkpt>
      <trkpt lat="44.73458" lon="3.33788">
        <ele>965.78</ele>
        <time>2016-02-23T13:51:43Z</time>
      </trkpt>
      <trkpt lat="44.73454" lon="3.33802">
        <ele>965.78</ele>
        <time>2016-02-23T13:51:46Z</time>
      </trkpt>
      <trkpt lat="44.73452" lon="3.33808">
        <ele>964.82</ele>
        <time>2016-02-23T13:51:47Z</time>
      </trkpt>
      <trkpt lat="44.7345" lon="3.33815">
        <ele>964.34</ele>
        <time>2016-02-23T13:51:48Z</time>
      </trkpt>
      <trkpt lat="44.73447" lon="3.33821">
        <ele>963.86</ele>
        <time>2016-02-23T13:51:49Z</time>
      </trkpt>
      <trkpt lat="44.73442" lon="3.33826">
        <ele>962.9</ele>
        <time>2016-02-23T13:51:50Z</time>
      </trkpt>
      <trkpt lat="44.73437" lon="3.33831">
        <ele>962.42</ele>
        <time>2016-02-23T13:51:51Z</time>
      </trkpt>
      <trkpt lat="44.73423" lon="3.33848">
        <ele>961.46</ele>
        <time>2016-02-23T13:51:54Z</time>
      </trkpt>
      <trkpt lat="44.7342" lon="3.33853">
        <ele>960.98</ele>
        <time>2016-02-23T13:51:55Z</time>
      </trkpt>
      <trkpt lat="44.73418" lon="3.33856">
        <ele>961.46</ele>
        <time>2016-02-23T13:51:56Z</time>
      </trkpt>
      <trkpt lat="44.73416" lon="3.33862">
        <ele>960.98</ele>
        <time>2016-02-23T13:51:58Z</time>
      </trkpt>
      <trkpt lat="44.73415" lon="3.33866">
        <ele>960.98</ele>
        <time>2016-02-23T13:51:59Z</time>
      </trkpt>
      <trkpt lat="44.73415" lon="3.3387">
        <ele>960.98</ele>
        <time>2016-02-23T13:52:00Z</time>
      </trkpt>
      <trkpt lat="44.73414" lon="3.33874">
        <ele>960.98</ele>
        <time>2016-02-23T13:52:01Z</time>
      </trkpt>
      <trkpt lat="44.73414" lon="3.33878">
        <ele>960.98</ele>
        <time>2016-02-23T13:52:02Z</time>
      </trkpt>
      <trkpt lat="44.73413" lon="3.33882">
        <ele>960.98</ele>
        <time>2016-02-23T13:52:03Z</time>
      </trkpt>
      <trkpt lat="44.73412" lon="3.33901">
        <ele>961.46</ele>
        <time>2016-02-23T13:52:12Z</time>
      </trkpt>
      <trkpt lat="44.73412" lon="3.33901">
        <ele>961.46</ele>
        <time>2016-02-23T13:52:27Z</time>
      </trkpt>
      <trkpt lat="44.73413" lon="3.33901">
        <ele>961.94</ele>
        <time>2016-02-23T13:52:47Z</time>
      </trkpt>
      <trkpt lat="44.73414" lon="3.33907">
        <ele>960.98</ele>
        <time>2016-02-23T13:52:50Z</time>
      </trkpt>
      <trkpt lat="44.73412" lon="3.33948">
        <ele>959.05</ele>
        <time>2016-02-23T13:53:03Z</time>
      </trkpt>
      <trkpt lat="44.73406" lon="3.33993">
        <ele>960.98</ele>
        <time>2016-02-23T13:53:14Z</time>
      </trkpt>
      <trkpt lat="44.73408" lon="3.33995">
        <ele>960.98</ele>
        <time>2016-02-23T13:53:15Z</time>
      </trkpt>
      <trkpt lat="44.73409" lon="3.33996">
        <ele>961.46</ele>
        <time>2016-02-23T13:53:16Z</time>
      </trkpt>
      <trkpt lat="44.7341" lon="3.33998">
        <ele>961.94</ele>
        <time>2016-02-23T13:53:17Z</time>
      </trkpt>
      <trkpt lat="44.73412" lon="3.33999">
        <ele>961.94</ele>
        <time>2016-02-23T13:53:18Z</time>
      </trkpt>
      <trkpt lat="44.73414" lon="3.34">
        <ele>962.9</ele>
        <time>2016-02-23T13:53:19Z</time>
      </trkpt>
      <trkpt lat="44.73415" lon="3.34001">
        <ele>963.38</ele>
        <time>2016-02-23T13:53:20Z</time>
      </trkpt>
      <trkpt lat="44.73417" lon="3.34001">
        <ele>963.38</ele>
        <time>2016-02-23T13:53:21Z</time>
      </trkpt>
      <trkpt lat="44.73419" lon="3.34002">
        <ele>963.86</ele>
        <time>2016-02-23T13:53:22Z</time>
      </trkpt>
      <trkpt lat="44.73442" lon="3.34009">
        <ele>965.3</ele>
        <time>2016-02-23T13:53:32Z</time>
      </trkpt>
      <trkpt lat="44.73471" lon="3.34024">
        <ele>966.74</ele>
        <time>2016-02-23T13:53:45Z</time>
      </trkpt>
      <trkpt lat="44.73477" lon="3.34027">
        <ele>967.22</ele>
        <time>2016-02-23T13:53:48Z</time>
      </trkpt>
      <trkpt lat="44.73479" lon="3.34027">
        <ele>967.22</ele>
        <time>2016-02-23T13:53:49Z</time>
      </trkpt>
      <trkpt lat="44.73482" lon="3.34027">
        <ele>967.22</ele>
        <time>2016-02-23T13:53:51Z</time>
      </trkpt>
      <trkpt lat="44.73483" lon="3.34028">
        <ele>967.22</ele>
        <time>2016-02-23T13:53:52Z</time>
      </trkpt>
      <trkpt lat="44.73484" lon="3.3403">
        <ele>967.7</ele>
        <time>2016-02-23T13:53:53Z</time>
      </trkpt>
      <trkpt lat="44.73485" lon="3.34033">
        <ele>967.7</ele>
        <time>2016-02-23T13:53:54Z</time>
      </trkpt>
      <trkpt lat="44.73487" lon="3.34034">
        <ele>967.7</ele>
        <time>2016-02-23T13:53:55Z</time>
      </trkpt>
      <trkpt lat="44.73489" lon="3.34036">
        <ele>967.7</ele>
        <time>2016-02-23T13:53:56Z</time>
      </trkpt>
      <trkpt lat="44.73516" lon="3.34054">
        <ele>969.63</ele>
        <time>2016-02-23T13:54:09Z</time>
      </trkpt>
      <trkpt lat="44.73518" lon="3.34053">
        <ele>969.63</ele>
        <time>2016-02-23T13:54:24Z</time>
      </trkpt>
      <trkpt lat="44.73518" lon="3.34053">
        <ele>970.11</ele>
        <time>2016-02-23T13:54:49Z</time>
      </trkpt>
      <trkpt lat="44.73518" lon="3.34053">
        <ele>970.59</ele>
        <time>2016-02-23T13:55:17Z</time>
      </trkpt>
      <trkpt lat="44.73518" lon="3.34054">
        <ele>970.59</ele>
        <time>2016-02-23T13:55:23Z</time>
      </trkpt>
      <trkpt lat="44.73518" lon="3.34057">
        <ele>970.59</ele>
        <time>2016-02-23T13:55:36Z</time>
      </trkpt>
      <trkpt lat="44.73532" lon="3.34064">
        <ele>972.03</ele>
        <time>2016-02-23T13:55:45Z</time>
      </trkpt>
      <trkpt lat="44.73533" lon="3.34064">
        <ele>972.03</ele>
        <time>2016-02-23T13:55:54Z</time>
      </trkpt>
      <trkpt lat="44.73543" lon="3.34073">
        <ele>973.47</ele>
        <time>2016-02-23T13:56:01Z</time>
      </trkpt>
      <trkpt lat="44.73529" lon="3.34063">
        <ele>971.07</ele>
        <time>2016-02-23T13:56:07Z</time>
      </trkpt>
      <trkpt lat="44.73531" lon="3.3406">
        <ele>972.03</ele>
        <time>2016-02-23T13:56:14Z</time>
      </trkpt>
      <trkpt lat="44.73531" lon="3.3406">
        <ele>972.03</ele>
        <time>2016-02-23T13:56:45Z</time>
      </trkpt>
      <trkpt lat="44.73531" lon="3.34062">
        <ele>972.51</ele>
        <time>2016-02-23T13:57:23Z</time>
      </trkpt>
      <trkpt lat="44.73531" lon="3.34062">
        <ele>972.51</ele>
        <time>2016-02-23T13:57:27Z</time>
      </trkpt>
      <trkpt lat="44.73541" lon="3.34075">
        <ele>973.95</ele>
        <time>2016-02-23T13:57:34Z</time>
      </trkpt>
      <trkpt lat="44.73554" lon="3.34086">
        <ele>975.88</ele>
        <time>2016-02-23T13:57:41Z</time>
      </trkpt>
      <trkpt lat="44.73562" lon="3.34091">
        <ele>976.84</ele>
        <time>2016-02-23T13:57:45Z</time>
      </trkpt>
      <trkpt lat="44.73577" lon="3.34104">
        <ele>979.72</ele>
        <time>2016-02-23T13:57:54Z</time>
      </trkpt>
      <trkpt lat="44.73585" lon="3.34108">
        <ele>981.64</ele>
        <time>2016-02-23T13:58:03Z</time>
      </trkpt>
      <trkpt lat="44.73588" lon="3.34108">
        <ele>980.68</ele>
        <time>2016-02-23T13:58:08Z</time>
      </trkpt>
      <trkpt lat="44.73595" lon="3.34109">
        <ele>982.6</ele>
        <time>2016-02-23T13:58:18Z</time>
      </trkpt>
      <trkpt lat="44.73595" lon="3.34109">
        <ele>982.6</ele>
        <time>2016-02-23T13:58:20Z</time>
      </trkpt>
      <trkpt lat="44.736" lon="3.34109">
        <ele>982.6</ele>
        <time>2016-02-23T13:58:35Z</time>
      </trkpt>
      <trkpt lat="44.73598" lon="3.34108">
        <ele>982.6</ele>
        <time>2016-02-23T13:59:09Z</time>
      </trkpt>
      <trkpt lat="44.73597" lon="3.34107">
        <ele>982.12</ele>
        <time>2016-02-23T13:59:25Z</time>
      </trkpt>
      <trkpt lat="44.73588" lon="3.3407">
        <ele>983.09</ele>
        <time>2016-02-23T13:59:39Z</time>
      </trkpt>
      <trkpt lat="44.73588" lon="3.34061">
        <ele>983.09</ele>
        <time>2016-02-23T13:59:43Z</time>
      </trkpt>
      <trkpt lat="44.7359" lon="3.34053">
        <ele>984.05</ele>
        <time>2016-02-23T13:59:47Z</time>
      </trkpt>
      <trkpt lat="44.73593" lon="3.34039">
        <ele>985.49</ele>
        <time>2016-02-23T13:59:59Z</time>
      </trkpt>
      <trkpt lat="44.73593" lon="3.34039">
        <ele>985.01</ele>
        <time>2016-02-23T14:00:02Z</time>
      </trkpt>
      <trkpt lat="44.73591" lon="3.34048">
        <ele>985.49</ele>
        <time>2016-02-23T14:00:08Z</time>
      </trkpt>
      <trkpt lat="44.73589" lon="3.34062">
        <ele>984.53</ele>
        <time>2016-02-23T14:00:12Z</time>
      </trkpt>
      <trkpt lat="44.73589" lon="3.34068">
        <ele>984.05</ele>
        <time>2016-02-23T14:00:13Z</time>
      </trkpt>
      <trkpt lat="44.7359" lon="3.34075">
        <ele>984.05</ele>
        <time>2016-02-23T14:00:14Z</time>
      </trkpt>
      <trkpt lat="44.73595" lon="3.34103">
        <ele>983.09</ele>
        <time>2016-02-23T14:00:18Z</time>
      </trkpt>
      <trkpt lat="44.73598" lon="3.34108">
        <ele>983.09</ele>
        <time>2016-02-23T14:00:19Z</time>
      </trkpt>
      <trkpt lat="44.73601" lon="3.34113">
        <ele>982.6</ele>
        <time>2016-02-23T14:00:20Z</time>
      </trkpt>
      <trkpt lat="44.73603" lon="3.34116">
        <ele>982.6</ele>
        <time>2016-02-23T14:00:21Z</time>
      </trkpt>
      <trkpt lat="44.73605" lon="3.3412">
        <ele>983.09</ele>
        <time>2016-02-23T14:00:22Z</time>
      </trkpt>
      <trkpt lat="44.73607" lon="3.34123">
        <ele>983.57</ele>
        <time>2016-02-23T14:00:23Z</time>
      </trkpt>
      <trkpt lat="44.73609" lon="3.34126">
        <ele>983.09</ele>
        <time>2016-02-23T14:00:24Z</time>
      </trkpt>
      <trkpt lat="44.73612" lon="3.3413">
        <ele>983.57</ele>
        <time>2016-02-23T14:00:25Z</time>
      </trkpt>
      <trkpt lat="44.73614" lon="3.34134">
        <ele>983.57</ele>
        <time>2016-02-23T14:00:26Z</time>
      </trkpt>
      <trkpt lat="44.73616" lon="3.34138">
        <ele>983.57</ele>
        <time>2016-02-23T14:00:27Z</time>
      </trkpt>
      <trkpt lat="44.73618" lon="3.34142">
        <ele>983.57</ele>
        <time>2016-02-23T14:00:28Z</time>
      </trkpt>
      <trkpt lat="44.73632" lon="3.34184">
        <ele>984.05</ele>
        <time>2016-02-23T14:00:39Z</time>
      </trkpt>
      <trkpt lat="44.73656" lon="3.34236">
        <ele>985.01</ele>
        <time>2016-02-23T14:00:54Z</time>
      </trkpt>
      <trkpt lat="44.73672" lon="3.3426">
        <ele>985.49</ele>
        <time>2016-02-23T14:01:04Z</time>
      </trkpt>
      <trkpt lat="44.73695" lon="3.34295">
        <ele>985.97</ele>
        <time>2016-02-23T14:01:16Z</time>
      </trkpt>
      <trkpt lat="44.73706" lon="3.34321">
        <ele>986.45</ele>
        <time>2016-02-23T14:01:30Z</time>
      </trkpt>
      <trkpt lat="44.73723" lon="3.34348">
        <ele>984.53</ele>
        <time>2016-02-23T14:01:41Z</time>
      </trkpt>
      <trkpt lat="44.73733" lon="3.3437">
        <ele>983.09</ele>
        <time>2016-02-23T14:01:45Z</time>
      </trkpt>
      <trkpt lat="44.73742" lon="3.34396">
        <ele>980.68</ele>
        <time>2016-02-23T14:01:48Z</time>
      </trkpt>
      <trkpt lat="44.73746" lon="3.34402">
        <ele>980.2</ele>
        <time>2016-02-23T14:01:49Z</time>
      </trkpt>
      <trkpt lat="44.73751" lon="3.34409">
        <ele>979.72</ele>
        <time>2016-02-23T14:01:50Z</time>
      </trkpt>
      <trkpt lat="44.73775" lon="3.34435">
        <ele>975.88</ele>
        <time>2016-02-23T14:01:54Z</time>
      </trkpt>
      <trkpt lat="44.73788" lon="3.34448">
        <ele>973.95</ele>
        <time>2016-02-23T14:01:56Z</time>
      </trkpt>
      <trkpt lat="44.73809" lon="3.34461">
        <ele>972.99</ele>
        <time>2016-02-23T14:01:59Z</time>
      </trkpt>
      <trkpt lat="44.73823" lon="3.34468">
        <ele>972.51</ele>
        <time>2016-02-23T14:02:01Z</time>
      </trkpt>
      <trkpt lat="44.73836" lon="3.34478">
        <ele>971.55</ele>
        <time>2016-02-23T14:02:03Z</time>
      </trkpt>
      <trkpt lat="44.73849" lon="3.3449">
        <ele>969.63</ele>
        <time>2016-02-23T14:02:05Z</time>
      </trkpt>
      <trkpt lat="44.73856" lon="3.34496">
        <ele>968.18</ele>
        <time>2016-02-23T14:02:06Z</time>
      </trkpt>
      <trkpt lat="44.73862" lon="3.34502">
        <ele>967.7</ele>
        <time>2016-02-23T14:02:07Z</time>
      </trkpt>
      <trkpt lat="44.73867" lon="3.34508">
        <ele>967.22</ele>
        <time>2016-02-23T14:02:08Z</time>
      </trkpt>
      <trkpt lat="44.73873" lon="3.34512">
        <ele>966.74</ele>
        <time>2016-02-23T14:02:09Z</time>
      </trkpt>
      <trkpt lat="44.73879" lon="3.34517">
        <ele>965.78</ele>
        <time>2016-02-23T14:02:10Z</time>
      </trkpt>
      <trkpt lat="44.73883" lon="3.34521">
        <ele>964.82</ele>
        <time>2016-02-23T14:02:11Z</time>
      </trkpt>
      <trkpt lat="44.73887" lon="3.34525">
        <ele>963.86</ele>
        <time>2016-02-23T14:02:12Z</time>
      </trkpt>
      <trkpt lat="44.73892" lon="3.34528">
        <ele>963.38</ele>
        <time>2016-02-23T14:02:13Z</time>
      </trkpt>
      <trkpt lat="44.73895" lon="3.34531">
        <ele>962.9</ele>
        <time>2016-02-23T14:02:14Z</time>
      </trkpt>
      <trkpt lat="44.73899" lon="3.34533">
        <ele>962.42</ele>
        <time>2016-02-23T14:02:15Z</time>
      </trkpt>
      <trkpt lat="44.73903" lon="3.34538">
        <ele>961.46</ele>
        <time>2016-02-23T14:02:16Z</time>
      </trkpt>
      <trkpt lat="44.73918" lon="3.34551">
        <ele>957.61</ele>
        <time>2016-02-23T14:02:19Z</time>
      </trkpt>
      <trkpt lat="44.73937" lon="3.34569">
        <ele>954.25</ele>
        <time>2016-02-23T14:02:23Z</time>
      </trkpt>
      <trkpt lat="44.73942" lon="3.34573">
        <ele>952.8</ele>
        <time>2016-02-23T14:02:24Z</time>
      </trkpt>
      <trkpt lat="44.73947" lon="3.34574">
        <ele>951.84</ele>
        <time>2016-02-23T14:02:25Z</time>
      </trkpt>
      <trkpt lat="44.73952" lon="3.34572">
        <ele>950.88</ele>
        <time>2016-02-23T14:02:26Z</time>
      </trkpt>
      <trkpt lat="44.73957" lon="3.34569">
        <ele>950.4</ele>
        <time>2016-02-23T14:02:27Z</time>
      </trkpt>
      <trkpt lat="44.73962" lon="3.34565">
        <ele>950.4</ele>
        <time>2016-02-23T14:02:28Z</time>
      </trkpt>
      <trkpt lat="44.73973" lon="3.34559">
        <ele>949.44</ele>
        <time>2016-02-23T14:02:30Z</time>
      </trkpt>
      <trkpt lat="44.73979" lon="3.34556">
        <ele>948.96</ele>
        <time>2016-02-23T14:02:31Z</time>
      </trkpt>
      <trkpt lat="44.73985" lon="3.34554">
        <ele>948.48</ele>
        <time>2016-02-23T14:02:32Z</time>
      </trkpt>
      <trkpt lat="44.73991" lon="3.34551">
        <ele>948</ele>
        <time>2016-02-23T14:02:33Z</time>
      </trkpt>
      <trkpt lat="44.73997" lon="3.34549">
        <ele>947.52</ele>
        <time>2016-02-23T14:02:34Z</time>
      </trkpt>
      <trkpt lat="44.74003" lon="3.34548">
        <ele>947.04</ele>
        <time>2016-02-23T14:02:35Z</time>
      </trkpt>
      <trkpt lat="44.74009" lon="3.34547">
        <ele>947.04</ele>
        <time>2016-02-23T14:02:36Z</time>
      </trkpt>
      <trkpt lat="44.7402" lon="3.34546">
        <ele>946.07</ele>
        <time>2016-02-23T14:02:38Z</time>
      </trkpt>
      <trkpt lat="44.74026" lon="3.34546">
        <ele>944.63</ele>
        <time>2016-02-23T14:02:39Z</time>
      </trkpt>
      <trkpt lat="44.74031" lon="3.34545">
        <ele>943.67</ele>
        <time>2016-02-23T14:02:40Z</time>
      </trkpt>
      <trkpt lat="44.74037" lon="3.34546">
        <ele>943.67</ele>
        <time>2016-02-23T14:02:41Z</time>
      </trkpt>
      <trkpt lat="44.74041" lon="3.34548">
        <ele>943.19</ele>
        <time>2016-02-23T14:02:42Z</time>
      </trkpt>
      <trkpt lat="44.74046" lon="3.34549">
        <ele>942.71</ele>
        <time>2016-02-23T14:02:43Z</time>
      </trkpt>
      <trkpt lat="44.7405" lon="3.3455">
        <ele>942.23</ele>
        <time>2016-02-23T14:02:44Z</time>
      </trkpt>
      <trkpt lat="44.74055" lon="3.34551">
        <ele>941.27</ele>
        <time>2016-02-23T14:02:45Z</time>
      </trkpt>
      <trkpt lat="44.7406" lon="3.34553">
        <ele>940.31</ele>
        <time>2016-02-23T14:02:46Z</time>
      </trkpt>
      <trkpt lat="44.74064" lon="3.34556">
        <ele>939.35</ele>
        <time>2016-02-23T14:02:47Z</time>
      </trkpt>
      <trkpt lat="44.74068" lon="3.34559">
        <ele>938.38</ele>
        <time>2016-02-23T14:02:48Z</time>
      </trkpt>
      <trkpt lat="44.74072" lon="3.34562">
        <ele>937.9</ele>
        <time>2016-02-23T14:02:49Z</time>
      </trkpt>
      <trkpt lat="44.74076" lon="3.34566">
        <ele>937.42</ele>
        <time>2016-02-23T14:02:50Z</time>
      </trkpt>
      <trkpt lat="44.74079" lon="3.34569">
        <ele>936.94</ele>
        <time>2016-02-23T14:02:51Z</time>
      </trkpt>
      <trkpt lat="44.74082" lon="3.34572">
        <ele>936.46</ele>
        <time>2016-02-23T14:02:52Z</time>
      </trkpt>
      <trkpt lat="44.74084" lon="3.34576">
        <ele>935.98</ele>
        <time>2016-02-23T14:02:53Z</time>
      </trkpt>
      <trkpt lat="44.74086" lon="3.34581">
        <ele>935.5</ele>
        <time>2016-02-23T14:02:54Z</time>
      </trkpt>
      <trkpt lat="44.74088" lon="3.34586">
        <ele>935.02</ele>
        <time>2016-02-23T14:02:55Z</time>
      </trkpt>
      <trkpt lat="44.74089" lon="3.34616">
        <ele>932.14</ele>
        <time>2016-02-23T14:03:00Z</time>
      </trkpt>
      <trkpt lat="44.74087" lon="3.34633">
        <ele>929.25</ele>
        <time>2016-02-23T14:03:02Z</time>
      </trkpt>
      <trkpt lat="44.74084" lon="3.34641">
        <ele>928.29</ele>
        <time>2016-02-23T14:03:03Z</time>
      </trkpt>
      <trkpt lat="44.74081" lon="3.34649">
        <ele>928.29</ele>
        <time>2016-02-23T14:03:04Z</time>
      </trkpt>
      <trkpt lat="44.74069" lon="3.34686">
        <ele>925.41</ele>
        <time>2016-02-23T14:03:08Z</time>
      </trkpt>
      <trkpt lat="44.74065" lon="3.34695">
        <ele>924.93</ele>
        <time>2016-02-23T14:03:09Z</time>
      </trkpt>
      <trkpt lat="44.74054" lon="3.34723">
        <ele>922.52</ele>
        <time>2016-02-23T14:03:16Z</time>
      </trkpt>
      <trkpt lat="44.74059" lon="3.3475">
        <ele>920.12</ele>
        <time>2016-02-23T14:03:25Z</time>
      </trkpt>
      <trkpt lat="44.74061" lon="3.34765">
        <ele>920.12</ele>
        <time>2016-02-23T14:03:30Z</time>
      </trkpt>
      <trkpt lat="44.7406" lon="3.34769">
        <ele>920.6</ele>
        <time>2016-02-23T14:03:32Z</time>
      </trkpt>
      <trkpt lat="44.74058" lon="3.34771">
        <ele>920.6</ele>
        <time>2016-02-23T14:03:33Z</time>
      </trkpt>
      <trkpt lat="44.74044" lon="3.34778">
        <ele>919.64</ele>
        <time>2016-02-23T14:03:39Z</time>
      </trkpt>
      <trkpt lat="44.74043" lon="3.3478">
        <ele>919.64</ele>
        <time>2016-02-23T14:03:40Z</time>
      </trkpt>
      <trkpt lat="44.74042" lon="3.34782">
        <ele>919.16</ele>
        <time>2016-02-23T14:03:41Z</time>
      </trkpt>
      <trkpt lat="44.74042" lon="3.34784">
        <ele>919.16</ele>
        <time>2016-02-23T14:03:42Z</time>
      </trkpt>
      <trkpt lat="44.7404" lon="3.34786">
        <ele>919.16</ele>
        <time>2016-02-23T14:03:43Z</time>
      </trkpt>
      <trkpt lat="44.74039" lon="3.34787">
        <ele>918.68</ele>
        <time>2016-02-23T14:03:44Z</time>
      </trkpt>
      <trkpt lat="44.74037" lon="3.34787">
        <ele>918.68</ele>
        <time>2016-02-23T14:03:45Z</time>
      </trkpt>
      <trkpt lat="44.74035" lon="3.34787">
        <ele>918.68</ele>
        <time>2016-02-23T14:03:46Z</time>
      </trkpt>
      <trkpt lat="44.74034" lon="3.34791">
        <ele>918.68</ele>
        <time>2016-02-23T14:03:57Z</time>
      </trkpt>
      <trkpt lat="44.74034" lon="3.34791">
        <ele>918.68</ele>
        <time>2016-02-23T14:04:29Z</time>
      </trkpt>
      <trkpt lat="44.74034" lon="3.34791">
        <ele>918.68</ele>
        <time>2016-02-23T14:04:57Z</time>
      </trkpt>
      <trkpt lat="44.74034" lon="3.34791">
        <ele>918.68</ele>
        <time>2016-02-23T14:04:58Z</time>
      </trkpt>
      <trkpt lat="44.74036" lon="3.3479">
        <ele>918.2</ele>
        <time>2016-02-23T14:04:59Z</time>
      </trkpt>
      <trkpt lat="44.74037" lon="3.34789">
        <ele>918.2</ele>
        <time>2016-02-23T14:05:00Z</time>
      </trkpt>
      <trkpt lat="44.74039" lon="3.34787">
        <ele>918.2</ele>
        <time>2016-02-23T14:05:01Z</time>
      </trkpt>
      <trkpt lat="44.74041" lon="3.34784">
        <ele>918.2</ele>
        <time>2016-02-23T14:05:02Z</time>
      </trkpt>
      <trkpt lat="44.74043" lon="3.34782">
        <ele>919.16</ele>
        <time>2016-02-23T14:05:03Z</time>
      </trkpt>
      <trkpt lat="44.74046" lon="3.34777">
        <ele>918.2</ele>
        <time>2016-02-23T14:05:05Z</time>
      </trkpt>
      <trkpt lat="44.74048" lon="3.34777">
        <ele>919.16</ele>
        <time>2016-02-23T14:05:06Z</time>
      </trkpt>
      <trkpt lat="44.74048" lon="3.34779">
        <ele>920.12</ele>
        <time>2016-02-23T14:05:07Z</time>
      </trkpt>
      <trkpt lat="44.74048" lon="3.34781">
        <ele>920.6</ele>
        <time>2016-02-23T14:05:08Z</time>
      </trkpt>
      <trkpt lat="44.74047" lon="3.34785">
        <ele>921.08</ele>
        <time>2016-02-23T14:05:09Z</time>
      </trkpt>
      <trkpt lat="44.74047" lon="3.34788">
        <ele>921.56</ele>
        <time>2016-02-23T14:05:10Z</time>
      </trkpt>
      <trkpt lat="44.74046" lon="3.3479">
        <ele>921.56</ele>
        <time>2016-02-23T14:05:11Z</time>
      </trkpt>
      <trkpt lat="44.74044" lon="3.34791">
        <ele>921.08</ele>
        <time>2016-02-23T14:05:12Z</time>
      </trkpt>
      <trkpt lat="44.74043" lon="3.34789">
        <ele>921.08</ele>
        <time>2016-02-23T14:05:13Z</time>
      </trkpt>
      <trkpt lat="44.74044" lon="3.34787">
        <ele>920.6</ele>
        <time>2016-02-23T14:05:14Z</time>
      </trkpt>
      <trkpt lat="44.74046" lon="3.34785">
        <ele>920.12</ele>
        <time>2016-02-23T14:05:15Z</time>
      </trkpt>
      <trkpt lat="44.74049" lon="3.34783">
        <ele>919.64</ele>
        <time>2016-02-23T14:05:16Z</time>
      </trkpt>
      <trkpt lat="44.74087" lon="3.34745">
        <ele>921.08</ele>
        <time>2016-02-23T14:05:32Z</time>
      </trkpt>
      <trkpt lat="44.74088" lon="3.34741">
        <ele>921.08</ele>
        <time>2016-02-23T14:05:34Z</time>
      </trkpt>
      <trkpt lat="44.74089" lon="3.34734">
        <ele>921.56</ele>
        <time>2016-02-23T14:05:39Z</time>
      </trkpt>
      <trkpt lat="44.74087" lon="3.34722">
        <ele>922.04</ele>
        <time>2016-02-23T14:05:50Z</time>
      </trkpt>
      <trkpt lat="44.74087" lon="3.34722">
        <ele>922.04</ele>
        <time>2016-02-23T14:06:20Z</time>
      </trkpt>
      <trkpt lat="44.74087" lon="3.34722">
        <ele>922.52</ele>
        <time>2016-02-23T14:06:51Z</time>
      </trkpt>
      <trkpt lat="44.74088" lon="3.34722">
        <ele>922.52</ele>
        <time>2016-02-23T14:07:02Z</time>
      </trkpt>
      <trkpt lat="44.74089" lon="3.34725">
        <ele>922.04</ele>
        <time>2016-02-23T14:07:04Z</time>
      </trkpt>
      <trkpt lat="44.74089" lon="3.34728">
        <ele>922.04</ele>
        <time>2016-02-23T14:07:05Z</time>
      </trkpt>
      <trkpt lat="44.74091" lon="3.3473">
        <ele>921.56</ele>
        <time>2016-02-23T14:07:06Z</time>
      </trkpt>
      <trkpt lat="44.74093" lon="3.34731">
        <ele>921.56</ele>
        <time>2016-02-23T14:07:07Z</time>
      </trkpt>
      <trkpt lat="44.74095" lon="3.34731">
        <ele>921.56</ele>
        <time>2016-02-23T14:07:08Z</time>
      </trkpt>
      <trkpt lat="44.74097" lon="3.3473">
        <ele>921.08</ele>
        <time>2016-02-23T14:07:09Z</time>
      </trkpt>
      <trkpt lat="44.74099" lon="3.34729">
        <ele>921.08</ele>
        <time>2016-02-23T14:07:10Z</time>
      </trkpt>
      <trkpt lat="44.741" lon="3.34728">
        <ele>921.08</ele>
        <time>2016-02-23T14:07:11Z</time>
      </trkpt>
      <trkpt lat="44.74102" lon="3.34729">
        <ele>921.08</ele>
        <time>2016-02-23T14:07:27Z</time>
      </trkpt>
      <trkpt lat="44.74103" lon="3.34727">
        <ele>921.08</ele>
        <time>2016-02-23T14:07:28Z</time>
      </trkpt>
      <trkpt lat="44.74104" lon="3.34726">
        <ele>920.6</ele>
        <time>2016-02-23T14:07:29Z</time>
      </trkpt>
      <trkpt lat="44.74127" lon="3.34689">
        <ele>919.16</ele>
        <time>2016-02-23T14:07:42Z</time>
      </trkpt>
      <trkpt lat="44.7415" lon="3.34642">
        <ele>919.16</ele>
        <time>2016-02-23T14:07:55Z</time>
      </trkpt>
      <trkpt lat="44.74153" lon="3.34611">
        <ele>920.12</ele>
        <time>2016-02-23T14:08:05Z</time>
      </trkpt>
      <trkpt lat="44.74153" lon="3.34609">
        <ele>920.12</ele>
        <time>2016-02-23T14:08:06Z</time>
      </trkpt>
      <trkpt lat="44.74154" lon="3.34607">
        <ele>920.12</ele>
        <time>2016-02-23T14:08:07Z</time>
      </trkpt>
      <trkpt lat="44.74154" lon="3.34605">
        <ele>920.12</ele>
        <time>2016-02-23T14:08:08Z</time>
      </trkpt>
      <trkpt lat="44.74155" lon="3.34604">
        <ele>920.12</ele>
        <time>2016-02-23T14:08:09Z</time>
      </trkpt>
      <trkpt lat="44.74156" lon="3.34603">
        <ele>920.6</ele>
        <time>2016-02-23T14:08:10Z</time>
      </trkpt>
      <trkpt lat="44.74158" lon="3.34602">
        <ele>920.6</ele>
        <time>2016-02-23T14:08:11Z</time>
      </trkpt>
      <trkpt lat="44.74159" lon="3.34602">
        <ele>921.08</ele>
        <time>2016-02-23T14:08:12Z</time>
      </trkpt>
      <trkpt lat="44.74166" lon="3.34602">
        <ele>920.6</ele>
        <time>2016-02-23T14:08:24Z</time>
      </trkpt>
      <trkpt lat="44.74168" lon="3.34602">
        <ele>921.08</ele>
        <time>2016-02-23T14:08:25Z</time>
      </trkpt>
      <trkpt lat="44.7417" lon="3.34601">
        <ele>920.12</ele>
        <time>2016-02-23T14:08:26Z</time>
      </trkpt>
      <trkpt lat="44.74171" lon="3.34599">
        <ele>919.64</ele>
        <time>2016-02-23T14:08:27Z</time>
      </trkpt>
      <trkpt lat="44.74173" lon="3.34597">
        <ele>919.64</ele>
        <time>2016-02-23T14:08:28Z</time>
      </trkpt>
      <trkpt lat="44.74174" lon="3.34594">
        <ele>919.64</ele>
        <time>2016-02-23T14:08:29Z</time>
      </trkpt>
      <trkpt lat="44.74175" lon="3.34591">
        <ele>920.12</ele>
        <time>2016-02-23T14:08:30Z</time>
      </trkpt>
      <trkpt lat="44.74177" lon="3.34588">
        <ele>920.12</ele>
        <time>2016-02-23T14:08:31Z</time>
      </trkpt>
      <trkpt lat="44.74192" lon="3.34544">
        <ele>919.16</ele>
        <time>2016-02-23T14:08:42Z</time>
      </trkpt>
      <trkpt lat="44.74209" lon="3.34469">
        <ele>921.56</ele>
        <time>2016-02-23T14:08:58Z</time>
      </trkpt>
      <trkpt lat="44.74226" lon="3.34387">
        <ele>920.12</ele>
        <time>2016-02-23T14:09:15Z</time>
      </trkpt>
      <trkpt lat="44.74259" lon="3.34303">
        <ele>920.6</ele>
        <time>2016-02-23T14:09:33Z</time>
      </trkpt>
      <trkpt lat="44.74283" lon="3.3424">
        <ele>920.12</ele>
        <time>2016-02-23T14:09:48Z</time>
      </trkpt>
      <trkpt lat="44.74288" lon="3.34192">
        <ele>923.48</ele>
        <time>2016-02-23T14:10:02Z</time>
      </trkpt>
      <trkpt lat="44.74291" lon="3.34144">
        <ele>925.89</ele>
        <time>2016-02-23T14:10:18Z</time>
      </trkpt>
      <trkpt lat="44.74292" lon="3.34124">
        <ele>927.81</ele>
        <time>2016-02-23T14:10:25Z</time>
      </trkpt>
      <trkpt lat="44.74291" lon="3.34097">
        <ele>930.69</ele>
        <time>2016-02-23T14:10:36Z</time>
      </trkpt>
      <trkpt lat="44.74287" lon="3.34069">
        <ele>932.62</ele>
        <time>2016-02-23T14:10:48Z</time>
      </trkpt>
      <trkpt lat="44.74286" lon="3.34067">
        <ele>933.1</ele>
        <time>2016-02-23T14:10:49Z</time>
      </trkpt>
      <trkpt lat="44.74286" lon="3.34065">
        <ele>933.1</ele>
        <time>2016-02-23T14:10:50Z</time>
      </trkpt>
      <trkpt lat="44.74286" lon="3.34063">
        <ele>933.58</ele>
        <time>2016-02-23T14:10:51Z</time>
      </trkpt>
      <trkpt lat="44.74286" lon="3.3406">
        <ele>934.06</ele>
        <time>2016-02-23T14:10:52Z</time>
      </trkpt>
      <trkpt lat="44.74286" lon="3.34057">
        <ele>934.06</ele>
        <time>2016-02-23T14:10:54Z</time>
      </trkpt>
      <trkpt lat="44.74286" lon="3.34055">
        <ele>934.54</ele>
        <time>2016-02-23T14:10:55Z</time>
      </trkpt>
      <trkpt lat="44.74286" lon="3.34053">
        <ele>934.54</ele>
        <time>2016-02-23T14:10:56Z</time>
      </trkpt>
      <trkpt lat="44.74286" lon="3.34051">
        <ele>935.02</ele>
        <time>2016-02-23T14:10:57Z</time>
      </trkpt>
      <trkpt lat="44.74286" lon="3.34049">
        <ele>935.5</ele>
        <time>2016-02-23T14:10:58Z</time>
      </trkpt>
      <trkpt lat="44.74285" lon="3.34047">
        <ele>935.5</ele>
        <time>2016-02-23T14:10:59Z</time>
      </trkpt>
      <trkpt lat="44.74285" lon="3.34045">
        <ele>935.98</ele>
        <time>2016-02-23T14:11:00Z</time>
      </trkpt>
      <trkpt lat="44.74284" lon="3.34043">
        <ele>936.46</ele>
        <time>2016-02-23T14:11:01Z</time>
      </trkpt>
      <trkpt lat="44.74284" lon="3.34041">
        <ele>936.46</ele>
        <time>2016-02-23T14:11:02Z</time>
      </trkpt>
      <trkpt lat="44.74284" lon="3.34039">
        <ele>936.46</ele>
        <time>2016-02-23T14:11:03Z</time>
      </trkpt>
      <trkpt lat="44.74284" lon="3.34037">
        <ele>936.94</ele>
        <time>2016-02-23T14:11:04Z</time>
      </trkpt>
      <trkpt lat="44.74284" lon="3.34036">
        <ele>936.94</ele>
        <time>2016-02-23T14:11:05Z</time>
      </trkpt>
      <trkpt lat="44.74284" lon="3.34034">
        <ele>937.42</ele>
        <time>2016-02-23T14:11:06Z</time>
      </trkpt>
      <trkpt lat="44.74284" lon="3.34032">
        <ele>936.94</ele>
        <time>2016-02-23T14:11:07Z</time>
      </trkpt>
      <trkpt lat="44.74284" lon="3.34012">
        <ele>939.35</ele>
        <time>2016-02-23T14:11:17Z</time>
      </trkpt>
      <trkpt lat="44.74284" lon="3.33994">
        <ele>941.75</ele>
        <time>2016-02-23T14:11:27Z</time>
      </trkpt>
      <trkpt lat="44.74285" lon="3.33992">
        <ele>941.27</ele>
        <time>2016-02-23T14:11:28Z</time>
      </trkpt>
      <trkpt lat="44.74285" lon="3.3399">
        <ele>941.75</ele>
        <time>2016-02-23T14:11:29Z</time>
      </trkpt>
      <trkpt lat="44.74286" lon="3.33989">
        <ele>941.75</ele>
        <time>2016-02-23T14:11:30Z</time>
      </trkpt>
      <trkpt lat="44.74286" lon="3.33986">
        <ele>942.71</ele>
        <time>2016-02-23T14:11:31Z</time>
      </trkpt>
      <trkpt lat="44.74286" lon="3.33984">
        <ele>942.71</ele>
        <time>2016-02-23T14:11:32Z</time>
      </trkpt>
      <trkpt lat="44.74286" lon="3.33982">
        <ele>942.71</ele>
        <time>2016-02-23T14:11:33Z</time>
      </trkpt>
      <trkpt lat="44.74286" lon="3.3398">
        <ele>942.71</ele>
        <time>2016-02-23T14:11:34Z</time>
      </trkpt>
      <trkpt lat="44.74286" lon="3.33978">
        <ele>942.71</ele>
        <time>2016-02-23T14:11:35Z</time>
      </trkpt>
      <trkpt lat="44.74287" lon="3.33961">
        <ele>944.63</ele>
        <time>2016-02-23T14:11:44Z</time>
      </trkpt>
      <trkpt lat="44.74287" lon="3.33959">
        <ele>945.11</ele>
        <time>2016-02-23T14:11:45Z</time>
      </trkpt>
      <trkpt lat="44.74287" lon="3.33957">
        <ele>945.11</ele>
        <time>2016-02-23T14:11:46Z</time>
      </trkpt>
      <trkpt lat="44.74287" lon="3.33954">
        <ele>945.11</ele>
        <time>2016-02-23T14:11:47Z</time>
      </trkpt>
      <trkpt lat="44.74287" lon="3.33952">
        <ele>946.07</ele>
        <time>2016-02-23T14:11:48Z</time>
      </trkpt>
      <trkpt lat="44.74287" lon="3.3395">
        <ele>946.56</ele>
        <time>2016-02-23T14:11:49Z</time>
      </trkpt>
      <trkpt lat="44.74287" lon="3.33949">
        <ele>947.52</ele>
        <time>2016-02-23T14:11:50Z</time>
      </trkpt>
      <trkpt lat="44.74287" lon="3.33947">
        <ele>947.04</ele>
        <time>2016-02-23T14:11:51Z</time>
      </trkpt>
      <trkpt lat="44.74287" lon="3.33944">
        <ele>947.04</ele>
        <time>2016-02-23T14:11:53Z</time>
      </trkpt>
      <trkpt lat="44.74286" lon="3.33942">
        <ele>947.04</ele>
        <time>2016-02-23T14:11:54Z</time>
      </trkpt>
      <trkpt lat="44.74286" lon="3.33939">
        <ele>948</ele>
        <time>2016-02-23T14:11:55Z</time>
      </trkpt>
      <trkpt lat="44.74286" lon="3.33937">
        <ele>947.52</ele>
        <time>2016-02-23T14:11:56Z</time>
      </trkpt>
      <trkpt lat="44.74286" lon="3.33935">
        <ele>948</ele>
        <time>2016-02-23T14:11:57Z</time>
      </trkpt>
      <trkpt lat="44.74286" lon="3.33933">
        <ele>948.48</ele>
        <time>2016-02-23T14:11:58Z</time>
      </trkpt>
      <trkpt lat="44.74285" lon="3.33932">
        <ele>948.48</ele>
        <time>2016-02-23T14:11:59Z</time>
      </trkpt>
      <trkpt lat="44.74285" lon="3.33929">
        <ele>948.96</ele>
        <time>2016-02-23T14:12:00Z</time>
      </trkpt>
      <trkpt lat="44.74285" lon="3.33928">
        <ele>949.44</ele>
        <time>2016-02-23T14:12:01Z</time>
      </trkpt>
      <trkpt lat="44.74284" lon="3.33919">
        <ele>949.92</ele>
        <time>2016-02-23T14:12:05Z</time>
      </trkpt>
      <trkpt lat="44.74283" lon="3.33917">
        <ele>949.44</ele>
        <time>2016-02-23T14:12:06Z</time>
      </trkpt>
      <trkpt lat="44.74274" lon="3.3388">
        <ele>952.32</ele>
        <time>2016-02-23T14:12:22Z</time>
      </trkpt>
      <trkpt lat="44.74257" lon="3.33835">
        <ele>953.77</ele>
        <time>2016-02-23T14:12:38Z</time>
      </trkpt>
      <trkpt lat="44.74242" lon="3.33794">
        <ele>955.21</ele>
        <time>2016-02-23T14:12:51Z</time>
      </trkpt>
      <trkpt lat="44.74226" lon="3.33732">
        <ele>955.69</ele>
        <time>2016-02-23T14:13:08Z</time>
      </trkpt>
      <trkpt lat="44.74219" lon="3.33702">
        <ele>954.25</ele>
        <time>2016-02-23T14:13:14Z</time>
      </trkpt>
      <trkpt lat="44.74213" lon="3.33683">
        <ele>952.8</ele>
        <time>2016-02-23T14:13:17Z</time>
      </trkpt>
      <trkpt lat="44.74209" lon="3.33677">
        <ele>952.32</ele>
        <time>2016-02-23T14:13:18Z</time>
      </trkpt>
      <trkpt lat="44.74205" lon="3.33672">
        <ele>951.84</ele>
        <time>2016-02-23T14:13:19Z</time>
      </trkpt>
      <trkpt lat="44.74201" lon="3.33668">
        <ele>951.36</ele>
        <time>2016-02-23T14:13:20Z</time>
      </trkpt>
      <trkpt lat="44.74196" lon="3.33664">
        <ele>951.84</ele>
        <time>2016-02-23T14:13:21Z</time>
      </trkpt>
      <trkpt lat="44.74191" lon="3.3366">
        <ele>951.84</ele>
        <time>2016-02-23T14:13:22Z</time>
      </trkpt>
      <trkpt lat="44.74187" lon="3.33655">
        <ele>951.36</ele>
        <time>2016-02-23T14:13:23Z</time>
      </trkpt>
      <trkpt lat="44.74182" lon="3.33649">
        <ele>950.4</ele>
        <time>2016-02-23T14:13:24Z</time>
      </trkpt>
      <trkpt lat="44.74179" lon="3.33643">
        <ele>948.96</ele>
        <time>2016-02-23T14:13:25Z</time>
      </trkpt>
      <trkpt lat="44.74176" lon="3.33635">
        <ele>949.92</ele>
        <time>2016-02-23T14:13:26Z</time>
      </trkpt>
      <trkpt lat="44.74174" lon="3.33626">
        <ele>950.4</ele>
        <time>2016-02-23T14:13:27Z</time>
      </trkpt>
      <trkpt lat="44.74172" lon="3.33617">
        <ele>948.96</ele>
        <time>2016-02-23T14:13:28Z</time>
      </trkpt>
      <trkpt lat="44.74172" lon="3.33608">
        <ele>948</ele>
        <time>2016-02-23T14:13:29Z</time>
      </trkpt>
      <trkpt lat="44.74173" lon="3.33601">
        <ele>947.04</ele>
        <time>2016-02-23T14:13:30Z</time>
      </trkpt>
      <trkpt lat="44.74175" lon="3.33594">
        <ele>947.04</ele>
        <time>2016-02-23T14:13:31Z</time>
      </trkpt>
      <trkpt lat="44.74179" lon="3.33587">
        <ele>946.56</ele>
        <time>2016-02-23T14:13:32Z</time>
      </trkpt>
      <trkpt lat="44.74184" lon="3.3358">
        <ele>946.07</ele>
        <time>2016-02-23T14:13:33Z</time>
      </trkpt>
      <trkpt lat="44.74189" lon="3.33576">
        <ele>945.59</ele>
        <time>2016-02-23T14:13:34Z</time>
      </trkpt>
      <trkpt lat="44.74194" lon="3.33573">
        <ele>945.59</ele>
        <time>2016-02-23T14:13:35Z</time>
      </trkpt>
      <trkpt lat="44.74198" lon="3.33571">
        <ele>945.59</ele>
        <time>2016-02-23T14:13:36Z</time>
      </trkpt>
      <trkpt lat="44.74201" lon="3.33568">
        <ele>945.11</ele>
        <time>2016-02-23T14:13:37Z</time>
      </trkpt>
      <trkpt lat="44.74202" lon="3.33565">
        <ele>945.11</ele>
        <time>2016-02-23T14:13:38Z</time>
      </trkpt>
      <trkpt lat="44.74203" lon="3.33562">
        <ele>945.11</ele>
        <time>2016-02-23T14:13:39Z</time>
      </trkpt>
      <trkpt lat="44.74205" lon="3.33558">
        <ele>945.11</ele>
        <time>2016-02-23T14:13:40Z</time>
      </trkpt>
      <trkpt lat="44.74209" lon="3.33555">
        <ele>944.63</ele>
        <time>2016-02-23T14:13:41Z</time>
      </trkpt>
      <trkpt lat="44.74212" lon="3.33552">
        <ele>944.63</ele>
        <time>2016-02-23T14:13:42Z</time>
      </trkpt>
      <trkpt lat="44.74216" lon="3.3355">
        <ele>944.15</ele>
        <time>2016-02-23T14:13:43Z</time>
      </trkpt>
      <trkpt lat="44.74219" lon="3.33547">
        <ele>944.63</ele>
        <time>2016-02-23T14:13:44Z</time>
      </trkpt>
      <trkpt lat="44.74221" lon="3.33543">
        <ele>945.59</ele>
        <time>2016-02-23T14:13:45Z</time>
      </trkpt>
      <trkpt lat="44.74222" lon="3.3354">
        <ele>945.59</ele>
        <time>2016-02-23T14:13:46Z</time>
      </trkpt>
      <trkpt lat="44.74223" lon="3.33536">
        <ele>946.07</ele>
        <time>2016-02-23T14:13:47Z</time>
      </trkpt>
      <trkpt lat="44.74225" lon="3.33533">
        <ele>946.07</ele>
        <time>2016-02-23T14:13:48Z</time>
      </trkpt>
      <trkpt lat="44.74226" lon="3.3353">
        <ele>946.07</ele>
        <time>2016-02-23T14:13:49Z</time>
      </trkpt>
      <trkpt lat="44.74228" lon="3.33528">
        <ele>946.56</ele>
        <time>2016-02-23T14:13:50Z</time>
      </trkpt>
      <trkpt lat="44.74245" lon="3.33516">
        <ele>949.44</ele>
        <time>2016-02-23T14:14:00Z</time>
      </trkpt>
      <trkpt lat="44.74253" lon="3.33514">
        <ele>950.4</ele>
        <time>2016-02-23T14:14:05Z</time>
      </trkpt>
      <trkpt lat="44.74254" lon="3.33514">
        <ele>950.88</ele>
        <time>2016-02-23T14:14:06Z</time>
      </trkpt>
      <trkpt lat="44.74256" lon="3.33513">
        <ele>951.36</ele>
        <time>2016-02-23T14:14:07Z</time>
      </trkpt>
      <trkpt lat="44.74258" lon="3.33512">
        <ele>951.36</ele>
        <time>2016-02-23T14:14:08Z</time>
      </trkpt>
      <trkpt lat="44.74259" lon="3.33511">
        <ele>951.84</ele>
        <time>2016-02-23T14:14:09Z</time>
      </trkpt>
      <trkpt lat="44.74261" lon="3.3351">
        <ele>951.84</ele>
        <time>2016-02-23T14:14:10Z</time>
      </trkpt>
      <trkpt lat="44.74263" lon="3.3351">
        <ele>952.32</ele>
        <time>2016-02-23T14:14:11Z</time>
      </trkpt>
      <trkpt lat="44.74265" lon="3.3351">
        <ele>952.32</ele>
        <time>2016-02-23T14:14:12Z</time>
      </trkpt>
      <trkpt lat="44.7427" lon="3.3351">
        <ele>953.28</ele>
        <time>2016-02-23T14:14:15Z</time>
      </trkpt>
      <trkpt lat="44.74272" lon="3.33511">
        <ele>953.77</ele>
        <time>2016-02-23T14:14:16Z</time>
      </trkpt>
      <trkpt lat="44.74273" lon="3.3351">
        <ele>953.28</ele>
        <time>2016-02-23T14:14:17Z</time>
      </trkpt>
      <trkpt lat="44.74275" lon="3.33509">
        <ele>953.77</ele>
        <time>2016-02-23T14:14:18Z</time>
      </trkpt>
      <trkpt lat="44.74276" lon="3.33509">
        <ele>953.77</ele>
        <time>2016-02-23T14:14:19Z</time>
      </trkpt>
      <trkpt lat="44.74278" lon="3.33509">
        <ele>953.77</ele>
        <time>2016-02-23T14:14:20Z</time>
      </trkpt>
      <trkpt lat="44.7428" lon="3.3351">
        <ele>954.25</ele>
        <time>2016-02-23T14:14:21Z</time>
      </trkpt>
      <trkpt lat="44.74298" lon="3.33511">
        <ele>957.13</ele>
        <time>2016-02-23T14:14:32Z</time>
      </trkpt>
      <trkpt lat="44.74309" lon="3.33511">
        <ele>958.09</ele>
        <time>2016-02-23T14:14:41Z</time>
      </trkpt>
      <trkpt lat="44.74311" lon="3.33511">
        <ele>958.09</ele>
        <time>2016-02-23T14:14:42Z</time>
      </trkpt>
      <trkpt lat="44.74312" lon="3.33512">
        <ele>958.57</ele>
        <time>2016-02-23T14:14:43Z</time>
      </trkpt>
      <trkpt lat="44.74314" lon="3.33512">
        <ele>958.57</ele>
        <time>2016-02-23T14:14:44Z</time>
      </trkpt>
      <trkpt lat="44.74316" lon="3.33512">
        <ele>958.57</ele>
        <time>2016-02-23T14:14:45Z</time>
      </trkpt>
      <trkpt lat="44.74318" lon="3.33513">
        <ele>958.57</ele>
        <time>2016-02-23T14:14:46Z</time>
      </trkpt>
      <trkpt lat="44.7432" lon="3.33513">
        <ele>959.05</ele>
        <time>2016-02-23T14:14:47Z</time>
      </trkpt>
      <trkpt lat="44.74321" lon="3.33513">
        <ele>959.53</ele>
        <time>2016-02-23T14:14:48Z</time>
      </trkpt>
      <trkpt lat="44.74323" lon="3.33513">
        <ele>960.01</ele>
        <time>2016-02-23T14:14:49Z</time>
      </trkpt>
      <trkpt lat="44.74325" lon="3.33513">
        <ele>960.01</ele>
        <time>2016-02-23T14:14:50Z</time>
      </trkpt>
      <trkpt lat="44.74327" lon="3.33513">
        <ele>960.49</ele>
        <time>2016-02-23T14:14:51Z</time>
      </trkpt>
      <trkpt lat="44.74328" lon="3.33514">
        <ele>960.98</ele>
        <time>2016-02-23T14:14:52Z</time>
      </trkpt>
      <trkpt lat="44.7433" lon="3.33514">
        <ele>960.98</ele>
        <time>2016-02-23T14:14:53Z</time>
      </trkpt>
      <trkpt lat="44.74332" lon="3.33514">
        <ele>960.98</ele>
        <time>2016-02-23T14:14:54Z</time>
      </trkpt>
      <trkpt lat="44.7435" lon="3.33517">
        <ele>963.86</ele>
        <time>2016-02-23T14:15:05Z</time>
      </trkpt>
      <trkpt lat="44.74351" lon="3.33517">
        <ele>963.86</ele>
        <time>2016-02-23T14:15:06Z</time>
      </trkpt>
      <trkpt lat="44.74353" lon="3.33517">
        <ele>963.86</ele>
        <time>2016-02-23T14:15:07Z</time>
      </trkpt>
      <trkpt lat="44.74355" lon="3.33518">
        <ele>963.86</ele>
        <time>2016-02-23T14:15:08Z</time>
      </trkpt>
      <trkpt lat="44.74357" lon="3.33518">
        <ele>964.34</ele>
        <time>2016-02-23T14:15:09Z</time>
      </trkpt>
      <trkpt lat="44.74358" lon="3.33519">
        <ele>964.34</ele>
        <time>2016-02-23T14:15:10Z</time>
      </trkpt>
      <trkpt lat="44.7436" lon="3.33519">
        <ele>964.34</ele>
        <time>2016-02-23T14:15:11Z</time>
      </trkpt>
      <trkpt lat="44.74383" lon="3.33521">
        <ele>967.7</ele>
        <time>2016-02-23T14:15:24Z</time>
      </trkpt>
      <trkpt lat="44.74386" lon="3.33521">
        <ele>967.7</ele>
        <time>2016-02-23T14:15:26Z</time>
      </trkpt>
      <trkpt lat="44.74388" lon="3.33521">
        <ele>968.18</ele>
        <time>2016-02-23T14:15:27Z</time>
      </trkpt>
      <trkpt lat="44.7439" lon="3.33521">
        <ele>967.7</ele>
        <time>2016-02-23T14:15:28Z</time>
      </trkpt>
      <trkpt lat="44.74392" lon="3.33522">
        <ele>968.18</ele>
        <time>2016-02-23T14:15:29Z</time>
      </trkpt>
      <trkpt lat="44.74393" lon="3.33522">
        <ele>968.67</ele>
        <time>2016-02-23T14:15:30Z</time>
      </trkpt>
      <trkpt lat="44.74395" lon="3.33522">
        <ele>968.67</ele>
        <time>2016-02-23T14:15:31Z</time>
      </trkpt>
      <trkpt lat="44.74397" lon="3.33522">
        <ele>968.67</ele>
        <time>2016-02-23T14:15:32Z</time>
      </trkpt>
      <trkpt lat="44.74399" lon="3.33523">
        <ele>968.67</ele>
        <time>2016-02-23T14:15:33Z</time>
      </trkpt>
      <trkpt lat="44.74401" lon="3.33523">
        <ele>969.15</ele>
        <time>2016-02-23T14:15:34Z</time>
      </trkpt>
      <trkpt lat="44.74403" lon="3.33523">
        <ele>969.63</ele>
        <time>2016-02-23T14:15:35Z</time>
      </trkpt>
      <trkpt lat="44.74405" lon="3.33523">
        <ele>969.63</ele>
        <time>2016-02-23T14:15:36Z</time>
      </trkpt>
      <trkpt lat="44.74422" lon="3.33527">
        <ele>972.51</ele>
        <time>2016-02-23T14:15:47Z</time>
      </trkpt>
      <trkpt lat="44.74423" lon="3.33526">
        <ele>972.51</ele>
        <time>2016-02-23T14:15:48Z</time>
      </trkpt>
      <trkpt lat="44.74425" lon="3.33525">
        <ele>972.99</ele>
        <time>2016-02-23T14:15:49Z</time>
      </trkpt>
      <trkpt lat="44.74427" lon="3.33524">
        <ele>972.99</ele>
        <time>2016-02-23T14:15:51Z</time>
      </trkpt>
      <trkpt lat="44.74428" lon="3.33522">
        <ele>973.47</ele>
        <time>2016-02-23T14:15:52Z</time>
      </trkpt>
      <trkpt lat="44.74429" lon="3.33521">
        <ele>973.47</ele>
        <time>2016-02-23T14:15:53Z</time>
      </trkpt>
      <trkpt lat="44.7443" lon="3.33519">
        <ele>973.47</ele>
        <time>2016-02-23T14:15:54Z</time>
      </trkpt>
      <trkpt lat="44.7443" lon="3.33517">
        <ele>972.99</ele>
        <time>2016-02-23T14:15:55Z</time>
      </trkpt>
      <trkpt lat="44.74431" lon="3.33515">
        <ele>972.99</ele>
        <time>2016-02-23T14:15:56Z</time>
      </trkpt>
      <trkpt lat="44.74436" lon="3.3349">
        <ele>974.43</ele>
        <time>2016-02-23T14:16:07Z</time>
      </trkpt>
      <trkpt lat="44.74437" lon="3.33488">
        <ele>974.43</ele>
        <time>2016-02-23T14:16:08Z</time>
      </trkpt>
      <trkpt lat="44.74437" lon="3.33486">
        <ele>974.43</ele>
        <time>2016-02-23T14:16:09Z</time>
      </trkpt>
      <trkpt lat="44.74437" lon="3.33483">
        <ele>974.43</ele>
        <time>2016-02-23T14:16:10Z</time>
      </trkpt>
      <trkpt lat="44.74437" lon="3.33481">
        <ele>974.43</ele>
        <time>2016-02-23T14:16:11Z</time>
      </trkpt>
      <trkpt lat="44.74438" lon="3.33478">
        <ele>974.91</ele>
        <time>2016-02-23T14:16:12Z</time>
      </trkpt>
      <trkpt lat="44.74443" lon="3.33447">
        <ele>976.84</ele>
        <time>2016-02-23T14:16:28Z</time>
      </trkpt>
      <trkpt lat="44.74444" lon="3.33443">
        <ele>977.32</ele>
        <time>2016-02-23T14:16:30Z</time>
      </trkpt>
      <trkpt lat="44.74444" lon="3.33441">
        <ele>977.8</ele>
        <time>2016-02-23T14:16:31Z</time>
      </trkpt>
      <trkpt lat="44.74444" lon="3.33438">
        <ele>977.8</ele>
        <time>2016-02-23T14:16:32Z</time>
      </trkpt>
      <trkpt lat="44.74445" lon="3.33436">
        <ele>978.28</ele>
        <time>2016-02-23T14:16:33Z</time>
      </trkpt>
      <trkpt lat="44.74445" lon="3.33434">
        <ele>978.28</ele>
        <time>2016-02-23T14:16:34Z</time>
      </trkpt>
      <trkpt lat="44.74445" lon="3.3342">
        <ele>979.72</ele>
        <time>2016-02-23T14:16:41Z</time>
      </trkpt>
      <trkpt lat="44.74445" lon="3.33418">
        <ele>979.72</ele>
        <time>2016-02-23T14:16:42Z</time>
      </trkpt>
      <trkpt lat="44.74445" lon="3.33409">
        <ele>980.68</ele>
        <time>2016-02-23T14:16:46Z</time>
      </trkpt>
      <trkpt lat="44.74445" lon="3.33407">
        <ele>980.68</ele>
        <time>2016-02-23T14:16:47Z</time>
      </trkpt>
      <trkpt lat="44.74445" lon="3.33404">
        <ele>981.16</ele>
        <time>2016-02-23T14:16:48Z</time>
      </trkpt>
      <trkpt lat="44.74445" lon="3.33402">
        <ele>981.64</ele>
        <time>2016-02-23T14:16:49Z</time>
      </trkpt>
      <trkpt lat="44.74445" lon="3.33399">
        <ele>981.64</ele>
        <time>2016-02-23T14:16:50Z</time>
      </trkpt>
      <trkpt lat="44.74446" lon="3.33397">
        <ele>982.12</ele>
        <time>2016-02-23T14:16:51Z</time>
      </trkpt>
      <trkpt lat="44.74446" lon="3.33394">
        <ele>982.6</ele>
        <time>2016-02-23T14:16:52Z</time>
      </trkpt>
      <trkpt lat="44.74448" lon="3.33363">
        <ele>984.53</ele>
        <time>2016-02-23T14:17:05Z</time>
      </trkpt>
      <trkpt lat="44.74449" lon="3.33329">
        <ele>987.41</ele>
        <time>2016-02-23T14:17:20Z</time>
      </trkpt>
      <trkpt lat="44.74452" lon="3.33309">
        <ele>988.37</ele>
        <time>2016-02-23T14:17:29Z</time>
      </trkpt>
      <trkpt lat="44.74457" lon="3.33287">
        <ele>991.26</ele>
        <time>2016-02-23T14:17:41Z</time>
      </trkpt>
      <trkpt lat="44.74458" lon="3.33283">
        <ele>992.22</ele>
        <time>2016-02-23T14:17:43Z</time>
      </trkpt>
      <trkpt lat="44.74458" lon="3.33281">
        <ele>992.22</ele>
        <time>2016-02-23T14:17:44Z</time>
      </trkpt>
      <trkpt lat="44.74459" lon="3.33279">
        <ele>992.7</ele>
        <time>2016-02-23T14:17:45Z</time>
      </trkpt>
      <trkpt lat="44.74459" lon="3.33276">
        <ele>992.7</ele>
        <time>2016-02-23T14:17:46Z</time>
      </trkpt>
      <trkpt lat="44.7446" lon="3.33274">
        <ele>992.7</ele>
        <time>2016-02-23T14:17:47Z</time>
      </trkpt>
      <trkpt lat="44.7446" lon="3.33272">
        <ele>992.7</ele>
        <time>2016-02-23T14:17:48Z</time>
      </trkpt>
      <trkpt lat="44.74462" lon="3.33253">
        <ele>993.66</ele>
        <time>2016-02-23T14:18:01Z</time>
      </trkpt>
      <trkpt lat="44.74462" lon="3.33253">
        <ele>993.66</ele>
        <time>2016-02-23T14:18:35Z</time>
      </trkpt>
      <trkpt lat="44.74462" lon="3.33248">
        <ele>993.66</ele>
        <time>2016-02-23T14:18:47Z</time>
      </trkpt>
      <trkpt lat="44.74462" lon="3.33246">
        <ele>993.66</ele>
        <time>2016-02-23T14:18:48Z</time>
      </trkpt>
      <trkpt lat="44.74462" lon="3.33244">
        <ele>993.66</ele>
        <time>2016-02-23T14:18:49Z</time>
      </trkpt>
      <trkpt lat="44.74462" lon="3.33242">
        <ele>994.14</ele>
        <time>2016-02-23T14:18:50Z</time>
      </trkpt>
      <trkpt lat="44.74462" lon="3.33241">
        <ele>994.14</ele>
        <time>2016-02-23T14:18:51Z</time>
      </trkpt>
      <trkpt lat="44.74462" lon="3.33239">
        <ele>994.62</ele>
        <time>2016-02-23T14:18:52Z</time>
      </trkpt>
      <trkpt lat="44.74462" lon="3.33236">
        <ele>994.62</ele>
        <time>2016-02-23T14:18:53Z</time>
      </trkpt>
      <trkpt lat="44.74462" lon="3.33234">
        <ele>994.62</ele>
        <time>2016-02-23T14:18:54Z</time>
      </trkpt>
      <trkpt lat="44.74462" lon="3.33232">
        <ele>994.62</ele>
        <time>2016-02-23T14:18:55Z</time>
      </trkpt>
      <trkpt lat="44.74462" lon="3.33229">
        <ele>994.62</ele>
        <time>2016-02-23T14:18:56Z</time>
      </trkpt>
      <trkpt lat="44.74463" lon="3.33227">
        <ele>995.1</ele>
        <time>2016-02-23T14:18:57Z</time>
      </trkpt>
      <trkpt lat="44.74463" lon="3.33226">
        <ele>995.1</ele>
        <time>2016-02-23T14:18:58Z</time>
      </trkpt>
      <trkpt lat="44.74463" lon="3.33224">
        <ele>995.1</ele>
        <time>2016-02-23T14:18:59Z</time>
      </trkpt>
      <trkpt lat="44.74463" lon="3.33222">
        <ele>995.58</ele>
        <time>2016-02-23T14:19:00Z</time>
      </trkpt>
      <trkpt lat="44.74463" lon="3.3322">
        <ele>996.06</ele>
        <time>2016-02-23T14:19:01Z</time>
      </trkpt>
      <trkpt lat="44.74462" lon="3.33218">
        <ele>996.06</ele>
        <time>2016-02-23T14:19:02Z</time>
      </trkpt>
      <trkpt lat="44.74461" lon="3.33204">
        <ele>996.54</ele>
        <time>2016-02-23T14:19:08Z</time>
      </trkpt>
      <trkpt lat="44.74462" lon="3.33202">
        <ele>996.54</ele>
        <time>2016-02-23T14:19:09Z</time>
      </trkpt>
      <trkpt lat="44.74462" lon="3.332">
        <ele>996.54</ele>
        <time>2016-02-23T14:19:10Z</time>
      </trkpt>
      <trkpt lat="44.74462" lon="3.33198">
        <ele>997.02</ele>
        <time>2016-02-23T14:19:11Z</time>
      </trkpt>
      <trkpt lat="44.74462" lon="3.33195">
        <ele>997.02</ele>
        <time>2016-02-23T14:19:12Z</time>
      </trkpt>
      <trkpt lat="44.74462" lon="3.33193">
        <ele>997.02</ele>
        <time>2016-02-23T14:19:13Z</time>
      </trkpt>
      <trkpt lat="44.74462" lon="3.3319">
        <ele>997.51</ele>
        <time>2016-02-23T14:19:14Z</time>
      </trkpt>
      <trkpt lat="44.74461" lon="3.33188">
        <ele>997.51</ele>
        <time>2016-02-23T14:19:15Z</time>
      </trkpt>
      <trkpt lat="44.74462" lon="3.33185">
        <ele>997.51</ele>
        <time>2016-02-23T14:19:16Z</time>
      </trkpt>
      <trkpt lat="44.74462" lon="3.33183">
        <ele>997.51</ele>
        <time>2016-02-23T14:19:17Z</time>
      </trkpt>
      <trkpt lat="44.74462" lon="3.33181">
        <ele>997.51</ele>
        <time>2016-02-23T14:19:18Z</time>
      </trkpt>
      <trkpt lat="44.74463" lon="3.33179">
        <ele>997.99</ele>
        <time>2016-02-23T14:19:19Z</time>
      </trkpt>
      <trkpt lat="44.74463" lon="3.33177">
        <ele>997.99</ele>
        <time>2016-02-23T14:19:20Z</time>
      </trkpt>
      <trkpt lat="44.74463" lon="3.33175">
        <ele>997.51</ele>
        <time>2016-02-23T14:19:21Z</time>
      </trkpt>
      <trkpt lat="44.74463" lon="3.33172">
        <ele>997.99</ele>
        <time>2016-02-23T14:19:22Z</time>
      </trkpt>
      <trkpt lat="44.74463" lon="3.33169">
        <ele>997.99</ele>
        <time>2016-02-23T14:19:23Z</time>
      </trkpt>
      <trkpt lat="44.74463" lon="3.33167">
        <ele>997.99</ele>
        <time>2016-02-23T14:19:24Z</time>
      </trkpt>
      <trkpt lat="44.74463" lon="3.33164">
        <ele>997.99</ele>
        <time>2016-02-23T14:19:25Z</time>
      </trkpt>
      <trkpt lat="44.74463" lon="3.33161">
        <ele>997.99</ele>
        <time>2016-02-23T14:19:26Z</time>
      </trkpt>
      <trkpt lat="44.74464" lon="3.33159">
        <ele>997.99</ele>
        <time>2016-02-23T14:19:27Z</time>
      </trkpt>
      <trkpt lat="44.74465" lon="3.33153">
        <ele>997.99</ele>
        <time>2016-02-23T14:19:29Z</time>
      </trkpt>
      <trkpt lat="44.74465" lon="3.3315">
        <ele>998.47</ele>
        <time>2016-02-23T14:19:30Z</time>
      </trkpt>
      <trkpt lat="44.74465" lon="3.33148">
        <ele>998.47</ele>
        <time>2016-02-23T14:19:31Z</time>
      </trkpt>
      <trkpt lat="44.74464" lon="3.33145">
        <ele>998.47</ele>
        <time>2016-02-23T14:19:32Z</time>
      </trkpt>
      <trkpt lat="44.74464" lon="3.33143">
        <ele>998.95</ele>
        <time>2016-02-23T14:19:33Z</time>
      </trkpt>
      <trkpt lat="44.74463" lon="3.3314">
        <ele>998.95</ele>
        <time>2016-02-23T14:19:34Z</time>
      </trkpt>
      <trkpt lat="44.74463" lon="3.33139">
        <ele>999.43</ele>
        <time>2016-02-23T14:19:35Z</time>
      </trkpt>
      <trkpt lat="44.74463" lon="3.33136">
        <ele>998.95</ele>
        <time>2016-02-23T14:19:36Z</time>
      </trkpt>
      <trkpt lat="44.74463" lon="3.33134">
        <ele>998.95</ele>
        <time>2016-02-23T14:19:37Z</time>
      </trkpt>
      <trkpt lat="44.74463" lon="3.33132">
        <ele>998.95</ele>
        <time>2016-02-23T14:19:38Z</time>
      </trkpt>
      <trkpt lat="44.74464" lon="3.33129">
        <ele>998.95</ele>
        <time>2016-02-23T14:19:39Z</time>
      </trkpt>
      <trkpt lat="44.74464" lon="3.33126">
        <ele>999.43</ele>
        <time>2016-02-23T14:19:40Z</time>
      </trkpt>
      <trkpt lat="44.74464" lon="3.33124">
        <ele>999.43</ele>
        <time>2016-02-23T14:19:41Z</time>
      </trkpt>
      <trkpt lat="44.74464" lon="3.33121">
        <ele>999.91</ele>
        <time>2016-02-23T14:19:42Z</time>
      </trkpt>
      <trkpt lat="44.74464" lon="3.33118">
        <ele>999.91</ele>
        <time>2016-02-23T14:19:43Z</time>
      </trkpt>
      <trkpt lat="44.74464" lon="3.33116">
        <ele>999.43</ele>
        <time>2016-02-23T14:19:44Z</time>
      </trkpt>
      <trkpt lat="44.74463" lon="3.33113">
        <ele>999.43</ele>
        <time>2016-02-23T14:19:45Z</time>
      </trkpt>
      <trkpt lat="44.74463" lon="3.33067">
        <ele>1001.83</ele>
        <time>2016-02-23T14:20:01Z</time>
      </trkpt>
      <trkpt lat="44.74463" lon="3.33051">
        <ele>1002.31</ele>
        <time>2016-02-23T14:20:07Z</time>
      </trkpt>
      <trkpt lat="44.74462" lon="3.33049">
        <ele>1002.31</ele>
        <time>2016-02-23T14:20:08Z</time>
      </trkpt>
      <trkpt lat="44.74462" lon="3.33048">
        <ele>1002.31</ele>
        <time>2016-02-23T14:20:09Z</time>
      </trkpt>
      <trkpt lat="44.74463" lon="3.33046">
        <ele>1002.31</ele>
        <time>2016-02-23T14:20:10Z</time>
      </trkpt>
      <trkpt lat="44.74463" lon="3.33044">
        <ele>1002.31</ele>
        <time>2016-02-23T14:20:11Z</time>
      </trkpt>
      <trkpt lat="44.74463" lon="3.33041">
        <ele>1002.31</ele>
        <time>2016-02-23T14:20:12Z</time>
      </trkpt>
      <trkpt lat="44.74463" lon="3.33039">
        <ele>1002.79</ele>
        <time>2016-02-23T14:20:13Z</time>
      </trkpt>
      <trkpt lat="44.74462" lon="3.33036">
        <ele>1002.79</ele>
        <time>2016-02-23T14:20:14Z</time>
      </trkpt>
      <trkpt lat="44.74461" lon="3.33019">
        <ele>1002.79</ele>
        <time>2016-02-23T14:20:22Z</time>
      </trkpt>
      <trkpt lat="44.7446" lon="3.33019">
        <ele>1003.27</ele>
        <time>2016-02-23T14:20:28Z</time>
      </trkpt>
      <trkpt lat="44.74461" lon="3.33018">
        <ele>1002.79</ele>
        <time>2016-02-23T14:20:29Z</time>
      </trkpt>
      <trkpt lat="44.74462" lon="3.33005">
        <ele>1003.27</ele>
        <time>2016-02-23T14:20:37Z</time>
      </trkpt>
      <trkpt lat="44.74462" lon="3.33003">
        <ele>1003.27</ele>
        <time>2016-02-23T14:20:38Z</time>
      </trkpt>
      <trkpt lat="44.74462" lon="3.33001">
        <ele>1003.75</ele>
        <time>2016-02-23T14:20:39Z</time>
      </trkpt>
      <trkpt lat="44.74462" lon="3.32999">
        <ele>1003.75</ele>
        <time>2016-02-23T14:20:40Z</time>
      </trkpt>
      <trkpt lat="44.74463" lon="3.32996">
        <ele>1003.75</ele>
        <time>2016-02-23T14:20:41Z</time>
      </trkpt>
      <trkpt lat="44.74463" lon="3.32994">
        <ele>1003.75</ele>
        <time>2016-02-23T14:20:42Z</time>
      </trkpt>
      <trkpt lat="44.74463" lon="3.32991">
        <ele>1003.75</ele>
        <time>2016-02-23T14:20:43Z</time>
      </trkpt>
      <trkpt lat="44.7447" lon="3.3295">
        <ele>1004.23</ele>
        <time>2016-02-23T14:20:58Z</time>
      </trkpt>
      <trkpt lat="44.74477" lon="3.32919">
        <ele>1006.16</ele>
        <time>2016-02-23T14:21:10Z</time>
      </trkpt>
      <trkpt lat="44.74479" lon="3.32909">
        <ele>1006.64</ele>
        <time>2016-02-23T14:21:14Z</time>
      </trkpt>
      <trkpt lat="44.7448" lon="3.32906">
        <ele>1006.64</ele>
        <time>2016-02-23T14:21:15Z</time>
      </trkpt>
      <trkpt lat="44.7448" lon="3.32903">
        <ele>1006.64</ele>
        <time>2016-02-23T14:21:16Z</time>
      </trkpt>
      <trkpt lat="44.74483" lon="3.32889">
        <ele>1007.12</ele>
        <time>2016-02-23T14:21:21Z</time>
      </trkpt>
      <trkpt lat="44.74484" lon="3.32887">
        <ele>1007.12</ele>
        <time>2016-02-23T14:21:22Z</time>
      </trkpt>
      <trkpt lat="44.74484" lon="3.32885">
        <ele>1007.12</ele>
        <time>2016-02-23T14:21:23Z</time>
      </trkpt>
      <trkpt lat="44.74484" lon="3.32883">
        <ele>1007.12</ele>
        <time>2016-02-23T14:21:24Z</time>
      </trkpt>
      <trkpt lat="44.74485" lon="3.3288">
        <ele>1007.6</ele>
        <time>2016-02-23T14:21:25Z</time>
      </trkpt>
      <trkpt lat="44.74492" lon="3.32837">
        <ele>1007.6</ele>
        <time>2016-02-23T14:21:38Z</time>
      </trkpt>
      <trkpt lat="44.74498" lon="3.32804">
        <ele>1007.6</ele>
        <time>2016-02-23T14:21:49Z</time>
      </trkpt>
      <trkpt lat="44.74504" lon="3.32755">
        <ele>1006.16</ele>
        <time>2016-02-23T14:22:02Z</time>
      </trkpt>
      <trkpt lat="44.745" lon="3.32691">
        <ele>1005.68</ele>
        <time>2016-02-23T14:22:16Z</time>
      </trkpt>
      <trkpt lat="44.74499" lon="3.32641">
        <ele>1004.72</ele>
        <time>2016-02-23T14:22:27Z</time>
      </trkpt>
      <trkpt lat="44.74503" lon="3.3259">
        <ele>1005.68</ele>
        <time>2016-02-23T14:22:41Z</time>
      </trkpt>
      <trkpt lat="44.74513" lon="3.3253">
        <ele>1005.68</ele>
        <time>2016-02-23T14:22:56Z</time>
      </trkpt>
      <trkpt lat="44.74511" lon="3.32471">
        <ele>1006.16</ele>
        <time>2016-02-23T14:23:11Z</time>
      </trkpt>
      <trkpt lat="44.74514" lon="3.3244">
        <ele>1008.08</ele>
        <time>2016-02-23T14:23:23Z</time>
      </trkpt>
      <trkpt lat="44.74518" lon="3.32416">
        <ele>1009.52</ele>
        <time>2016-02-23T14:23:35Z</time>
      </trkpt>
      <trkpt lat="44.74518" lon="3.32415">
        <ele>1010.48</ele>
        <time>2016-02-23T14:23:36Z</time>
      </trkpt>
      <trkpt lat="44.74518" lon="3.32413">
        <ele>1010.48</ele>
        <time>2016-02-23T14:23:37Z</time>
      </trkpt>
      <trkpt lat="44.74519" lon="3.32409">
        <ele>1010</ele>
        <time>2016-02-23T14:23:40Z</time>
      </trkpt>
      <trkpt lat="44.74519" lon="3.32407">
        <ele>1010.96</ele>
        <time>2016-02-23T14:23:41Z</time>
      </trkpt>
      <trkpt lat="44.74518" lon="3.32406">
        <ele>1010.96</ele>
        <time>2016-02-23T14:23:42Z</time>
      </trkpt>
      <trkpt lat="44.74518" lon="3.32404">
        <ele>1010.48</ele>
        <time>2016-02-23T14:23:43Z</time>
      </trkpt>
      <trkpt lat="44.74518" lon="3.32403">
        <ele>1010.48</ele>
        <time>2016-02-23T14:23:44Z</time>
      </trkpt>
      <trkpt lat="44.74518" lon="3.32402">
        <ele>1010.96</ele>
        <time>2016-02-23T14:24:00Z</time>
      </trkpt>
      <trkpt lat="44.74518" lon="3.32401">
        <ele>1010.96</ele>
        <time>2016-02-23T14:24:01Z</time>
      </trkpt>
      <trkpt lat="44.74518" lon="3.32399">
        <ele>1010.96</ele>
        <time>2016-02-23T14:24:02Z</time>
      </trkpt>
      <trkpt lat="44.74518" lon="3.32397">
        <ele>1010.96</ele>
        <time>2016-02-23T14:24:03Z</time>
      </trkpt>
      <trkpt lat="44.74518" lon="3.32395">
        <ele>1011.44</ele>
        <time>2016-02-23T14:24:04Z</time>
      </trkpt>
      <trkpt lat="44.74518" lon="3.32393">
        <ele>1011.44</ele>
        <time>2016-02-23T14:24:05Z</time>
      </trkpt>
      <trkpt lat="44.74518" lon="3.3239">
        <ele>1011.44</ele>
        <time>2016-02-23T14:24:06Z</time>
      </trkpt>
      <trkpt lat="44.74519" lon="3.32386">
        <ele>1012.41</ele>
        <time>2016-02-23T14:24:09Z</time>
      </trkpt>
      <trkpt lat="44.7452" lon="3.32383">
        <ele>1012.89</ele>
        <time>2016-02-23T14:24:20Z</time>
      </trkpt>
      <trkpt lat="44.7452" lon="3.32383">
        <ele>1012.89</ele>
        <time>2016-02-23T14:24:53Z</time>
      </trkpt>
      <trkpt lat="44.7452" lon="3.32383">
        <ele>1012.89</ele>
        <time>2016-02-23T14:25:04Z</time>
      </trkpt>
      <trkpt lat="44.7452" lon="3.32383">
        <ele>1012.89</ele>
        <time>2016-02-23T14:25:08Z</time>
      </trkpt>
      <trkpt lat="44.74519" lon="3.32379">
        <ele>1012.41</ele>
        <time>2016-02-23T14:25:11Z</time>
      </trkpt>
      <trkpt lat="44.74519" lon="3.32377">
        <ele>1012.89</ele>
        <time>2016-02-23T14:25:12Z</time>
      </trkpt>
      <trkpt lat="44.74519" lon="3.32376">
        <ele>1013.37</ele>
        <time>2016-02-23T14:25:13Z</time>
      </trkpt>
      <trkpt lat="44.74519" lon="3.32371">
        <ele>1013.85</ele>
        <time>2016-02-23T14:25:26Z</time>
      </trkpt>
      <trkpt lat="44.74516" lon="3.32353">
        <ele>1013.85</ele>
        <time>2016-02-23T14:25:33Z</time>
      </trkpt>
      <trkpt lat="44.74515" lon="3.3235">
        <ele>1014.33</ele>
        <time>2016-02-23T14:25:34Z</time>
      </trkpt>
      <trkpt lat="44.74515" lon="3.32348">
        <ele>1014.33</ele>
        <time>2016-02-23T14:25:35Z</time>
      </trkpt>
      <trkpt lat="44.74515" lon="3.32345">
        <ele>1014.33</ele>
        <time>2016-02-23T14:25:36Z</time>
      </trkpt>
      <trkpt lat="44.74514" lon="3.32343">
        <ele>1014.33</ele>
        <time>2016-02-23T14:25:37Z</time>
      </trkpt>
      <trkpt lat="44.74514" lon="3.3234">
        <ele>1014.81</ele>
        <time>2016-02-23T14:25:38Z</time>
      </trkpt>
      <trkpt lat="44.74514" lon="3.32337">
        <ele>1015.29</ele>
        <time>2016-02-23T14:25:39Z</time>
      </trkpt>
      <trkpt lat="44.74507" lon="3.323">
        <ele>1016.73</ele>
        <time>2016-02-23T14:25:53Z</time>
      </trkpt>
      <trkpt lat="44.74499" lon="3.32257">
        <ele>1019.13</ele>
        <time>2016-02-23T14:26:08Z</time>
      </trkpt>
      <trkpt lat="44.74491" lon="3.32227">
        <ele>1021.06</ele>
        <time>2016-02-23T14:26:21Z</time>
      </trkpt>
      <trkpt lat="44.74482" lon="3.32204">
        <ele>1022.98</ele>
        <time>2016-02-23T14:26:30Z</time>
      </trkpt>
      <trkpt lat="44.74482" lon="3.32202">
        <ele>1022.98</ele>
        <time>2016-02-23T14:26:31Z</time>
      </trkpt>
      <trkpt lat="44.74482" lon="3.32199">
        <ele>1022.98</ele>
        <time>2016-02-23T14:26:32Z</time>
      </trkpt>
      <trkpt lat="44.74484" lon="3.32178">
        <ele>1023.94</ele>
        <time>2016-02-23T14:26:40Z</time>
      </trkpt>
      <trkpt lat="44.74484" lon="3.32177">
        <ele>1023.94</ele>
        <time>2016-02-23T14:26:41Z</time>
      </trkpt>
      <trkpt lat="44.74484" lon="3.32175">
        <ele>1023.94</ele>
        <time>2016-02-23T14:26:42Z</time>
      </trkpt>
      <trkpt lat="44.74487" lon="3.3214">
        <ele>1026.34</ele>
        <time>2016-02-23T14:26:58Z</time>
      </trkpt>
      <trkpt lat="44.74487" lon="3.32139">
        <ele>1026.34</ele>
        <time>2016-02-23T14:26:59Z</time>
      </trkpt>
      <trkpt lat="44.74486" lon="3.3212">
        <ele>1028.75</ele>
        <time>2016-02-23T14:27:13Z</time>
      </trkpt>
      <trkpt lat="44.74486" lon="3.3212">
        <ele>1028.75</ele>
        <time>2016-02-23T14:27:34Z</time>
      </trkpt>
      <trkpt lat="44.74487" lon="3.32121">
        <ele>1028.27</ele>
        <time>2016-02-23T14:27:35Z</time>
      </trkpt>
      <trkpt lat="44.74489" lon="3.32122">
        <ele>1028.27</ele>
        <time>2016-02-23T14:27:36Z</time>
      </trkpt>
      <trkpt lat="44.74492" lon="3.32123">
        <ele>1027.79</ele>
        <time>2016-02-23T14:27:37Z</time>
      </trkpt>
      <trkpt lat="44.74495" lon="3.32123">
        <ele>1027.79</ele>
        <time>2016-02-23T14:27:38Z</time>
      </trkpt>
      <trkpt lat="44.74497" lon="3.32123">
        <ele>1027.79</ele>
        <time>2016-02-23T14:27:39Z</time>
      </trkpt>
      <trkpt lat="44.74499" lon="3.32123">
        <ele>1027.79</ele>
        <time>2016-02-23T14:27:40Z</time>
      </trkpt>
      <trkpt lat="44.74501" lon="3.32123">
        <ele>1028.27</ele>
        <time>2016-02-23T14:27:41Z</time>
      </trkpt>
      <trkpt lat="44.74504" lon="3.32124">
        <ele>1028.27</ele>
        <time>2016-02-23T14:27:42Z</time>
      </trkpt>
      <trkpt lat="44.74506" lon="3.32124">
        <ele>1028.27</ele>
        <time>2016-02-23T14:27:43Z</time>
      </trkpt>
      <trkpt lat="44.74507" lon="3.32124">
        <ele>1028.27</ele>
        <time>2016-02-23T14:27:44Z</time>
      </trkpt>
      <trkpt lat="44.74532" lon="3.32131">
        <ele>1029.23</ele>
        <time>2016-02-23T14:27:57Z</time>
      </trkpt>
      <trkpt lat="44.74542" lon="3.32134">
        <ele>1029.71</ele>
        <time>2016-02-23T14:28:04Z</time>
      </trkpt>
      <trkpt lat="44.74543" lon="3.32136">
        <ele>1029.71</ele>
        <time>2016-02-23T14:28:05Z</time>
      </trkpt>
      <trkpt lat="44.74543" lon="3.32138">
        <ele>1029.71</ele>
        <time>2016-02-23T14:28:07Z</time>
      </trkpt>
      <trkpt lat="44.74541" lon="3.32144">
        <ele>1028.75</ele>
        <time>2016-02-23T14:28:10Z</time>
      </trkpt>
      <trkpt lat="44.74542" lon="3.32155">
        <ele>1026.83</ele>
        <time>2016-02-23T14:28:14Z</time>
      </trkpt>
      <trkpt lat="44.74543" lon="3.32162">
        <ele>1026.34</ele>
        <time>2016-02-23T14:28:17Z</time>
      </trkpt>
      <trkpt lat="44.74546" lon="3.32162">
        <ele>1025.86</ele>
        <time>2016-02-23T14:28:29Z</time>
      </trkpt>
      <trkpt lat="44.74547" lon="3.32162">
        <ele>1026.34</ele>
        <time>2016-02-23T14:29:03Z</time>
      </trkpt>
      <trkpt lat="44.74547" lon="3.32162">
        <ele>1026.34</ele>
        <time>2016-02-23T14:29:37Z</time>
      </trkpt>
      <trkpt lat="44.74547" lon="3.32162">
        <ele>1026.34</ele>
        <time>2016-02-23T14:30:09Z</time>
      </trkpt>
      <trkpt lat="44.74547" lon="3.32162">
        <ele>1026.83</ele>
        <time>2016-02-23T14:30:41Z</time>
      </trkpt>
      <trkpt lat="44.74548" lon="3.32162">
        <ele>1026.83</ele>
        <time>2016-02-23T14:31:22Z</time>
      </trkpt>
      <trkpt lat="44.74547" lon="3.32162">
        <ele>1026.83</ele>
        <time>2016-02-23T14:31:59Z</time>
      </trkpt>
      <trkpt lat="44.74547" lon="3.32161">
        <ele>1026.34</ele>
        <time>2016-02-23T14:32:36Z</time>
      </trkpt>
      <trkpt lat="44.74547" lon="3.32163">
        <ele>1027.79</ele>
        <time>2016-02-23T14:33:10Z</time>
      </trkpt>
      <trkpt lat="44.74547" lon="3.32164">
        <ele>1027.31</ele>
        <time>2016-02-23T14:33:19Z</time>
      </trkpt>
      <trkpt lat="44.74543" lon="3.32153">
        <ele>1027.79</ele>
        <time>2016-02-23T14:33:30Z</time>
      </trkpt>
      <trkpt lat="44.74543" lon="3.32152">
        <ele>1027.79</ele>
        <time>2016-02-23T14:33:31Z</time>
      </trkpt>
      <trkpt lat="44.74542" lon="3.32142">
        <ele>1028.75</ele>
        <time>2016-02-23T14:33:36Z</time>
      </trkpt>
      <trkpt lat="44.74544" lon="3.32125">
        <ele>1030.67</ele>
        <time>2016-02-23T14:33:47Z</time>
      </trkpt>
      <trkpt lat="44.74555" lon="3.32121">
        <ele>1031.63</ele>
        <time>2016-02-23T14:33:54Z</time>
      </trkpt>
      <trkpt lat="44.74561" lon="3.3212">
        <ele>1032.11</ele>
        <time>2016-02-23T14:33:58Z</time>
      </trkpt>
      <trkpt lat="44.74569" lon="3.32114">
        <ele>1032.59</ele>
        <time>2016-02-23T14:34:09Z</time>
      </trkpt>
      <trkpt lat="44.74574" lon="3.32108">
        <ele>1033.07</ele>
        <time>2016-02-23T14:34:16Z</time>
      </trkpt>
      <trkpt lat="44.74576" lon="3.32107">
        <ele>1033.07</ele>
        <time>2016-02-23T14:34:18Z</time>
      </trkpt>
      <trkpt lat="44.74578" lon="3.32108">
        <ele>1033.07</ele>
        <time>2016-02-23T14:34:30Z</time>
      </trkpt>
      <trkpt lat="44.74579" lon="3.32107">
        <ele>1032.59</ele>
        <time>2016-02-23T14:35:01Z</time>
      </trkpt>
      <trkpt lat="44.74578" lon="3.32106">
        <ele>1033.07</ele>
        <time>2016-02-23T14:35:03Z</time>
      </trkpt>
      <trkpt lat="44.74577" lon="3.32102">
        <ele>1033.55</ele>
        <time>2016-02-23T14:35:12Z</time>
      </trkpt>
      <trkpt lat="44.74581" lon="3.32099">
        <ele>1034.52</ele>
        <time>2016-02-23T14:35:16Z</time>
      </trkpt>
      <trkpt lat="44.74586" lon="3.32098">
        <ele>1034.52</ele>
        <time>2016-02-23T14:35:20Z</time>
      </trkpt>
      <trkpt lat="44.74588" lon="3.32094">
        <ele>1035.48</ele>
        <time>2016-02-23T14:35:33Z</time>
      </trkpt>
      <trkpt lat="44.74587" lon="3.32094">
        <ele>1035</ele>
        <time>2016-02-23T14:35:35Z</time>
      </trkpt>
      <trkpt lat="44.74586" lon="3.32097">
        <ele>1035</ele>
        <time>2016-02-23T14:35:37Z</time>
      </trkpt>
      <trkpt lat="44.74582" lon="3.32098">
        <ele>1034.52</ele>
        <time>2016-02-23T14:35:41Z</time>
      </trkpt>
      <trkpt lat="44.74568" lon="3.32105">
        <ele>1033.07</ele>
        <time>2016-02-23T14:35:47Z</time>
      </trkpt>
      <trkpt lat="44.74566" lon="3.32103">
        <ele>1033.55</ele>
        <time>2016-02-23T14:35:48Z</time>
      </trkpt>
      <trkpt lat="44.7456" lon="3.32094">
        <ele>1034.52</ele>
        <time>2016-02-23T14:35:53Z</time>
      </trkpt>
      <trkpt lat="44.74553" lon="3.3207">
        <ele>1036.92</ele>
        <time>2016-02-23T14:36:04Z</time>
      </trkpt>
      <trkpt lat="44.74552" lon="3.32065">
        <ele>1037.4</ele>
        <time>2016-02-23T14:36:07Z</time>
      </trkpt>
      <trkpt lat="44.74548" lon="3.32057">
        <ele>1038.36</ele>
        <time>2016-02-23T14:36:11Z</time>
      </trkpt>
      <trkpt lat="44.74541" lon="3.3203">
        <ele>1040.76</ele>
        <time>2016-02-23T14:36:23Z</time>
      </trkpt>
      <trkpt lat="44.74561" lon="3.32018">
        <ele>1043.17</ele>
        <time>2016-02-23T14:36:37Z</time>
      </trkpt>
      <trkpt lat="44.74595" lon="3.32007">
        <ele>1043.65</ele>
        <time>2016-02-23T14:36:52Z</time>
      </trkpt>
      <trkpt lat="44.7463" lon="3.31987">
        <ele>1044.13</ele>
        <time>2016-02-23T14:37:06Z</time>
      </trkpt>
      <trkpt lat="44.74638" lon="3.31978">
        <ele>1044.13</ele>
        <time>2016-02-23T14:37:11Z</time>
      </trkpt>
      <trkpt lat="44.74633" lon="3.31972">
        <ele>1045.57</ele>
        <time>2016-02-23T14:37:15Z</time>
      </trkpt>
      <trkpt lat="44.74612" lon="3.31975">
        <ele>1047.49</ele>
        <time>2016-02-23T14:37:24Z</time>
      </trkpt>
      <trkpt lat="44.74581" lon="3.31969">
        <ele>1049.42</ele>
        <time>2016-02-23T14:37:38Z</time>
      </trkpt>
      <trkpt lat="44.74574" lon="3.31964">
        <ele>1050.86</ele>
        <time>2016-02-23T14:37:42Z</time>
      </trkpt>
      <trkpt lat="44.74568" lon="3.31963">
        <ele>1050.86</ele>
        <time>2016-02-23T14:37:54Z</time>
      </trkpt>
      <trkpt lat="44.74568" lon="3.31963">
        <ele>1051.34</ele>
        <time>2016-02-23T14:38:31Z</time>
      </trkpt>
      <trkpt lat="44.74568" lon="3.31963">
        <ele>1051.34</ele>
        <time>2016-02-23T14:39:04Z</time>
      </trkpt>
      <trkpt lat="44.74568" lon="3.31963">
        <ele>1050.86</ele>
        <time>2016-02-23T14:39:38Z</time>
      </trkpt>
      <trkpt lat="44.74568" lon="3.31963">
        <ele>1051.82</ele>
        <time>2016-02-23T14:40:10Z</time>
      </trkpt>
      <trkpt lat="44.74568" lon="3.31963">
        <ele>1050.86</ele>
        <time>2016-02-23T14:40:27Z</time>
      </trkpt>
      <trkpt lat="44.74565" lon="3.31963">
        <ele>1053.26</ele>
        <time>2016-02-23T14:47:59Z</time>
      </trkpt>
      <trkpt lat="44.74566" lon="3.31962">
        <ele>1052.78</ele>
        <time>2016-02-23T14:48:00Z</time>
      </trkpt>
      <trkpt lat="44.7457" lon="3.31959">
        <ele>1055.67</ele>
        <time>2016-02-23T14:48:10Z</time>
      </trkpt>
      <trkpt lat="44.74568" lon="3.31955">
        <ele>1052.78</ele>
        <time>2016-02-23T14:48:13Z</time>
      </trkpt>
      <trkpt lat="44.74558" lon="3.3195">
        <ele>1053.26</ele>
        <time>2016-02-23T14:48:21Z</time>
      </trkpt>
      <trkpt lat="44.74556" lon="3.3195">
        <ele>1052.78</ele>
        <time>2016-02-23T14:48:28Z</time>
      </trkpt>
      <trkpt lat="44.74541" lon="3.31935">
        <ele>1053.26</ele>
        <time>2016-02-23T14:48:38Z</time>
      </trkpt>
      <trkpt lat="44.74504" lon="3.31904">
        <ele>1054.7</ele>
        <time>2016-02-23T14:48:55Z</time>
      </trkpt>
      <trkpt lat="44.74501" lon="3.31901">
        <ele>1054.7</ele>
        <time>2016-02-23T14:48:57Z</time>
      </trkpt>
      <trkpt lat="44.74486" lon="3.31894">
        <ele>1055.67</ele>
        <time>2016-02-23T14:49:05Z</time>
      </trkpt>
      <trkpt lat="44.74482" lon="3.31894">
        <ele>1055.18</ele>
        <time>2016-02-23T14:49:06Z</time>
      </trkpt>
      <trkpt lat="44.74479" lon="3.31893">
        <ele>1055.67</ele>
        <time>2016-02-23T14:49:07Z</time>
      </trkpt>
      <trkpt lat="44.74475" lon="3.31892">
        <ele>1056.15</ele>
        <time>2016-02-23T14:49:08Z</time>
      </trkpt>
      <trkpt lat="44.74472" lon="3.3189">
        <ele>1056.63</ele>
        <time>2016-02-23T14:49:09Z</time>
      </trkpt>
      <trkpt lat="44.74444" lon="3.31873">
        <ele>1058.07</ele>
        <time>2016-02-23T14:49:20Z</time>
      </trkpt>
      <trkpt lat="44.7441" lon="3.3185">
        <ele>1060.47</ele>
        <time>2016-02-23T14:49:33Z</time>
      </trkpt>
      <trkpt lat="44.7437" lon="3.31831">
        <ele>1062.87</ele>
        <time>2016-02-23T14:49:48Z</time>
      </trkpt>
      <trkpt lat="44.74344" lon="3.31821">
        <ele>1065.28</ele>
        <time>2016-02-23T14:49:58Z</time>
      </trkpt>
      <trkpt lat="44.7431" lon="3.31812">
        <ele>1068.16</ele>
        <time>2016-02-23T14:50:11Z</time>
      </trkpt>
      <trkpt lat="44.74279" lon="3.31809">
        <ele>1071.05</ele>
        <time>2016-02-23T14:50:25Z</time>
      </trkpt>
      <trkpt lat="44.74249" lon="3.31808">
        <ele>1073.45</ele>
        <time>2016-02-23T14:50:38Z</time>
      </trkpt>
      <trkpt lat="44.74224" lon="3.31801">
        <ele>1075.85</ele>
        <time>2016-02-23T14:50:51Z</time>
      </trkpt>
      <trkpt lat="44.74196" lon="3.31784">
        <ele>1077.78</ele>
        <time>2016-02-23T14:51:05Z</time>
      </trkpt>
      <trkpt lat="44.74184" lon="3.31775">
        <ele>1078.74</ele>
        <time>2016-02-23T14:51:10Z</time>
      </trkpt>
      <trkpt lat="44.74182" lon="3.31774">
        <ele>1078.74</ele>
        <time>2016-02-23T14:51:11Z</time>
      </trkpt>
      <trkpt lat="44.7418" lon="3.31772">
        <ele>1078.74</ele>
        <time>2016-02-23T14:51:12Z</time>
      </trkpt>
      <trkpt lat="44.74158" lon="3.31746">
        <ele>1081.14</ele>
        <time>2016-02-23T14:51:27Z</time>
      </trkpt>
      <trkpt lat="44.74151" lon="3.3173">
        <ele>1082.1</ele>
        <time>2016-02-23T14:51:33Z</time>
      </trkpt>
      <trkpt lat="44.74151" lon="3.31727">
        <ele>1082.1</ele>
        <time>2016-02-23T14:51:34Z</time>
      </trkpt>
      <trkpt lat="44.7415" lon="3.31724">
        <ele>1082.1</ele>
        <time>2016-02-23T14:51:35Z</time>
      </trkpt>
      <trkpt lat="44.7415" lon="3.31721">
        <ele>1082.1</ele>
        <time>2016-02-23T14:51:36Z</time>
      </trkpt>
      <trkpt lat="44.74149" lon="3.31718">
        <ele>1082.1</ele>
        <time>2016-02-23T14:51:37Z</time>
      </trkpt>
      <trkpt lat="44.74147" lon="3.31715">
        <ele>1082.1</ele>
        <time>2016-02-23T14:51:38Z</time>
      </trkpt>
      <trkpt lat="44.7412" lon="3.31682">
        <ele>1084.02</ele>
        <time>2016-02-23T14:51:51Z</time>
      </trkpt>
      <trkpt lat="44.74084" lon="3.31646">
        <ele>1084.02</ele>
        <time>2016-02-23T14:52:06Z</time>
      </trkpt>
      <trkpt lat="44.74058" lon="3.31615">
        <ele>1085.47</ele>
        <time>2016-02-23T14:52:18Z</time>
      </trkpt>
      <trkpt lat="44.74021" lon="3.31582">
        <ele>1087.39</ele>
        <time>2016-02-23T14:52:33Z</time>
      </trkpt>
      <trkpt lat="44.73989" lon="3.31562">
        <ele>1090.27</ele>
        <time>2016-02-23T14:52:46Z</time>
      </trkpt>
      <trkpt lat="44.7396" lon="3.3155">
        <ele>1092.68</ele>
        <time>2016-02-23T14:52:58Z</time>
      </trkpt>
      <trkpt lat="44.73927" lon="3.31528">
        <ele>1092.68</ele>
        <time>2016-02-23T14:53:11Z</time>
      </trkpt>
      <trkpt lat="44.73883" lon="3.31493">
        <ele>1090.27</ele>
        <time>2016-02-23T14:53:24Z</time>
      </trkpt>
      <trkpt lat="44.73878" lon="3.3149">
        <ele>1090.27</ele>
        <time>2016-02-23T14:53:25Z</time>
      </trkpt>
      <trkpt lat="44.73869" lon="3.31483">
        <ele>1089.31</ele>
        <time>2016-02-23T14:53:27Z</time>
      </trkpt>
      <trkpt lat="44.73864" lon="3.3148">
        <ele>1089.31</ele>
        <time>2016-02-23T14:53:28Z</time>
      </trkpt>
      <trkpt lat="44.7386" lon="3.31475">
        <ele>1088.83</ele>
        <time>2016-02-23T14:53:29Z</time>
      </trkpt>
      <trkpt lat="44.73857" lon="3.31469">
        <ele>1088.83</ele>
        <time>2016-02-23T14:53:30Z</time>
      </trkpt>
      <trkpt lat="44.73853" lon="3.31463">
        <ele>1088.35</ele>
        <time>2016-02-23T14:53:31Z</time>
      </trkpt>
      <trkpt lat="44.7385" lon="3.31457">
        <ele>1087.87</ele>
        <time>2016-02-23T14:53:32Z</time>
      </trkpt>
      <trkpt lat="44.73848" lon="3.31451">
        <ele>1088.35</ele>
        <time>2016-02-23T14:53:33Z</time>
      </trkpt>
      <trkpt lat="44.73846" lon="3.31446">
        <ele>1088.35</ele>
        <time>2016-02-23T14:53:34Z</time>
      </trkpt>
      <trkpt lat="44.73843" lon="3.31441">
        <ele>1088.35</ele>
        <time>2016-02-23T14:53:35Z</time>
      </trkpt>
      <trkpt lat="44.73818" lon="3.31407">
        <ele>1084.99</ele>
        <time>2016-02-23T14:53:41Z</time>
      </trkpt>
      <trkpt lat="44.7379" lon="3.31378">
        <ele>1082.1</ele>
        <time>2016-02-23T14:53:46Z</time>
      </trkpt>
      <trkpt lat="44.73778" lon="3.31366">
        <ele>1079.22</ele>
        <time>2016-02-23T14:53:48Z</time>
      </trkpt>
      <trkpt lat="44.73766" lon="3.31352">
        <ele>1078.74</ele>
        <time>2016-02-23T14:53:50Z</time>
      </trkpt>
      <trkpt lat="44.7376" lon="3.31347">
        <ele>1078.26</ele>
        <time>2016-02-23T14:53:51Z</time>
      </trkpt>
      <trkpt lat="44.73753" lon="3.31341">
        <ele>1077.78</ele>
        <time>2016-02-23T14:53:52Z</time>
      </trkpt>
      <trkpt lat="44.7374" lon="3.31328">
        <ele>1077.29</ele>
        <time>2016-02-23T14:53:54Z</time>
      </trkpt>
      <trkpt lat="44.73733" lon="3.31323">
        <ele>1075.37</ele>
        <time>2016-02-23T14:53:55Z</time>
      </trkpt>
      <trkpt lat="44.73718" lon="3.31312">
        <ele>1074.41</ele>
        <time>2016-02-23T14:53:57Z</time>
      </trkpt>
      <trkpt lat="44.73674" lon="3.31289">
        <ele>1071.05</ele>
        <time>2016-02-23T14:54:02Z</time>
      </trkpt>
      <trkpt lat="44.73666" lon="3.31284">
        <ele>1071.05</ele>
        <time>2016-02-23T14:54:03Z</time>
      </trkpt>
      <trkpt lat="44.7365" lon="3.31274">
        <ele>1069.6</ele>
        <time>2016-02-23T14:54:05Z</time>
      </trkpt>
      <trkpt lat="44.7359" lon="3.3123">
        <ele>1067.68</ele>
        <time>2016-02-23T14:54:14Z</time>
      </trkpt>
      <trkpt lat="44.73574" lon="3.31213">
        <ele>1068.16</ele>
        <time>2016-02-23T14:54:17Z</time>
      </trkpt>
      <trkpt lat="44.73569" lon="3.31207">
        <ele>1068.16</ele>
        <time>2016-02-23T14:54:18Z</time>
      </trkpt>
      <trkpt lat="44.73563" lon="3.31203">
        <ele>1068.16</ele>
        <time>2016-02-23T14:54:19Z</time>
      </trkpt>
      <trkpt lat="44.73512" lon="3.31157">
        <ele>1069.6</ele>
        <time>2016-02-23T14:54:31Z</time>
      </trkpt>
      <trkpt lat="44.73502" lon="3.31147">
        <ele>1069.12</ele>
        <time>2016-02-23T14:54:34Z</time>
      </trkpt>
      <trkpt lat="44.73469" lon="3.31115">
        <ele>1069.6</ele>
        <time>2016-02-23T14:54:47Z</time>
      </trkpt>
      <trkpt lat="44.73468" lon="3.31113">
        <ele>1070.08</ele>
        <time>2016-02-23T14:55:08Z</time>
      </trkpt>
      <trkpt lat="44.73465" lon="3.3111">
        <ele>1069.6</ele>
        <time>2016-02-23T14:55:10Z</time>
      </trkpt>
      <trkpt lat="44.73463" lon="3.31107">
        <ele>1069.6</ele>
        <time>2016-02-23T14:55:11Z</time>
      </trkpt>
      <trkpt lat="44.73461" lon="3.31104">
        <ele>1069.12</ele>
        <time>2016-02-23T14:55:12Z</time>
      </trkpt>
      <trkpt lat="44.73458" lon="3.31101">
        <ele>1069.12</ele>
        <time>2016-02-23T14:55:13Z</time>
      </trkpt>
      <trkpt lat="44.73455" lon="3.31098">
        <ele>1068.64</ele>
        <time>2016-02-23T14:55:14Z</time>
      </trkpt>
      <trkpt lat="44.73452" lon="3.31095">
        <ele>1069.12</ele>
        <time>2016-02-23T14:55:15Z</time>
      </trkpt>
      <trkpt lat="44.73449" lon="3.31092">
        <ele>1069.12</ele>
        <time>2016-02-23T14:55:16Z</time>
      </trkpt>
      <trkpt lat="44.73412" lon="3.31053">
        <ele>1069.12</ele>
        <time>2016-02-23T14:55:29Z</time>
      </trkpt>
      <trkpt lat="44.73404" lon="3.31041">
        <ele>1070.08</ele>
        <time>2016-02-23T14:55:33Z</time>
      </trkpt>
      <trkpt lat="44.73404" lon="3.31038">
        <ele>1070.08</ele>
        <time>2016-02-23T14:55:34Z</time>
      </trkpt>
      <trkpt lat="44.73405" lon="3.31037">
        <ele>1069.6</ele>
        <time>2016-02-23T14:55:35Z</time>
      </trkpt>
      <trkpt lat="44.73407" lon="3.31036">
        <ele>1069.6</ele>
        <time>2016-02-23T14:55:36Z</time>
      </trkpt>
      <trkpt lat="44.73408" lon="3.31036">
        <ele>1069.6</ele>
        <time>2016-02-23T14:55:37Z</time>
      </trkpt>
      <trkpt lat="44.73435" lon="3.31049">
        <ele>1069.12</ele>
        <time>2016-02-23T14:55:49Z</time>
      </trkpt>
      <trkpt lat="44.73451" lon="3.31055">
        <ele>1069.12</ele>
        <time>2016-02-23T14:55:58Z</time>
      </trkpt>
      <trkpt lat="44.73455" lon="3.31056">
        <ele>1068.64</ele>
        <time>2016-02-23T14:56:10Z</time>
      </trkpt>
      <trkpt lat="44.73466" lon="3.31058">
        <ele>1069.12</ele>
        <time>2016-02-23T14:56:22Z</time>
      </trkpt>
      <trkpt lat="44.73468" lon="3.31061">
        <ele>1068.64</ele>
        <time>2016-02-23T14:56:31Z</time>
      </trkpt>
      <trkpt lat="44.73478" lon="3.31064">
        <ele>1069.6</ele>
        <time>2016-02-23T14:56:42Z</time>
      </trkpt>
      <trkpt lat="44.73486" lon="3.31065">
        <ele>1069.12</ele>
        <time>2016-02-23T14:56:56Z</time>
      </trkpt>
      <trkpt lat="44.73488" lon="3.31066">
        <ele>1069.12</ele>
        <time>2016-02-23T14:56:57Z</time>
      </trkpt>
      <trkpt lat="44.73489" lon="3.31067">
        <ele>1069.6</ele>
        <time>2016-02-23T14:56:58Z</time>
      </trkpt>
      <trkpt lat="44.73491" lon="3.31069">
        <ele>1069.6</ele>
        <time>2016-02-23T14:56:59Z</time>
      </trkpt>
      <trkpt lat="44.73492" lon="3.31069">
        <ele>1069.6</ele>
        <time>2016-02-23T14:57:00Z</time>
      </trkpt>
      <trkpt lat="44.73494" lon="3.31069">
        <ele>1069.12</ele>
        <time>2016-02-23T14:57:01Z</time>
      </trkpt>
      <trkpt lat="44.73496" lon="3.3107">
        <ele>1069.6</ele>
        <time>2016-02-23T14:57:02Z</time>
      </trkpt>
      <trkpt lat="44.73497" lon="3.31071">
        <ele>1069.6</ele>
        <time>2016-02-23T14:57:03Z</time>
      </trkpt>
      <trkpt lat="44.73506" lon="3.31073">
        <ele>1069.12</ele>
        <time>2016-02-23T14:57:09Z</time>
      </trkpt>
      <trkpt lat="44.73507" lon="3.31073">
        <ele>1069.12</ele>
        <time>2016-02-23T14:57:10Z</time>
      </trkpt>
      <trkpt lat="44.73509" lon="3.31073">
        <ele>1069.12</ele>
        <time>2016-02-23T14:57:11Z</time>
      </trkpt>
      <trkpt lat="44.73537" lon="3.31074">
        <ele>1067.68</ele>
        <time>2016-02-23T14:57:25Z</time>
      </trkpt>
      <trkpt lat="44.73565" lon="3.31083">
        <ele>1066.24</ele>
        <time>2016-02-23T14:57:36Z</time>
      </trkpt>
      <trkpt lat="44.73578" lon="3.31086">
        <ele>1064.8</ele>
        <time>2016-02-23T14:57:48Z</time>
      </trkpt>
      <trkpt lat="44.73578" lon="3.31086">
        <ele>1064.8</ele>
        <time>2016-02-23T14:58:02Z</time>
      </trkpt>
      <trkpt lat="44.73578" lon="3.31086">
        <ele>1065.28</ele>
        <time>2016-02-23T14:58:27Z</time>
      </trkpt>
      <trkpt lat="44.73578" lon="3.31086">
        <ele>1065.28</ele>
        <time>2016-02-23T14:58:45Z</time>
      </trkpt>
      <trkpt lat="44.73578" lon="3.31086">
        <ele>1065.76</ele>
        <time>2016-02-23T14:58:54Z</time>
      </trkpt>
      <trkpt lat="44.7358" lon="3.31086">
        <ele>1065.28</ele>
        <time>2016-02-23T14:59:08Z</time>
      </trkpt>
      <trkpt lat="44.73584" lon="3.31088">
        <ele>1064.8</ele>
        <time>2016-02-23T14:59:22Z</time>
      </trkpt>
      <trkpt lat="44.73605" lon="3.31079">
        <ele>1061.91</ele>
        <time>2016-02-23T14:59:31Z</time>
      </trkpt>
      <trkpt lat="44.73611" lon="3.31077">
        <ele>1060.95</ele>
        <time>2016-02-23T14:59:33Z</time>
      </trkpt>
      <trkpt lat="44.73625" lon="3.31064">
        <ele>1059.99</ele>
        <time>2016-02-23T14:59:45Z</time>
      </trkpt>
      <trkpt lat="44.73627" lon="3.31062">
        <ele>1059.99</ele>
        <time>2016-02-23T14:59:49Z</time>
      </trkpt>
      <trkpt lat="44.73628" lon="3.31061">
        <ele>1059.51</ele>
        <time>2016-02-23T14:59:50Z</time>
      </trkpt>
      <trkpt lat="44.7363" lon="3.3106">
        <ele>1059.51</ele>
        <time>2016-02-23T14:59:51Z</time>
      </trkpt>
      <trkpt lat="44.73632" lon="3.31057">
        <ele>1059.03</ele>
        <time>2016-02-23T14:59:53Z</time>
      </trkpt>
      <trkpt lat="44.73637" lon="3.31055">
        <ele>1058.07</ele>
        <time>2016-02-23T14:59:55Z</time>
      </trkpt>
      <trkpt lat="44.73664" lon="3.31058">
        <ele>1057.11</ele>
        <time>2016-02-23T15:00:06Z</time>
      </trkpt>
      <trkpt lat="44.73668" lon="3.31062">
        <ele>1057.11</ele>
        <time>2016-02-23T15:00:11Z</time>
      </trkpt>
      <trkpt lat="44.73669" lon="3.31063">
        <ele>1057.11</ele>
        <time>2016-02-23T15:00:12Z</time>
      </trkpt>
      <trkpt lat="44.7367" lon="3.31065">
        <ele>1057.59</ele>
        <time>2016-02-23T15:00:13Z</time>
      </trkpt>
      <trkpt lat="44.73671" lon="3.31068">
        <ele>1058.07</ele>
        <time>2016-02-23T15:00:27Z</time>
      </trkpt>
      <trkpt lat="44.73671" lon="3.31068">
        <ele>1058.07</ele>
        <time>2016-02-23T15:00:41Z</time>
      </trkpt>
      <trkpt lat="44.73671" lon="3.31068">
        <ele>1057.59</ele>
        <time>2016-02-23T15:00:54Z</time>
      </trkpt>
      <trkpt lat="44.73673" lon="3.31067">
        <ele>1057.59</ele>
        <time>2016-02-23T15:00:55Z</time>
      </trkpt>
      <trkpt lat="44.73673" lon="3.31063">
        <ele>1057.11</ele>
        <time>2016-02-23T15:00:58Z</time>
      </trkpt>
      <trkpt lat="44.73674" lon="3.31059">
        <ele>1057.11</ele>
        <time>2016-02-23T15:00:59Z</time>
      </trkpt>
      <trkpt lat="44.73674" lon="3.31055">
        <ele>1056.63</ele>
        <time>2016-02-23T15:01:00Z</time>
      </trkpt>
      <trkpt lat="44.73674" lon="3.31051">
        <ele>1055.67</ele>
        <time>2016-02-23T15:01:01Z</time>
      </trkpt>
      <trkpt lat="44.73674" lon="3.31047">
        <ele>1055.67</ele>
        <time>2016-02-23T15:01:02Z</time>
      </trkpt>
      <trkpt lat="44.7367" lon="3.31032">
        <ele>1055.67</ele>
        <time>2016-02-23T15:01:11Z</time>
      </trkpt>
      <trkpt lat="44.7367" lon="3.31032">
        <ele>1055.67</ele>
        <time>2016-02-23T15:01:30Z</time>
      </trkpt>
      <trkpt lat="44.73661" lon="3.31018">
        <ele>1055.67</ele>
        <time>2016-02-23T15:01:37Z</time>
      </trkpt>
      <trkpt lat="44.73657" lon="3.31014">
        <ele>1056.15</ele>
        <time>2016-02-23T15:01:41Z</time>
      </trkpt>
      <trkpt lat="44.7366" lon="3.31006">
        <ele>1055.67</ele>
        <time>2016-02-23T15:01:46Z</time>
      </trkpt>
      <trkpt lat="44.73668" lon="3.30991">
        <ele>1053.26</ele>
        <time>2016-02-23T15:01:52Z</time>
      </trkpt>
      <trkpt lat="44.73671" lon="3.30987">
        <ele>1052.78</ele>
        <time>2016-02-23T15:01:53Z</time>
      </trkpt>
      <trkpt lat="44.73675" lon="3.30983">
        <ele>1051.82</ele>
        <time>2016-02-23T15:01:54Z</time>
      </trkpt>
      <trkpt lat="44.73679" lon="3.30979">
        <ele>1051.34</ele>
        <time>2016-02-23T15:01:55Z</time>
      </trkpt>
      <trkpt lat="44.73683" lon="3.30975">
        <ele>1050.86</ele>
        <time>2016-02-23T15:01:56Z</time>
      </trkpt>
      <trkpt lat="44.73687" lon="3.30971">
        <ele>1049.9</ele>
        <time>2016-02-23T15:01:57Z</time>
      </trkpt>
      <trkpt lat="44.73692" lon="3.30966">
        <ele>1049.9</ele>
        <time>2016-02-23T15:01:58Z</time>
      </trkpt>
      <trkpt lat="44.73698" lon="3.30961">
        <ele>1047.01</ele>
        <time>2016-02-23T15:01:59Z</time>
      </trkpt>
      <trkpt lat="44.73719" lon="3.30943">
        <ele>1043.17</ele>
        <time>2016-02-23T15:02:03Z</time>
      </trkpt>
      <trkpt lat="44.73728" lon="3.30935">
        <ele>1041.73</ele>
        <time>2016-02-23T15:02:05Z</time>
      </trkpt>
      <trkpt lat="44.73732" lon="3.30931">
        <ele>1040.76</ele>
        <time>2016-02-23T15:02:06Z</time>
      </trkpt>
      <trkpt lat="44.73753" lon="3.30913">
        <ele>1037.88</ele>
        <time>2016-02-23T15:02:11Z</time>
      </trkpt>
      <trkpt lat="44.73755" lon="3.30911">
        <ele>1037.88</ele>
        <time>2016-02-23T15:02:12Z</time>
      </trkpt>
      <trkpt lat="44.73756" lon="3.3091">
        <ele>1037.88</ele>
        <time>2016-02-23T15:02:13Z</time>
      </trkpt>
      <trkpt lat="44.73757" lon="3.30909">
        <ele>1037.88</ele>
        <time>2016-02-23T15:02:14Z</time>
      </trkpt>
      <trkpt lat="44.73763" lon="3.30905">
        <ele>1036.92</ele>
        <time>2016-02-23T15:02:17Z</time>
      </trkpt>
      <trkpt lat="44.73764" lon="3.30903">
        <ele>1036.44</ele>
        <time>2016-02-23T15:02:18Z</time>
      </trkpt>
      <trkpt lat="44.73766" lon="3.30901">
        <ele>1035.96</ele>
        <time>2016-02-23T15:02:20Z</time>
      </trkpt>
      <trkpt lat="44.73768" lon="3.30898">
        <ele>1034.52</ele>
        <time>2016-02-23T15:02:24Z</time>
      </trkpt>
      <trkpt lat="44.73769" lon="3.30896">
        <ele>1035</ele>
        <time>2016-02-23T15:02:40Z</time>
      </trkpt>
      <trkpt lat="44.73769" lon="3.30895">
        <ele>1035</ele>
        <time>2016-02-23T15:03:10Z</time>
      </trkpt>
      <trkpt lat="44.73769" lon="3.30895">
        <ele>1035</ele>
        <time>2016-02-23T15:03:18Z</time>
      </trkpt>
      <trkpt lat="44.73775" lon="3.30891">
        <ele>1034.04</ele>
        <time>2016-02-23T15:03:20Z</time>
      </trkpt>
      <trkpt lat="44.73779" lon="3.30888">
        <ele>1032.59</ele>
        <time>2016-02-23T15:03:21Z</time>
      </trkpt>
      <trkpt lat="44.73784" lon="3.30883">
        <ele>1031.63</ele>
        <time>2016-02-23T15:03:22Z</time>
      </trkpt>
      <trkpt lat="44.73788" lon="3.3088">
        <ele>1030.19</ele>
        <time>2016-02-23T15:03:23Z</time>
      </trkpt>
      <trkpt lat="44.73793" lon="3.30876">
        <ele>1029.23</ele>
        <time>2016-02-23T15:03:24Z</time>
      </trkpt>
      <trkpt lat="44.73798" lon="3.30872">
        <ele>1027.79</ele>
        <time>2016-02-23T15:03:25Z</time>
      </trkpt>
      <trkpt lat="44.73804" lon="3.30869">
        <ele>1025.86</ele>
        <time>2016-02-23T15:03:26Z</time>
      </trkpt>
      <trkpt lat="44.7381" lon="3.30865">
        <ele>1024.9</ele>
        <time>2016-02-23T15:03:27Z</time>
      </trkpt>
      <trkpt lat="44.7382" lon="3.30858">
        <ele>1023.46</ele>
        <time>2016-02-23T15:03:29Z</time>
      </trkpt>
      <trkpt lat="44.73824" lon="3.30853">
        <ele>1022.5</ele>
        <time>2016-02-23T15:03:30Z</time>
      </trkpt>
      <trkpt lat="44.73827" lon="3.30848">
        <ele>1021.54</ele>
        <time>2016-02-23T15:03:31Z</time>
      </trkpt>
      <trkpt lat="44.7383" lon="3.30842">
        <ele>1021.06</ele>
        <time>2016-02-23T15:03:32Z</time>
      </trkpt>
      <trkpt lat="44.73833" lon="3.30836">
        <ele>1020.58</ele>
        <time>2016-02-23T15:03:33Z</time>
      </trkpt>
      <trkpt lat="44.73835" lon="3.30831">
        <ele>1020.1</ele>
        <time>2016-02-23T15:03:34Z</time>
      </trkpt>
      <trkpt lat="44.73836" lon="3.30828">
        <ele>1020.1</ele>
        <time>2016-02-23T15:03:35Z</time>
      </trkpt>
      <trkpt lat="44.73836" lon="3.30825">
        <ele>1020.58</ele>
        <time>2016-02-23T15:03:44Z</time>
      </trkpt>
      <trkpt lat="44.73836" lon="3.30825">
        <ele>1020.58</ele>
        <time>2016-02-23T15:04:00Z</time>
      </trkpt>
      <trkpt lat="44.73836" lon="3.30823">
        <ele>1020.58</ele>
        <time>2016-02-23T15:04:01Z</time>
      </trkpt>
      <trkpt lat="44.73836" lon="3.3082">
        <ele>1020.58</ele>
        <time>2016-02-23T15:04:02Z</time>
      </trkpt>
      <trkpt lat="44.73836" lon="3.30818">
        <ele>1020.1</ele>
        <time>2016-02-23T15:04:03Z</time>
      </trkpt>
      <trkpt lat="44.73836" lon="3.30816">
        <ele>1020.1</ele>
        <time>2016-02-23T15:04:04Z</time>
      </trkpt>
      <trkpt lat="44.73836" lon="3.30815">
        <ele>1020.58</ele>
        <time>2016-02-23T15:04:15Z</time>
      </trkpt>
      <trkpt lat="44.73836" lon="3.30814">
        <ele>1020.1</ele>
        <time>2016-02-23T15:04:17Z</time>
      </trkpt>
      <trkpt lat="44.73835" lon="3.30812">
        <ele>1020.58</ele>
        <time>2016-02-23T15:04:19Z</time>
      </trkpt>
      <trkpt lat="44.73836" lon="3.30811">
        <ele>1020.1</ele>
        <time>2016-02-23T15:04:30Z</time>
      </trkpt>
      <trkpt lat="44.73836" lon="3.30811">
        <ele>1020.1</ele>
        <time>2016-02-23T15:04:51Z</time>
      </trkpt>
      <trkpt lat="44.73836" lon="3.30811">
        <ele>1020.58</ele>
        <time>2016-02-23T15:04:53Z</time>
      </trkpt>
      <trkpt lat="44.73844" lon="3.30811">
        <ele>1020.1</ele>
        <time>2016-02-23T15:04:59Z</time>
      </trkpt>
      <trkpt lat="44.7387" lon="3.30823">
        <ele>1018.65</ele>
        <time>2016-02-23T15:05:12Z</time>
      </trkpt>
      <trkpt lat="44.73905" lon="3.30828">
        <ele>1018.17</ele>
        <time>2016-02-23T15:05:26Z</time>
      </trkpt>
      <trkpt lat="44.73916" lon="3.30828">
        <ele>1018.65</ele>
        <time>2016-02-23T15:05:34Z</time>
      </trkpt>
      <trkpt lat="44.73928" lon="3.30833">
        <ele>1019.13</ele>
        <time>2016-02-23T15:05:39Z</time>
      </trkpt>
      <trkpt lat="44.73931" lon="3.30838">
        <ele>1019.62</ele>
        <time>2016-02-23T15:05:43Z</time>
      </trkpt>
      <trkpt lat="44.73923" lon="3.30831">
        <ele>1019.13</ele>
        <time>2016-02-23T15:05:49Z</time>
      </trkpt>
      <trkpt lat="44.73915" lon="3.30824">
        <ele>1018.65</ele>
        <time>2016-02-23T15:05:53Z</time>
      </trkpt>
      <trkpt lat="44.73913" lon="3.30823">
        <ele>1012.89</ele>
        <time>2016-02-23T15:06:08Z</time>
      </trkpt>
      <trkpt lat="44.73913" lon="3.30823">
        <ele>1022.98</ele>
        <time>2016-02-23T15:06:09Z</time>
      </trkpt>
      <trkpt lat="44.73913" lon="3.30823">
        <ele>1018.65</ele>
        <time>2016-02-23T15:06:10Z</time>
      </trkpt>
      <trkpt lat="44.73913" lon="3.30823">
        <ele>1013.37</ele>
        <time>2016-02-23T15:06:19Z</time>
      </trkpt>
      <trkpt lat="44.73913" lon="3.30823">
        <ele>1023.46</ele>
        <time>2016-02-23T15:06:20Z</time>
      </trkpt>
      <trkpt lat="44.73913" lon="3.30823">
        <ele>1016.25</ele>
        <time>2016-02-23T15:06:21Z</time>
      </trkpt>
      <trkpt lat="44.73913" lon="3.30823">
        <ele>1021.06</ele>
        <time>2016-02-23T15:06:22Z</time>
      </trkpt>
      <trkpt lat="44.73913" lon="3.30823">
        <ele>1017.69</ele>
        <time>2016-02-23T15:06:23Z</time>
      </trkpt>
      <trkpt lat="44.73913" lon="3.30823">
        <ele>1019.62</ele>
        <time>2016-02-23T15:06:33Z</time>
      </trkpt>
      <trkpt lat="44.73913" lon="3.30823">
        <ele>1018.17</ele>
        <time>2016-02-23T15:06:35Z</time>
      </trkpt>
      <trkpt lat="44.73898" lon="3.30812">
        <ele>1017.21</ele>
        <time>2016-02-23T15:06:49Z</time>
      </trkpt>
      <trkpt lat="44.73885" lon="3.30802">
        <ele>1015.29</ele>
        <time>2016-02-23T15:06:53Z</time>
      </trkpt>
      <trkpt lat="44.73873" lon="3.30787">
        <ele>1012.89</ele>
        <time>2016-02-23T15:06:57Z</time>
      </trkpt>
      <trkpt lat="44.73872" lon="3.30782">
        <ele>1012.41</ele>
        <time>2016-02-23T15:06:58Z</time>
      </trkpt>
      <trkpt lat="44.73871" lon="3.30776">
        <ele>1012.41</ele>
        <time>2016-02-23T15:06:59Z</time>
      </trkpt>
      <trkpt lat="44.73871" lon="3.30771">
        <ele>1011.93</ele>
        <time>2016-02-23T15:07:00Z</time>
      </trkpt>
      <trkpt lat="44.73871" lon="3.30766">
        <ele>1011.93</ele>
        <time>2016-02-23T15:07:01Z</time>
      </trkpt>
      <trkpt lat="44.73871" lon="3.30761">
        <ele>1011.44</ele>
        <time>2016-02-23T15:07:02Z</time>
      </trkpt>
      <trkpt lat="44.73871" lon="3.30758">
        <ele>1011.44</ele>
        <time>2016-02-23T15:07:03Z</time>
      </trkpt>
      <trkpt lat="44.73872" lon="3.30754">
        <ele>1011.44</ele>
        <time>2016-02-23T15:07:04Z</time>
      </trkpt>
      <trkpt lat="44.73872" lon="3.30752">
        <ele>1011.44</ele>
        <time>2016-02-23T15:07:05Z</time>
      </trkpt>
      <trkpt lat="44.73872" lon="3.30751">
        <ele>1011.44</ele>
        <time>2016-02-23T15:07:16Z</time>
      </trkpt>
      <trkpt lat="44.73872" lon="3.30751">
        <ele>1010.96</ele>
        <time>2016-02-23T15:07:25Z</time>
      </trkpt>
      <trkpt lat="44.73884" lon="3.30748">
        <ele>1009.04</ele>
        <time>2016-02-23T15:07:31Z</time>
      </trkpt>
      <trkpt lat="44.73925" lon="3.30746">
        <ele>1007.6</ele>
        <time>2016-02-23T15:07:45Z</time>
      </trkpt>
      <trkpt lat="44.73953" lon="3.30744">
        <ele>1008.08</ele>
        <time>2016-02-23T15:07:58Z</time>
      </trkpt>
      <trkpt lat="44.73976" lon="3.30747">
        <ele>1009.04</ele>
        <time>2016-02-23T15:08:12Z</time>
      </trkpt>
      <trkpt lat="44.73979" lon="3.30747">
        <ele>1009.52</ele>
        <time>2016-02-23T15:08:26Z</time>
      </trkpt>
      <trkpt lat="44.73979" lon="3.30749">
        <ele>1010</ele>
        <time>2016-02-23T15:08:36Z</time>
      </trkpt>
      <trkpt lat="44.73976" lon="3.30758">
        <ele>1010.48</ele>
        <time>2016-02-23T15:08:43Z</time>
      </trkpt>
      <trkpt lat="44.73978" lon="3.30763">
        <ele>1011.44</ele>
        <time>2016-02-23T15:08:46Z</time>
      </trkpt>
      <trkpt lat="44.73978" lon="3.30771">
        <ele>1012.41</ele>
        <time>2016-02-23T15:08:51Z</time>
      </trkpt>
      <trkpt lat="44.73979" lon="3.3078">
        <ele>1014.81</ele>
        <time>2016-02-23T15:09:02Z</time>
      </trkpt>
      <trkpt lat="44.73979" lon="3.3078">
        <ele>1013.85</ele>
        <time>2016-02-23T15:09:20Z</time>
      </trkpt>
      <trkpt lat="44.73979" lon="3.3078">
        <ele>1014.33</ele>
        <time>2016-02-23T15:09:44Z</time>
      </trkpt>
      <trkpt lat="44.73979" lon="3.30781">
        <ele>1014.81</ele>
        <time>2016-02-23T15:10:00Z</time>
      </trkpt>
      <trkpt lat="44.73983" lon="3.30786">
        <ele>1014.81</ele>
        <time>2016-02-23T15:10:14Z</time>
      </trkpt>
      <trkpt lat="44.73983" lon="3.30786">
        <ele>1015.29</ele>
        <time>2016-02-23T15:10:32Z</time>
      </trkpt>
      <trkpt lat="44.73983" lon="3.30786">
        <ele>1009.52</ele>
        <time>2016-02-23T15:10:38Z</time>
      </trkpt>
      <trkpt lat="44.73983" lon="3.30786">
        <ele>1018.17</ele>
        <time>2016-02-23T15:10:39Z</time>
      </trkpt>
      <trkpt lat="44.73983" lon="3.30786">
        <ele>1014.33</ele>
        <time>2016-02-23T15:10:40Z</time>
      </trkpt>
      <trkpt lat="44.73984" lon="3.30786">
        <ele>1014.33</ele>
        <time>2016-02-23T15:10:46Z</time>
      </trkpt>
      <trkpt lat="44.74003" lon="3.30784">
        <ele>1011.93</ele>
        <time>2016-02-23T15:10:58Z</time>
      </trkpt>
      <trkpt lat="44.74004" lon="3.30784">
        <ele>1011.93</ele>
        <time>2016-02-23T15:10:59Z</time>
      </trkpt>
      <trkpt lat="44.74008" lon="3.30782">
        <ele>1012.41</ele>
        <time>2016-02-23T15:11:01Z</time>
      </trkpt>
      <trkpt lat="44.74015" lon="3.30781">
        <ele>1011.44</ele>
        <time>2016-02-23T15:11:05Z</time>
      </trkpt>
      <trkpt lat="44.74054" lon="3.30779">
        <ele>1010</ele>
        <time>2016-02-23T15:11:19Z</time>
      </trkpt>
      <trkpt lat="44.74063" lon="3.30782">
        <ele>1009.52</ele>
        <time>2016-02-23T15:11:28Z</time>
      </trkpt>
      <trkpt lat="44.74064" lon="3.30781">
        <ele>1009.52</ele>
        <time>2016-02-23T15:11:34Z</time>
      </trkpt>
      <trkpt lat="44.74058" lon="3.30781">
        <ele>1010.48</ele>
        <time>2016-02-23T15:11:46Z</time>
      </trkpt>
      <trkpt lat="44.74056" lon="3.30781">
        <ele>1010.96</ele>
        <time>2016-02-23T15:11:55Z</time>
      </trkpt>
      <trkpt lat="44.74056" lon="3.30781">
        <ele>1010.48</ele>
        <time>2016-02-23T15:12:09Z</time>
      </trkpt>
      <trkpt lat="44.74061" lon="3.30775">
        <ele>1010.48</ele>
        <time>2016-02-23T15:12:17Z</time>
      </trkpt>
      <trkpt lat="44.74061" lon="3.30775">
        <ele>1010.48</ele>
        <time>2016-02-23T15:12:43Z</time>
      </trkpt>
      <trkpt lat="44.74061" lon="3.30775">
        <ele>1010</ele>
        <time>2016-02-23T15:13:15Z</time>
      </trkpt>
      <trkpt lat="44.74062" lon="3.30781">
        <ele>1010.48</ele>
        <time>2016-02-23T15:13:36Z</time>
      </trkpt>
      <trkpt lat="44.74061" lon="3.30781">
        <ele>1010</ele>
        <time>2016-02-23T15:13:47Z</time>
      </trkpt>
      <trkpt lat="44.74061" lon="3.30779">
        <ele>1010</ele>
        <time>2016-02-23T15:13:52Z</time>
      </trkpt>
      <trkpt lat="44.7406" lon="3.30776">
        <ele>1010.48</ele>
        <time>2016-02-23T15:13:55Z</time>
      </trkpt>
      <trkpt lat="44.74051" lon="3.30772">
        <ele>1010.96</ele>
        <time>2016-02-23T15:14:02Z</time>
      </trkpt>
      <trkpt lat="44.74047" lon="3.3077">
        <ele>1010.96</ele>
        <time>2016-02-23T15:14:05Z</time>
      </trkpt>
      <trkpt lat="44.74032" lon="3.30773">
        <ele>1011.93</ele>
        <time>2016-02-23T15:14:15Z</time>
      </trkpt>
      <trkpt lat="44.74027" lon="3.30775">
        <ele>1012.41</ele>
        <time>2016-02-23T15:14:28Z</time>
      </trkpt>
      <trkpt lat="44.74022" lon="3.30778">
        <ele>1012.89</ele>
        <time>2016-02-23T15:14:31Z</time>
      </trkpt>
      <trkpt lat="44.74011" lon="3.30781">
        <ele>1013.37</ele>
        <time>2016-02-23T15:14:42Z</time>
      </trkpt>
      <trkpt lat="44.74023" lon="3.30777">
        <ele>1011.93</ele>
        <time>2016-02-23T15:14:48Z</time>
      </trkpt>
      <trkpt lat="44.74028" lon="3.30775">
        <ele>1011.93</ele>
        <time>2016-02-23T15:14:49Z</time>
      </trkpt>
      <trkpt lat="44.74032" lon="3.30771">
        <ele>1010.96</ele>
        <time>2016-02-23T15:14:50Z</time>
      </trkpt>
      <trkpt lat="44.74037" lon="3.30769">
        <ele>1010.48</ele>
        <time>2016-02-23T15:14:51Z</time>
      </trkpt>
      <trkpt lat="44.74042" lon="3.30769">
        <ele>1010</ele>
        <time>2016-02-23T15:14:52Z</time>
      </trkpt>
      <trkpt lat="44.74045" lon="3.30768">
        <ele>1010</ele>
        <time>2016-02-23T15:14:53Z</time>
      </trkpt>
      <trkpt lat="44.74046" lon="3.30767">
        <ele>1010.48</ele>
        <time>2016-02-23T15:14:54Z</time>
      </trkpt>
      <trkpt lat="44.74046" lon="3.30765">
        <ele>1010.48</ele>
        <time>2016-02-23T15:14:55Z</time>
      </trkpt>
      <trkpt lat="44.74045" lon="3.30764">
        <ele>1010.48</ele>
        <time>2016-02-23T15:14:56Z</time>
      </trkpt>
      <trkpt lat="44.74043" lon="3.30763">
        <ele>1010.48</ele>
        <time>2016-02-23T15:14:57Z</time>
      </trkpt>
      <trkpt lat="44.74042" lon="3.30763">
        <ele>1010.96</ele>
        <time>2016-02-23T15:14:58Z</time>
      </trkpt>
      <trkpt lat="44.74041" lon="3.30764">
        <ele>1010.48</ele>
        <time>2016-02-23T15:14:59Z</time>
      </trkpt>
      <trkpt lat="44.7404" lon="3.30763">
        <ele>1010.96</ele>
        <time>2016-02-23T15:15:00Z</time>
      </trkpt>
      <trkpt lat="44.74039" lon="3.30763">
        <ele>1010.96</ele>
        <time>2016-02-23T15:15:01Z</time>
      </trkpt>
      <trkpt lat="44.74035" lon="3.30763">
        <ele>1010.96</ele>
        <time>2016-02-23T15:15:04Z</time>
      </trkpt>
      <trkpt lat="44.74029" lon="3.30767">
        <ele>1011.44</ele>
        <time>2016-02-23T15:15:10Z</time>
      </trkpt>
      <trkpt lat="44.74028" lon="3.3077">
        <ele>1010.96</ele>
        <time>2016-02-23T15:15:11Z</time>
      </trkpt>
      <trkpt lat="44.74027" lon="3.30772">
        <ele>1011.44</ele>
        <time>2016-02-23T15:15:12Z</time>
      </trkpt>
      <trkpt lat="44.74026" lon="3.30773">
        <ele>1011.93</ele>
        <time>2016-02-23T15:15:13Z</time>
      </trkpt>
      <trkpt lat="44.74025" lon="3.30774">
        <ele>1011.93</ele>
        <time>2016-02-23T15:15:14Z</time>
      </trkpt>
      <trkpt lat="44.74005" lon="3.30781">
        <ele>1012.89</ele>
        <time>2016-02-23T15:15:21Z</time>
      </trkpt>
      <trkpt lat="44.74004" lon="3.3078">
        <ele>1013.37</ele>
        <time>2016-02-23T15:15:22Z</time>
      </trkpt>
      <trkpt lat="44.74002" lon="3.30781">
        <ele>1013.37</ele>
        <time>2016-02-23T15:15:23Z</time>
      </trkpt>
      <trkpt lat="44.74007" lon="3.30783">
        <ele>1012.89</ele>
        <time>2016-02-23T15:15:33Z</time>
      </trkpt>
      <trkpt lat="44.74008" lon="3.30784">
        <ele>1013.37</ele>
        <time>2016-02-23T15:15:47Z</time>
      </trkpt>
      <trkpt lat="44.74008" lon="3.30784">
        <ele>1013.37</ele>
        <time>2016-02-23T15:15:52Z</time>
      </trkpt>
      <trkpt lat="44.7401" lon="3.30783">
        <ele>1012.89</ele>
        <time>2016-02-23T15:15:53Z</time>
      </trkpt>
      <trkpt lat="44.74017" lon="3.3078">
        <ele>1011.93</ele>
        <time>2016-02-23T15:15:55Z</time>
      </trkpt>
      <trkpt lat="44.74022" lon="3.30779">
        <ele>1011.44</ele>
        <time>2016-02-23T15:15:56Z</time>
      </trkpt>
      <trkpt lat="44.74028" lon="3.30776">
        <ele>1010.96</ele>
        <time>2016-02-23T15:15:57Z</time>
      </trkpt>
      <trkpt lat="44.74033" lon="3.30773">
        <ele>1010.48</ele>
        <time>2016-02-23T15:15:58Z</time>
      </trkpt>
      <trkpt lat="44.74038" lon="3.30771">
        <ele>1010.96</ele>
        <time>2016-02-23T15:15:59Z</time>
      </trkpt>
      <trkpt lat="44.74042" lon="3.30771">
        <ele>1010.48</ele>
        <time>2016-02-23T15:16:00Z</time>
      </trkpt>
      <trkpt lat="44.74045" lon="3.30771">
        <ele>1010.48</ele>
        <time>2016-02-23T15:16:01Z</time>
      </trkpt>
      <trkpt lat="44.74047" lon="3.30773">
        <ele>1010.96</ele>
        <time>2016-02-23T15:16:10Z</time>
      </trkpt>
      <trkpt lat="44.74061" lon="3.30782">
        <ele>1009.04</ele>
        <time>2016-02-23T15:16:18Z</time>
      </trkpt>
      <trkpt lat="44.7409" lon="3.30806">
        <ele>1006.64</ele>
        <time>2016-02-23T15:16:28Z</time>
      </trkpt>
      <trkpt lat="44.74097" lon="3.30811">
        <ele>1005.68</ele>
        <time>2016-02-23T15:16:30Z</time>
      </trkpt>
      <trkpt lat="44.74101" lon="3.30814">
        <ele>1004.23</ele>
        <time>2016-02-23T15:16:31Z</time>
      </trkpt>
      <trkpt lat="44.74106" lon="3.30815">
        <ele>1004.23</ele>
        <time>2016-02-23T15:16:32Z</time>
      </trkpt>
      <trkpt lat="44.74112" lon="3.30813">
        <ele>1003.27</ele>
        <time>2016-02-23T15:16:33Z</time>
      </trkpt>
      <trkpt lat="44.74124" lon="3.30806">
        <ele>1002.31</ele>
        <time>2016-02-23T15:16:35Z</time>
      </trkpt>
      <trkpt lat="44.74164" lon="3.30779">
        <ele>1000.39</ele>
        <time>2016-02-23T15:16:42Z</time>
      </trkpt>
      <trkpt lat="44.74173" lon="3.3077">
        <ele>999.43</ele>
        <time>2016-02-23T15:16:44Z</time>
      </trkpt>
      <trkpt lat="44.74176" lon="3.30765">
        <ele>999.91</ele>
        <time>2016-02-23T15:16:45Z</time>
      </trkpt>
      <trkpt lat="44.74179" lon="3.30759">
        <ele>999.91</ele>
        <time>2016-02-23T15:16:46Z</time>
      </trkpt>
      <trkpt lat="44.74185" lon="3.30746">
        <ele>1000.39</ele>
        <time>2016-02-23T15:16:49Z</time>
      </trkpt>
      <trkpt lat="44.74188" lon="3.30744">
        <ele>1000.87</ele>
        <time>2016-02-23T15:16:50Z</time>
      </trkpt>
      <trkpt lat="44.74191" lon="3.30743">
        <ele>1000.87</ele>
        <time>2016-02-23T15:16:51Z</time>
      </trkpt>
      <trkpt lat="44.74194" lon="3.30743">
        <ele>1001.35</ele>
        <time>2016-02-23T15:16:52Z</time>
      </trkpt>
      <trkpt lat="44.74196" lon="3.30741">
        <ele>1001.35</ele>
        <time>2016-02-23T15:16:53Z</time>
      </trkpt>
      <trkpt lat="44.74199" lon="3.3074">
        <ele>1001.35</ele>
        <time>2016-02-23T15:16:54Z</time>
      </trkpt>
      <trkpt lat="44.74209" lon="3.30732">
        <ele>1001.83</ele>
        <time>2016-02-23T15:16:58Z</time>
      </trkpt>
      <trkpt lat="44.74213" lon="3.30731">
        <ele>1001.35</ele>
        <time>2016-02-23T15:16:59Z</time>
      </trkpt>
      <trkpt lat="44.7422" lon="3.30727">
        <ele>1000.87</ele>
        <time>2016-02-23T15:17:01Z</time>
      </trkpt>
      <trkpt lat="44.74224" lon="3.30726">
        <ele>1000.87</ele>
        <time>2016-02-23T15:17:02Z</time>
      </trkpt>
      <trkpt lat="44.74228" lon="3.30723">
        <ele>1000.87</ele>
        <time>2016-02-23T15:17:03Z</time>
      </trkpt>
      <trkpt lat="44.74232" lon="3.30721">
        <ele>1000.87</ele>
        <time>2016-02-23T15:17:04Z</time>
      </trkpt>
      <trkpt lat="44.74235" lon="3.30719">
        <ele>1000.39</ele>
        <time>2016-02-23T15:17:05Z</time>
      </trkpt>
      <trkpt lat="44.74239" lon="3.30717">
        <ele>1000.39</ele>
        <time>2016-02-23T15:17:06Z</time>
      </trkpt>
      <trkpt lat="44.74242" lon="3.30714">
        <ele>999.91</ele>
        <time>2016-02-23T15:17:07Z</time>
      </trkpt>
      <trkpt lat="44.74268" lon="3.30704">
        <ele>998.47</ele>
        <time>2016-02-23T15:17:16Z</time>
      </trkpt>
      <trkpt lat="44.74272" lon="3.30706">
        <ele>997.99</ele>
        <time>2016-02-23T15:17:17Z</time>
      </trkpt>
      <trkpt lat="44.74276" lon="3.30706">
        <ele>996.54</ele>
        <time>2016-02-23T15:17:18Z</time>
      </trkpt>
      <trkpt lat="44.7428" lon="3.30707">
        <ele>995.58</ele>
        <time>2016-02-23T15:17:19Z</time>
      </trkpt>
      <trkpt lat="44.74285" lon="3.30706">
        <ele>994.62</ele>
        <time>2016-02-23T15:17:20Z</time>
      </trkpt>
      <trkpt lat="44.7429" lon="3.30704">
        <ele>993.66</ele>
        <time>2016-02-23T15:17:21Z</time>
      </trkpt>
      <trkpt lat="44.74296" lon="3.30701">
        <ele>992.22</ele>
        <time>2016-02-23T15:17:22Z</time>
      </trkpt>
      <trkpt lat="44.74309" lon="3.30693">
        <ele>988.85</ele>
        <time>2016-02-23T15:17:24Z</time>
      </trkpt>
      <trkpt lat="44.74329" lon="3.30684">
        <ele>985.01</ele>
        <time>2016-02-23T15:17:27Z</time>
      </trkpt>
      <trkpt lat="44.7435" lon="3.30677">
        <ele>980.68</ele>
        <time>2016-02-23T15:17:30Z</time>
      </trkpt>
      <trkpt lat="44.74374" lon="3.30667">
        <ele>978.28</ele>
        <time>2016-02-23T15:17:33Z</time>
      </trkpt>
      <trkpt lat="44.74382" lon="3.30667">
        <ele>977.8</ele>
        <time>2016-02-23T15:17:34Z</time>
      </trkpt>
      <trkpt lat="44.7439" lon="3.30667">
        <ele>976.84</ele>
        <time>2016-02-23T15:17:35Z</time>
      </trkpt>
      <trkpt lat="44.74397" lon="3.30665">
        <ele>975.88</ele>
        <time>2016-02-23T15:17:36Z</time>
      </trkpt>
      <trkpt lat="44.74405" lon="3.30661">
        <ele>974.91</ele>
        <time>2016-02-23T15:17:37Z</time>
      </trkpt>
      <trkpt lat="44.74412" lon="3.30656">
        <ele>974.43</ele>
        <time>2016-02-23T15:17:38Z</time>
      </trkpt>
      <trkpt lat="44.74419" lon="3.30652">
        <ele>973.47</ele>
        <time>2016-02-23T15:17:39Z</time>
      </trkpt>
      <trkpt lat="44.74425" lon="3.30648">
        <ele>973.47</ele>
        <time>2016-02-23T15:17:40Z</time>
      </trkpt>
      <trkpt lat="44.74431" lon="3.30646">
        <ele>972.51</ele>
        <time>2016-02-23T15:17:41Z</time>
      </trkpt>
      <trkpt lat="44.74438" lon="3.30647">
        <ele>972.51</ele>
        <time>2016-02-23T15:17:42Z</time>
      </trkpt>
      <trkpt lat="44.74444" lon="3.30648">
        <ele>972.03</ele>
        <time>2016-02-23T15:17:43Z</time>
      </trkpt>
      <trkpt lat="44.7445" lon="3.30649">
        <ele>971.55</ele>
        <time>2016-02-23T15:17:44Z</time>
      </trkpt>
      <trkpt lat="44.74463" lon="3.3065">
        <ele>971.07</ele>
        <time>2016-02-23T15:17:46Z</time>
      </trkpt>
      <trkpt lat="44.74479" lon="3.30653">
        <ele>970.59</ele>
        <time>2016-02-23T15:17:49Z</time>
      </trkpt>
      <trkpt lat="44.74483" lon="3.30653">
        <ele>970.59</ele>
        <time>2016-02-23T15:17:50Z</time>
      </trkpt>
      <trkpt lat="44.74487" lon="3.30654">
        <ele>971.07</ele>
        <time>2016-02-23T15:17:52Z</time>
      </trkpt>
      <trkpt lat="44.74489" lon="3.30654">
        <ele>972.03</ele>
        <time>2016-02-23T15:17:53Z</time>
      </trkpt>
      <trkpt lat="44.74491" lon="3.30655">
        <ele>972.03</ele>
        <time>2016-02-23T15:17:54Z</time>
      </trkpt>
      <trkpt lat="44.74493" lon="3.30655">
        <ele>972.03</ele>
        <time>2016-02-23T15:17:55Z</time>
      </trkpt>
      <trkpt lat="44.74496" lon="3.30655">
        <ele>971.55</ele>
        <time>2016-02-23T15:17:56Z</time>
      </trkpt>
      <trkpt lat="44.74498" lon="3.30656">
        <ele>971.07</ele>
        <time>2016-02-23T15:17:57Z</time>
      </trkpt>
      <trkpt lat="44.74527" lon="3.30656">
        <ele>972.51</ele>
        <time>2016-02-23T15:18:09Z</time>
      </trkpt>
      <trkpt lat="44.74561" lon="3.30652">
        <ele>972.51</ele>
        <time>2016-02-23T15:18:21Z</time>
      </trkpt>
      <trkpt lat="44.74606" lon="3.30638">
        <ele>971.07</ele>
        <time>2016-02-23T15:18:34Z</time>
      </trkpt>
      <trkpt lat="44.74627" lon="3.3063">
        <ele>969.15</ele>
        <time>2016-02-23T15:18:39Z</time>
      </trkpt>
      <trkpt lat="44.74632" lon="3.3063">
        <ele>968.67</ele>
        <time>2016-02-23T15:18:40Z</time>
      </trkpt>
      <trkpt lat="44.74647" lon="3.30626">
        <ele>967.22</ele>
        <time>2016-02-23T15:18:43Z</time>
      </trkpt>
      <trkpt lat="44.74651" lon="3.30625">
        <ele>967.22</ele>
        <time>2016-02-23T15:18:44Z</time>
      </trkpt>
      <trkpt lat="44.74654" lon="3.30625">
        <ele>967.7</ele>
        <time>2016-02-23T15:18:45Z</time>
      </trkpt>
      <trkpt lat="44.74656" lon="3.30625">
        <ele>967.7</ele>
        <time>2016-02-23T15:18:46Z</time>
      </trkpt>
      <trkpt lat="44.74658" lon="3.30624">
        <ele>967.22</ele>
        <time>2016-02-23T15:18:47Z</time>
      </trkpt>
      <trkpt lat="44.74659" lon="3.30623">
        <ele>967.22</ele>
        <time>2016-02-23T15:18:48Z</time>
      </trkpt>
      <trkpt lat="44.74661" lon="3.30621">
        <ele>967.22</ele>
        <time>2016-02-23T15:18:49Z</time>
      </trkpt>
      <trkpt lat="44.74664" lon="3.3062">
        <ele>966.26</ele>
        <time>2016-02-23T15:18:50Z</time>
      </trkpt>
      <trkpt lat="44.74667" lon="3.30618">
        <ele>965.78</ele>
        <time>2016-02-23T15:18:51Z</time>
      </trkpt>
      <trkpt lat="44.7467" lon="3.30616">
        <ele>965.78</ele>
        <time>2016-02-23T15:18:52Z</time>
      </trkpt>
      <trkpt lat="44.74674" lon="3.30613">
        <ele>965.3</ele>
        <time>2016-02-23T15:18:53Z</time>
      </trkpt>
      <trkpt lat="44.74676" lon="3.30611">
        <ele>965.3</ele>
        <time>2016-02-23T15:18:54Z</time>
      </trkpt>
      <trkpt lat="44.74678" lon="3.3061">
        <ele>965.3</ele>
        <time>2016-02-23T15:18:55Z</time>
      </trkpt>
      <trkpt lat="44.74681" lon="3.30606">
        <ele>964.34</ele>
        <time>2016-02-23T15:19:08Z</time>
      </trkpt>
      <trkpt lat="44.74681" lon="3.30606">
        <ele>964.34</ele>
        <time>2016-02-23T15:19:28Z</time>
      </trkpt>
      <trkpt lat="44.74686" lon="3.30603">
        <ele>964.82</ele>
        <time>2016-02-23T15:19:44Z</time>
      </trkpt>
      <trkpt lat="44.74686" lon="3.30602">
        <ele>963.86</ele>
        <time>2016-02-23T15:19:55Z</time>
      </trkpt>
      <trkpt lat="44.74689" lon="3.30598">
        <ele>964.82</ele>
        <time>2016-02-23T15:20:13Z</time>
      </trkpt>
      <trkpt lat="44.74689" lon="3.30598">
        <ele>964.34</ele>
        <time>2016-02-23T15:20:44Z</time>
      </trkpt>
      <trkpt lat="44.74689" lon="3.30599">
        <ele>964.82</ele>
        <time>2016-02-23T15:21:24Z</time>
      </trkpt>
      <trkpt lat="44.7469" lon="3.30595">
        <ele>964.82</ele>
        <time>2016-02-23T15:21:31Z</time>
      </trkpt>
      <trkpt lat="44.7469" lon="3.30592">
        <ele>964.34</ele>
        <time>2016-02-23T15:21:32Z</time>
      </trkpt>
      <trkpt lat="44.74691" lon="3.30589">
        <ele>964.34</ele>
        <time>2016-02-23T15:21:33Z</time>
      </trkpt>
      <trkpt lat="44.74693" lon="3.30586">
        <ele>964.34</ele>
        <time>2016-02-23T15:21:34Z</time>
      </trkpt>
      <trkpt lat="44.74694" lon="3.30582">
        <ele>964.34</ele>
        <time>2016-02-23T15:21:35Z</time>
      </trkpt>
      <trkpt lat="44.74706" lon="3.30559">
        <ele>964.34</ele>
        <time>2016-02-23T15:21:41Z</time>
      </trkpt>
      <trkpt lat="44.74709" lon="3.30559">
        <ele>964.82</ele>
        <time>2016-02-23T15:21:42Z</time>
      </trkpt>
      <trkpt lat="44.74712" lon="3.3056">
        <ele>964.34</ele>
        <time>2016-02-23T15:21:43Z</time>
      </trkpt>
      <trkpt lat="44.74716" lon="3.3056">
        <ele>964.34</ele>
        <time>2016-02-23T15:21:44Z</time>
      </trkpt>
      <trkpt lat="44.74719" lon="3.3056">
        <ele>964.34</ele>
        <time>2016-02-23T15:21:45Z</time>
      </trkpt>
      <trkpt lat="44.74723" lon="3.3056">
        <ele>964.34</ele>
        <time>2016-02-23T15:21:46Z</time>
      </trkpt>
      <trkpt lat="44.74726" lon="3.3056">
        <ele>964.34</ele>
        <time>2016-02-23T15:21:47Z</time>
      </trkpt>
      <trkpt lat="44.74767" lon="3.30545">
        <ele>961.94</ele>
        <time>2016-02-23T15:22:00Z</time>
      </trkpt>
      <trkpt lat="44.74811" lon="3.30527">
        <ele>961.46</ele>
        <time>2016-02-23T15:22:13Z</time>
      </trkpt>
      <trkpt lat="44.74846" lon="3.30524">
        <ele>960.98</ele>
        <time>2016-02-23T15:22:24Z</time>
      </trkpt>
      <trkpt lat="44.74881" lon="3.30527">
        <ele>961.46</ele>
        <time>2016-02-23T15:22:36Z</time>
      </trkpt>
      <trkpt lat="44.74909" lon="3.30535">
        <ele>959.53</ele>
        <time>2016-02-23T15:22:47Z</time>
      </trkpt>
      <trkpt lat="44.74949" lon="3.30518">
        <ele>959.53</ele>
        <time>2016-02-23T15:22:58Z</time>
      </trkpt>
      <trkpt lat="44.74964" lon="3.3051">
        <ele>961.46</ele>
        <time>2016-02-23T15:23:03Z</time>
      </trkpt>
      <trkpt lat="44.74978" lon="3.30507">
        <ele>962.42</ele>
        <time>2016-02-23T15:23:13Z</time>
      </trkpt>
      <trkpt lat="44.74997" lon="3.30503">
        <ele>961.94</ele>
        <time>2016-02-23T15:23:22Z</time>
      </trkpt>
      <trkpt lat="44.7501" lon="3.30501">
        <ele>961.94</ele>
        <time>2016-02-23T15:23:28Z</time>
      </trkpt>
      <trkpt lat="44.75041" lon="3.30484">
        <ele>960.01</ele>
        <time>2016-02-23T15:23:39Z</time>
      </trkpt>
      <trkpt lat="44.75054" lon="3.30477">
        <ele>960.01</ele>
        <time>2016-02-23T15:23:51Z</time>
      </trkpt>
      <trkpt lat="44.75054" lon="3.30477">
        <ele>959.53</ele>
        <time>2016-02-23T15:24:08Z</time>
      </trkpt>
      <trkpt lat="44.75055" lon="3.30476">
        <ele>960.01</ele>
        <time>2016-02-23T15:24:36Z</time>
      </trkpt>
      <trkpt lat="44.75057" lon="3.30474">
        <ele>959.53</ele>
        <time>2016-02-23T15:24:48Z</time>
      </trkpt>
      <trkpt lat="44.75058" lon="3.30474">
        <ele>960.01</ele>
        <time>2016-02-23T15:25:02Z</time>
      </trkpt>
      <trkpt lat="44.75061" lon="3.30477">
        <ele>959.53</ele>
        <time>2016-02-23T15:25:15Z</time>
      </trkpt>
      <trkpt lat="44.75065" lon="3.30476">
        <ele>959.53</ele>
        <time>2016-02-23T15:25:30Z</time>
      </trkpt>
      <trkpt lat="44.75083" lon="3.3047">
        <ele>960.01</ele>
        <time>2016-02-23T15:25:36Z</time>
      </trkpt>
      <trkpt lat="44.75109" lon="3.3045">
        <ele>960.98</ele>
        <time>2016-02-23T15:25:46Z</time>
      </trkpt>
      <trkpt lat="44.75112" lon="3.30448">
        <ele>960.98</ele>
        <time>2016-02-23T15:25:51Z</time>
      </trkpt>
      <trkpt lat="44.75119" lon="3.30437">
        <ele>961.46</ele>
        <time>2016-02-23T15:25:55Z</time>
      </trkpt>
      <trkpt lat="44.7514" lon="3.304">
        <ele>964.34</ele>
        <time>2016-02-23T15:26:05Z</time>
      </trkpt>
      <trkpt lat="44.75141" lon="3.30394">
        <ele>964.34</ele>
        <time>2016-02-23T15:26:07Z</time>
      </trkpt>
      <trkpt lat="44.75137" lon="3.30385">
        <ele>965.3</ele>
        <time>2016-02-23T15:26:11Z</time>
      </trkpt>
      <trkpt lat="44.75128" lon="3.30372">
        <ele>965.78</ele>
        <time>2016-02-23T15:26:19Z</time>
      </trkpt>
      <trkpt lat="44.75118" lon="3.30356">
        <ele>962.9</ele>
        <time>2016-02-23T15:26:24Z</time>
      </trkpt>
      <trkpt lat="44.75114" lon="3.3035">
        <ele>962.42</ele>
        <time>2016-02-23T15:26:25Z</time>
      </trkpt>
      <trkpt lat="44.75109" lon="3.30345">
        <ele>961.46</ele>
        <time>2016-02-23T15:26:26Z</time>
      </trkpt>
      <trkpt lat="44.75105" lon="3.3034">
        <ele>960.98</ele>
        <time>2016-02-23T15:26:27Z</time>
      </trkpt>
      <trkpt lat="44.75101" lon="3.30334">
        <ele>960.98</ele>
        <time>2016-02-23T15:26:28Z</time>
      </trkpt>
      <trkpt lat="44.75099" lon="3.30326">
        <ele>960.01</ele>
        <time>2016-02-23T15:26:29Z</time>
      </trkpt>
      <trkpt lat="44.75099" lon="3.30319">
        <ele>959.53</ele>
        <time>2016-02-23T15:26:30Z</time>
      </trkpt>
      <trkpt lat="44.75098" lon="3.30313">
        <ele>959.05</ele>
        <time>2016-02-23T15:26:31Z</time>
      </trkpt>
      <trkpt lat="44.75098" lon="3.30306">
        <ele>958.57</ele>
        <time>2016-02-23T15:26:32Z</time>
      </trkpt>
      <trkpt lat="44.75097" lon="3.30299">
        <ele>958.57</ele>
        <time>2016-02-23T15:26:33Z</time>
      </trkpt>
      <trkpt lat="44.75097" lon="3.30293">
        <ele>958.09</ele>
        <time>2016-02-23T15:26:34Z</time>
      </trkpt>
      <trkpt lat="44.75089" lon="3.30262">
        <ele>957.13</ele>
        <time>2016-02-23T15:26:39Z</time>
      </trkpt>
      <trkpt lat="44.75088" lon="3.30256">
        <ele>957.13</ele>
        <time>2016-02-23T15:26:40Z</time>
      </trkpt>
      <trkpt lat="44.75077" lon="3.30206">
        <ele>959.53</ele>
        <time>2016-02-23T15:26:51Z</time>
      </trkpt>
      <trkpt lat="44.75078" lon="3.30169">
        <ele>960.01</ele>
        <time>2016-02-23T15:27:02Z</time>
      </trkpt>
      <trkpt lat="44.75085" lon="3.30118">
        <ele>960.49</ele>
        <time>2016-02-23T15:27:15Z</time>
      </trkpt>
      <trkpt lat="44.751" lon="3.3008">
        <ele>960.49</ele>
        <time>2016-02-23T15:27:25Z</time>
      </trkpt>
      <trkpt lat="44.75105" lon="3.30062">
        <ele>960.98</ele>
        <time>2016-02-23T15:27:31Z</time>
      </trkpt>
      <trkpt lat="44.75113" lon="3.30052">
        <ele>960.98</ele>
        <time>2016-02-23T15:27:41Z</time>
      </trkpt>
      <trkpt lat="44.75133" lon="3.30027">
        <ele>960.49</ele>
        <time>2016-02-23T15:27:48Z</time>
      </trkpt>
      <trkpt lat="44.75135" lon="3.30021">
        <ele>960.49</ele>
        <time>2016-02-23T15:27:49Z</time>
      </trkpt>
      <trkpt lat="44.75136" lon="3.30015">
        <ele>960.49</ele>
        <time>2016-02-23T15:27:50Z</time>
      </trkpt>
      <trkpt lat="44.75138" lon="3.30008">
        <ele>960.01</ele>
        <time>2016-02-23T15:27:51Z</time>
      </trkpt>
      <trkpt lat="44.7514" lon="3.30002">
        <ele>959.53</ele>
        <time>2016-02-23T15:27:52Z</time>
      </trkpt>
      <trkpt lat="44.75141" lon="3.29996">
        <ele>959.53</ele>
        <time>2016-02-23T15:27:53Z</time>
      </trkpt>
      <trkpt lat="44.75151" lon="3.2998">
        <ele>960.98</ele>
        <time>2016-02-23T15:27:59Z</time>
      </trkpt>
      <trkpt lat="44.75155" lon="3.2998">
        <ele>961.46</ele>
        <time>2016-02-23T15:28:04Z</time>
      </trkpt>
      <trkpt lat="44.75155" lon="3.29983">
        <ele>961.46</ele>
        <time>2016-02-23T15:28:06Z</time>
      </trkpt>
      <trkpt lat="44.75155" lon="3.29985">
        <ele>960.98</ele>
        <time>2016-02-23T15:28:07Z</time>
      </trkpt>
      <trkpt lat="44.75155" lon="3.29987">
        <ele>960.98</ele>
        <time>2016-02-23T15:28:08Z</time>
      </trkpt>
      <trkpt lat="44.75155" lon="3.29989">
        <ele>960.98</ele>
        <time>2016-02-23T15:28:09Z</time>
      </trkpt>
      <trkpt lat="44.75155" lon="3.29991">
        <ele>960.98</ele>
        <time>2016-02-23T15:28:10Z</time>
      </trkpt>
      <trkpt lat="44.75156" lon="3.29993">
        <ele>960.98</ele>
        <time>2016-02-23T15:28:11Z</time>
      </trkpt>
      <trkpt lat="44.75156" lon="3.29994">
        <ele>960.49</ele>
        <time>2016-02-23T15:28:12Z</time>
      </trkpt>
      <trkpt lat="44.75156" lon="3.29995">
        <ele>960.49</ele>
        <time>2016-02-23T15:28:13Z</time>
      </trkpt>
      <trkpt lat="44.75156" lon="3.29997">
        <ele>960.49</ele>
        <time>2016-02-23T15:28:14Z</time>
      </trkpt>
      <trkpt lat="44.75165" lon="3.30025">
        <ele>959.05</ele>
        <time>2016-02-23T15:28:26Z</time>
      </trkpt>
      <trkpt lat="44.75165" lon="3.30027">
        <ele>959.05</ele>
        <time>2016-02-23T15:28:38Z</time>
      </trkpt>
      <trkpt lat="44.75167" lon="3.30025">
        <ele>959.05</ele>
        <time>2016-02-23T15:28:39Z</time>
      </trkpt>
      <trkpt lat="44.75168" lon="3.30023">
        <ele>959.05</ele>
        <time>2016-02-23T15:28:40Z</time>
      </trkpt>
      <trkpt lat="44.75167" lon="3.30019">
        <ele>958.57</ele>
        <time>2016-02-23T15:28:51Z</time>
      </trkpt>
      <trkpt lat="44.75167" lon="3.30019">
        <ele>959.53</ele>
        <time>2016-02-23T15:29:15Z</time>
      </trkpt>
      <trkpt lat="44.75166" lon="3.30016">
        <ele>959.53</ele>
        <time>2016-02-23T15:29:18Z</time>
      </trkpt>
      <trkpt lat="44.75165" lon="3.30013">
        <ele>959.53</ele>
        <time>2016-02-23T15:29:19Z</time>
      </trkpt>
      <trkpt lat="44.75164" lon="3.30009">
        <ele>959.05</ele>
        <time>2016-02-23T15:29:20Z</time>
      </trkpt>
      <trkpt lat="44.75162" lon="3.30004">
        <ele>959.05</ele>
        <time>2016-02-23T15:29:21Z</time>
      </trkpt>
      <trkpt lat="44.7516" lon="3.29998">
        <ele>959.53</ele>
        <time>2016-02-23T15:29:22Z</time>
      </trkpt>
      <trkpt lat="44.75157" lon="3.29993">
        <ele>959.53</ele>
        <time>2016-02-23T15:29:23Z</time>
      </trkpt>
      <trkpt lat="44.75154" lon="3.29988">
        <ele>960.01</ele>
        <time>2016-02-23T15:29:24Z</time>
      </trkpt>
      <trkpt lat="44.7515" lon="3.29983">
        <ele>960.98</ele>
        <time>2016-02-23T15:29:26Z</time>
      </trkpt>
      <trkpt lat="44.75148" lon="3.29982">
        <ele>961.46</ele>
        <time>2016-02-23T15:29:27Z</time>
      </trkpt>
      <trkpt lat="44.75145" lon="3.29983">
        <ele>960.98</ele>
        <time>2016-02-23T15:29:28Z</time>
      </trkpt>
      <trkpt lat="44.75144" lon="3.29985">
        <ele>961.46</ele>
        <time>2016-02-23T15:29:29Z</time>
      </trkpt>
      <trkpt lat="44.75142" lon="3.29988">
        <ele>960.98</ele>
        <time>2016-02-23T15:29:30Z</time>
      </trkpt>
      <trkpt lat="44.7514" lon="3.2999">
        <ele>960.98</ele>
        <time>2016-02-23T15:29:31Z</time>
      </trkpt>
      <trkpt lat="44.75125" lon="3.30031">
        <ele>960.98</ele>
        <time>2016-02-23T15:29:41Z</time>
      </trkpt>
      <trkpt lat="44.75105" lon="3.30054">
        <ele>961.46</ele>
        <time>2016-02-23T15:29:52Z</time>
      </trkpt>
      <trkpt lat="44.75101" lon="3.30061">
        <ele>961.46</ele>
        <time>2016-02-23T15:29:56Z</time>
      </trkpt>
      <trkpt lat="44.75099" lon="3.30062">
        <ele>961.46</ele>
        <time>2016-02-23T15:29:57Z</time>
      </trkpt>
      <trkpt lat="44.75099" lon="3.30063">
        <ele>961.46</ele>
        <time>2016-02-23T15:30:11Z</time>
      </trkpt>
      <trkpt lat="44.75096" lon="3.30063">
        <ele>961.94</ele>
        <time>2016-02-23T15:30:22Z</time>
      </trkpt>
      <trkpt lat="44.75095" lon="3.30064">
        <ele>962.42</ele>
        <time>2016-02-23T15:30:43Z</time>
      </trkpt>
      <trkpt lat="44.75095" lon="3.30064">
        <ele>956.17</ele>
        <time>2016-02-23T15:30:44Z</time>
      </trkpt>
      <trkpt lat="44.75095" lon="3.30064">
        <ele>965.78</ele>
        <time>2016-02-23T15:30:45Z</time>
      </trkpt>
      <trkpt lat="44.75095" lon="3.30064">
        <ele>961.94</ele>
        <time>2016-02-23T15:30:46Z</time>
      </trkpt>
      <trkpt lat="44.75095" lon="3.30064">
        <ele>962.42</ele>
        <time>2016-02-23T15:31:02Z</time>
      </trkpt>
      <trkpt lat="44.75095" lon="3.30064">
        <ele>962.42</ele>
        <time>2016-02-23T15:31:09Z</time>
      </trkpt>
      <trkpt lat="44.75094" lon="3.30065">
        <ele>962.42</ele>
        <time>2016-02-23T15:31:10Z</time>
      </trkpt>
      <trkpt lat="44.75092" lon="3.30066">
        <ele>962.42</ele>
        <time>2016-02-23T15:31:11Z</time>
      </trkpt>
      <trkpt lat="44.75075" lon="3.30068">
        <ele>964.34</ele>
        <time>2016-02-23T15:31:23Z</time>
      </trkpt>
      <trkpt lat="44.75073" lon="3.30068">
        <ele>964.34</ele>
        <time>2016-02-23T15:31:24Z</time>
      </trkpt>
      <trkpt lat="44.75066" lon="3.30066">
        <ele>965.78</ele>
        <time>2016-02-23T15:31:35Z</time>
      </trkpt>
      <trkpt lat="44.75063" lon="3.30065">
        <ele>966.26</ele>
        <time>2016-02-23T15:31:41Z</time>
      </trkpt>
      <trkpt lat="44.75059" lon="3.3006">
        <ele>967.22</ele>
        <time>2016-02-23T15:31:52Z</time>
      </trkpt>
      <trkpt lat="44.75054" lon="3.30054">
        <ele>968.67</ele>
        <time>2016-02-23T15:32:06Z</time>
      </trkpt>
      <trkpt lat="44.75053" lon="3.30051">
        <ele>967.7</ele>
        <time>2016-02-23T15:32:23Z</time>
      </trkpt>
      <trkpt lat="44.75053" lon="3.30051">
        <ele>974.91</ele>
        <time>2016-02-23T15:32:25Z</time>
      </trkpt>
      <trkpt lat="44.75053" lon="3.30051">
        <ele>969.15</ele>
        <time>2016-02-23T15:32:26Z</time>
      </trkpt>
      <trkpt lat="44.75049" lon="3.30045">
        <ele>969.63</ele>
        <time>2016-02-23T15:32:45Z</time>
      </trkpt>
      <trkpt lat="44.75046" lon="3.3004">
        <ele>970.11</ele>
        <time>2016-02-23T15:32:56Z</time>
      </trkpt>
      <trkpt lat="44.75043" lon="3.30035">
        <ele>971.07</ele>
        <time>2016-02-23T15:33:15Z</time>
      </trkpt>
      <trkpt lat="44.75042" lon="3.30032">
        <ele>971.07</ele>
        <time>2016-02-23T15:33:24Z</time>
      </trkpt>
      <trkpt lat="44.7504" lon="3.30031">
        <ele>971.07</ele>
        <time>2016-02-23T15:33:31Z</time>
      </trkpt>
      <trkpt lat="44.75039" lon="3.30029">
        <ele>971.55</ele>
        <time>2016-02-23T15:33:33Z</time>
      </trkpt>
      <trkpt lat="44.75033" lon="3.30024">
        <ele>972.51</ele>
        <time>2016-02-23T15:33:42Z</time>
      </trkpt>
      <trkpt lat="44.75032" lon="3.30019">
        <ele>972.51</ele>
        <time>2016-02-23T15:33:45Z</time>
      </trkpt>
      <trkpt lat="44.7503" lon="3.30011">
        <ele>973.95</ele>
        <time>2016-02-23T15:33:57Z</time>
      </trkpt>
      <trkpt lat="44.7503" lon="3.30007">
        <ele>974.43</ele>
        <time>2016-02-23T15:34:19Z</time>
      </trkpt>
      <trkpt lat="44.7503" lon="3.30006">
        <ele>974.43</ele>
        <time>2016-02-23T15:34:28Z</time>
      </trkpt>
      <trkpt lat="44.75032" lon="3.30004">
        <ele>973.95</ele>
        <time>2016-02-23T15:34:30Z</time>
      </trkpt>
      <trkpt lat="44.7505" lon="3.30002">
        <ele>973.47</ele>
        <time>2016-02-23T15:34:39Z</time>
      </trkpt>
      <trkpt lat="44.75051" lon="3.30003">
        <ele>972.99</ele>
        <time>2016-02-23T15:34:40Z</time>
      </trkpt>
      <trkpt lat="44.75067" lon="3.30023">
        <ele>970.59</ele>
        <time>2016-02-23T15:34:52Z</time>
      </trkpt>
      <trkpt lat="44.75073" lon="3.30034">
        <ele>967.7</ele>
        <time>2016-02-23T15:34:55Z</time>
      </trkpt>
      <trkpt lat="44.75077" lon="3.3004">
        <ele>966.74</ele>
        <time>2016-02-23T15:34:57Z</time>
      </trkpt>
      <trkpt lat="44.75081" lon="3.30046">
        <ele>965.3</ele>
        <time>2016-02-23T15:35:05Z</time>
      </trkpt>
      <trkpt lat="44.75081" lon="3.30046">
        <ele>964.82</ele>
        <time>2016-02-23T15:35:10Z</time>
      </trkpt>
      <trkpt lat="44.75079" lon="3.30047">
        <ele>965.3</ele>
        <time>2016-02-23T15:35:22Z</time>
      </trkpt>
      <trkpt lat="44.75078" lon="3.30057">
        <ele>964.34</ele>
        <time>2016-02-23T15:35:28Z</time>
      </trkpt>
      <trkpt lat="44.75078" lon="3.30069">
        <ele>963.86</ele>
        <time>2016-02-23T15:35:34Z</time>
      </trkpt>
      <trkpt lat="44.75081" lon="3.30069">
        <ele>963.38</ele>
        <time>2016-02-23T15:35:36Z</time>
      </trkpt>
      <trkpt lat="44.75097" lon="3.30064">
        <ele>961.94</ele>
        <time>2016-02-23T15:35:47Z</time>
      </trkpt>
      <trkpt lat="44.751" lon="3.30063">
        <ele>961.94</ele>
        <time>2016-02-23T15:35:57Z</time>
      </trkpt>
      <trkpt lat="44.751" lon="3.30063">
        <ele>955.21</ele>
        <time>2016-02-23T15:36:00Z</time>
      </trkpt>
      <trkpt lat="44.751" lon="3.30063">
        <ele>968.18</ele>
        <time>2016-02-23T15:36:01Z</time>
      </trkpt>
      <trkpt lat="44.751" lon="3.30063">
        <ele>965.3</ele>
        <time>2016-02-23T15:36:02Z</time>
      </trkpt>
      <trkpt lat="44.751" lon="3.30063">
        <ele>956.65</ele>
        <time>2016-02-23T15:36:03Z</time>
      </trkpt>
      <trkpt lat="44.751" lon="3.30063">
        <ele>969.63</ele>
        <time>2016-02-23T15:36:04Z</time>
      </trkpt>
      <trkpt lat="44.751" lon="3.30063">
        <ele>954.25</ele>
        <time>2016-02-23T15:36:05Z</time>
      </trkpt>
      <trkpt lat="44.751" lon="3.30063">
        <ele>965.78</ele>
        <time>2016-02-23T15:36:06Z</time>
      </trkpt>
      <trkpt lat="44.751" lon="3.30063">
        <ele>962.42</ele>
        <time>2016-02-23T15:36:08Z</time>
      </trkpt>
      <trkpt lat="44.75102" lon="3.30063">
        <ele>961.94</ele>
        <time>2016-02-23T15:36:18Z</time>
      </trkpt>
      <trkpt lat="44.75127" lon="3.30034">
        <ele>960.98</ele>
        <time>2016-02-23T15:36:32Z</time>
      </trkpt>
      <trkpt lat="44.75137" lon="3.30011">
        <ele>960.98</ele>
        <time>2016-02-23T15:36:39Z</time>
      </trkpt>
      <trkpt lat="44.75148" lon="3.2998">
        <ele>960.98</ele>
        <time>2016-02-23T15:36:49Z</time>
      </trkpt>
      <trkpt lat="44.75153" lon="3.29971">
        <ele>961.94</ele>
        <time>2016-02-23T15:36:53Z</time>
      </trkpt>
      <trkpt lat="44.75155" lon="3.29951">
        <ele>962.9</ele>
        <time>2016-02-23T15:36:59Z</time>
      </trkpt>
      <trkpt lat="44.75166" lon="3.29914">
        <ele>964.82</ele>
        <time>2016-02-23T15:37:11Z</time>
      </trkpt>
      <trkpt lat="44.75173" lon="3.29872">
        <ele>966.74</ele>
        <time>2016-02-23T15:37:25Z</time>
      </trkpt>
      <trkpt lat="44.75174" lon="3.29852">
        <ele>967.7</ele>
        <time>2016-02-23T15:37:32Z</time>
      </trkpt>
      <trkpt lat="44.75177" lon="3.29837">
        <ele>968.18</ele>
        <time>2016-02-23T15:37:37Z</time>
      </trkpt>
      <trkpt lat="44.75182" lon="3.2979">
        <ele>969.63</ele>
        <time>2016-02-23T15:37:52Z</time>
      </trkpt>
      <trkpt lat="44.7519" lon="3.29747">
        <ele>971.55</ele>
        <time>2016-02-23T15:38:06Z</time>
      </trkpt>
      <trkpt lat="44.75193" lon="3.29712">
        <ele>972.99</ele>
        <time>2016-02-23T15:38:19Z</time>
      </trkpt>
      <trkpt lat="44.75192" lon="3.29699">
        <ele>973.95</ele>
        <time>2016-02-23T15:38:24Z</time>
      </trkpt>
      <trkpt lat="44.75192" lon="3.29692">
        <ele>973.95</ele>
        <time>2016-02-23T15:38:28Z</time>
      </trkpt>
      <trkpt lat="44.75174" lon="3.29686">
        <ele>973.95</ele>
        <time>2016-02-23T15:38:39Z</time>
      </trkpt>
      <trkpt lat="44.75143" lon="3.29675">
        <ele>976.84</ele>
        <time>2016-02-23T15:38:53Z</time>
      </trkpt>
      <trkpt lat="44.75108" lon="3.29654">
        <ele>978.76</ele>
        <time>2016-02-23T15:39:07Z</time>
      </trkpt>
      <trkpt lat="44.75075" lon="3.29632">
        <ele>980.68</ele>
        <time>2016-02-23T15:39:21Z</time>
      </trkpt>
      <trkpt lat="44.75055" lon="3.29598">
        <ele>982.6</ele>
        <time>2016-02-23T15:39:34Z</time>
      </trkpt>
      <trkpt lat="44.75048" lon="3.29579">
        <ele>984.53</ele>
        <time>2016-02-23T15:39:41Z</time>
      </trkpt>
      <trkpt lat="44.7504" lon="3.29556">
        <ele>985.97</ele>
        <time>2016-02-23T15:39:50Z</time>
      </trkpt>
      <trkpt lat="44.75038" lon="3.29534">
        <ele>986.93</ele>
        <time>2016-02-23T15:39:57Z</time>
      </trkpt>
      <trkpt lat="44.7504" lon="3.29527">
        <ele>983.09</ele>
        <time>2016-02-23T15:40:00Z</time>
      </trkpt>
      <trkpt lat="44.75041" lon="3.29524">
        <ele>989.81</ele>
        <time>2016-02-23T15:40:01Z</time>
      </trkpt>
      <trkpt lat="44.75042" lon="3.29521">
        <ele>985.97</ele>
        <time>2016-02-23T15:40:02Z</time>
      </trkpt>
      <trkpt lat="44.75044" lon="3.29514">
        <ele>992.22</ele>
        <time>2016-02-23T15:40:05Z</time>
      </trkpt>
      <trkpt lat="44.75045" lon="3.29511">
        <ele>987.89</ele>
        <time>2016-02-23T15:40:06Z</time>
      </trkpt>
      <trkpt lat="44.75067" lon="3.29479">
        <ele>989.33</ele>
        <time>2016-02-23T15:40:21Z</time>
      </trkpt>
      <trkpt lat="44.75082" lon="3.29438">
        <ele>991.26</ele>
        <time>2016-02-23T15:40:35Z</time>
      </trkpt>
      <trkpt lat="44.75083" lon="3.29424">
        <ele>991.74</ele>
        <time>2016-02-23T15:40:39Z</time>
      </trkpt>
      <trkpt lat="44.75085" lon="3.29412">
        <ele>992.22</ele>
        <time>2016-02-23T15:40:43Z</time>
      </trkpt>
      <trkpt lat="44.7509" lon="3.2938">
        <ele>993.18</ele>
        <time>2016-02-23T15:40:52Z</time>
      </trkpt>
      <trkpt lat="44.75096" lon="3.29341">
        <ele>994.62</ele>
        <time>2016-02-23T15:41:05Z</time>
      </trkpt>
      <trkpt lat="44.75096" lon="3.29339">
        <ele>995.1</ele>
        <time>2016-02-23T15:41:06Z</time>
      </trkpt>
      <trkpt lat="44.75089" lon="3.29322">
        <ele>995.58</ele>
        <time>2016-02-23T15:41:12Z</time>
      </trkpt>
      <trkpt lat="44.75063" lon="3.29311">
        <ele>996.54</ele>
        <time>2016-02-23T15:41:25Z</time>
      </trkpt>
      <trkpt lat="44.75021" lon="3.29325">
        <ele>998.47</ele>
        <time>2016-02-23T15:41:42Z</time>
      </trkpt>
      <trkpt lat="44.74994" lon="3.2936">
        <ele>998.47</ele>
        <time>2016-02-23T15:41:55Z</time>
      </trkpt>
      <trkpt lat="44.74959" lon="3.2943">
        <ele>998.47</ele>
        <time>2016-02-23T15:42:11Z</time>
      </trkpt>
      <trkpt lat="44.74942" lon="3.29489">
        <ele>997.99</ele>
        <time>2016-02-23T15:42:24Z</time>
      </trkpt>
      <trkpt lat="44.74908" lon="3.29532">
        <ele>996.54</ele>
        <time>2016-02-23T15:42:37Z</time>
      </trkpt>
      <trkpt lat="44.74858" lon="3.29574">
        <ele>996.06</ele>
        <time>2016-02-23T15:42:54Z</time>
      </trkpt>
      <trkpt lat="44.74822" lon="3.29583">
        <ele>996.06</ele>
        <time>2016-02-23T15:43:07Z</time>
      </trkpt>
      <trkpt lat="44.74821" lon="3.29581">
        <ele>996.06</ele>
        <time>2016-02-23T15:43:08Z</time>
      </trkpt>
      <trkpt lat="44.7482" lon="3.2958">
        <ele>992.7</ele>
        <time>2016-02-23T15:43:13Z</time>
      </trkpt>
      <trkpt lat="44.7482" lon="3.2958">
        <ele>998.47</ele>
        <time>2016-02-23T15:43:14Z</time>
      </trkpt>
      <trkpt lat="44.7482" lon="3.2958">
        <ele>995.1</ele>
        <time>2016-02-23T15:43:17Z</time>
      </trkpt>
      <trkpt lat="44.7482" lon="3.2958">
        <ele>991.74</ele>
        <time>2016-02-23T15:43:19Z</time>
      </trkpt>
      <trkpt lat="44.7482" lon="3.2958">
        <ele>998.95</ele>
        <time>2016-02-23T15:43:20Z</time>
      </trkpt>
      <trkpt lat="44.7482" lon="3.2958">
        <ele>992.7</ele>
        <time>2016-02-23T15:43:21Z</time>
      </trkpt>
      <trkpt lat="44.7482" lon="3.2958">
        <ele>997.99</ele>
        <time>2016-02-23T15:43:22Z</time>
      </trkpt>
      <trkpt lat="44.7482" lon="3.29578">
        <ele>995.58</ele>
        <time>2016-02-23T15:43:29Z</time>
      </trkpt>
      <trkpt lat="44.7482" lon="3.29576">
        <ele>995.58</ele>
        <time>2016-02-23T15:43:30Z</time>
      </trkpt>
      <trkpt lat="44.7482" lon="3.29574">
        <ele>995.58</ele>
        <time>2016-02-23T15:43:31Z</time>
      </trkpt>
      <trkpt lat="44.7482" lon="3.29571">
        <ele>995.58</ele>
        <time>2016-02-23T15:43:32Z</time>
      </trkpt>
      <trkpt lat="44.74819" lon="3.29567">
        <ele>995.1</ele>
        <time>2016-02-23T15:43:33Z</time>
      </trkpt>
      <trkpt lat="44.74817" lon="3.29564">
        <ele>995.58</ele>
        <time>2016-02-23T15:43:34Z</time>
      </trkpt>
      <trkpt lat="44.74815" lon="3.2956">
        <ele>995.58</ele>
        <time>2016-02-23T15:43:35Z</time>
      </trkpt>
      <trkpt lat="44.74799" lon="3.29499">
        <ele>994.14</ele>
        <time>2016-02-23T15:43:48Z</time>
      </trkpt>
      <trkpt lat="44.74786" lon="3.29473">
        <ele>994.62</ele>
        <time>2016-02-23T15:43:54Z</time>
      </trkpt>
      <trkpt lat="44.74775" lon="3.29464">
        <ele>994.62</ele>
        <time>2016-02-23T15:43:57Z</time>
      </trkpt>
      <trkpt lat="44.74771" lon="3.29462">
        <ele>994.62</ele>
        <time>2016-02-23T15:43:58Z</time>
      </trkpt>
      <trkpt lat="44.74727" lon="3.29464">
        <ele>994.14</ele>
        <time>2016-02-23T15:44:10Z</time>
      </trkpt>
      <trkpt lat="44.74683" lon="3.29485">
        <ele>994.14</ele>
        <time>2016-02-23T15:44:22Z</time>
      </trkpt>
      <trkpt lat="44.74642" lon="3.29522">
        <ele>993.66</ele>
        <time>2016-02-23T15:44:35Z</time>
      </trkpt>
      <trkpt lat="44.74602" lon="3.29523">
        <ele>993.66</ele>
        <time>2016-02-23T15:44:46Z</time>
      </trkpt>
      <trkpt lat="44.74597" lon="3.29524">
        <ele>993.66</ele>
        <time>2016-02-23T15:44:47Z</time>
      </trkpt>
      <trkpt lat="44.74593" lon="3.29525">
        <ele>993.66</ele>
        <time>2016-02-23T15:44:48Z</time>
      </trkpt>
      <trkpt lat="44.74588" lon="3.29528">
        <ele>993.66</ele>
        <time>2016-02-23T15:44:49Z</time>
      </trkpt>
      <trkpt lat="44.74547" lon="3.29567">
        <ele>993.66</ele>
        <time>2016-02-23T15:45:01Z</time>
      </trkpt>
      <trkpt lat="44.74523" lon="3.29594">
        <ele>989.81</ele>
        <time>2016-02-23T15:45:10Z</time>
      </trkpt>
      <trkpt lat="44.74521" lon="3.29597">
        <ele>996.06</ele>
        <time>2016-02-23T15:45:11Z</time>
      </trkpt>
      <trkpt lat="44.74515" lon="3.29607">
        <ele>992.22</ele>
        <time>2016-02-23T15:45:14Z</time>
      </trkpt>
      <trkpt lat="44.74494" lon="3.29658">
        <ele>993.18</ele>
        <time>2016-02-23T15:45:27Z</time>
      </trkpt>
      <trkpt lat="44.74489" lon="3.29666">
        <ele>992.7</ele>
        <time>2016-02-23T15:45:29Z</time>
      </trkpt>
      <trkpt lat="44.74485" lon="3.2967">
        <ele>992.7</ele>
        <time>2016-02-23T15:45:30Z</time>
      </trkpt>
      <trkpt lat="44.74481" lon="3.29673">
        <ele>992.7</ele>
        <time>2016-02-23T15:45:31Z</time>
      </trkpt>
      <trkpt lat="44.74478" lon="3.29676">
        <ele>992.7</ele>
        <time>2016-02-23T15:45:32Z</time>
      </trkpt>
      <trkpt lat="44.74474" lon="3.29679">
        <ele>992.7</ele>
        <time>2016-02-23T15:45:33Z</time>
      </trkpt>
      <trkpt lat="44.74426" lon="3.297">
        <ele>993.18</ele>
        <time>2016-02-23T15:45:47Z</time>
      </trkpt>
      <trkpt lat="44.74361" lon="3.2973">
        <ele>993.18</ele>
        <time>2016-02-23T15:46:04Z</time>
      </trkpt>
      <trkpt lat="44.74299" lon="3.29739">
        <ele>992.7</ele>
        <time>2016-02-23T15:46:20Z</time>
      </trkpt>
      <trkpt lat="44.74241" lon="3.29732">
        <ele>993.18</ele>
        <time>2016-02-23T15:46:35Z</time>
      </trkpt>
      <trkpt lat="44.74183" lon="3.29725">
        <ele>992.7</ele>
        <time>2016-02-23T15:46:49Z</time>
      </trkpt>
      <trkpt lat="44.74175" lon="3.29723">
        <ele>992.7</ele>
        <time>2016-02-23T15:46:51Z</time>
      </trkpt>
      <trkpt lat="44.74159" lon="3.29719">
        <ele>993.18</ele>
        <time>2016-02-23T15:46:55Z</time>
      </trkpt>
      <trkpt lat="44.74096" lon="3.29698">
        <ele>994.62</ele>
        <time>2016-02-23T15:47:10Z</time>
      </trkpt>
      <trkpt lat="44.74055" lon="3.29677">
        <ele>993.66</ele>
        <time>2016-02-23T15:47:23Z</time>
      </trkpt>
      <trkpt lat="44.74027" lon="3.29641">
        <ele>993.66</ele>
        <time>2016-02-23T15:47:37Z</time>
      </trkpt>
      <trkpt lat="44.73984" lon="3.29588">
        <ele>994.14</ele>
        <time>2016-02-23T15:47:52Z</time>
      </trkpt>
      <trkpt lat="44.73973" lon="3.2958">
        <ele>995.1</ele>
        <time>2016-02-23T15:48:01Z</time>
      </trkpt>
      <trkpt lat="44.73973" lon="3.2958">
        <ele>989.81</ele>
        <time>2016-02-23T15:48:13Z</time>
      </trkpt>
      <trkpt lat="44.73973" lon="3.2958">
        <ele>1001.35</ele>
        <time>2016-02-23T15:48:14Z</time>
      </trkpt>
      <trkpt lat="44.73973" lon="3.2958">
        <ele>995.1</ele>
        <time>2016-02-23T15:48:15Z</time>
      </trkpt>
      <trkpt lat="44.73973" lon="3.2958">
        <ele>995.1</ele>
        <time>2016-02-23T15:48:35Z</time>
      </trkpt>
      <trkpt lat="44.73972" lon="3.29581">
        <ele>995.1</ele>
        <time>2016-02-23T15:48:36Z</time>
      </trkpt>
      <trkpt lat="44.73973" lon="3.29583">
        <ele>995.1</ele>
        <time>2016-02-23T15:48:37Z</time>
      </trkpt>
      <trkpt lat="44.73974" lon="3.29584">
        <ele>995.1</ele>
        <time>2016-02-23T15:48:38Z</time>
      </trkpt>
      <trkpt lat="44.73976" lon="3.29585">
        <ele>995.1</ele>
        <time>2016-02-23T15:48:39Z</time>
      </trkpt>
      <trkpt lat="44.73977" lon="3.29586">
        <ele>994.62</ele>
        <time>2016-02-23T15:48:40Z</time>
      </trkpt>
      <trkpt lat="44.73979" lon="3.29587">
        <ele>994.62</ele>
        <time>2016-02-23T15:48:41Z</time>
      </trkpt>
      <trkpt lat="44.7398" lon="3.29589">
        <ele>994.62</ele>
        <time>2016-02-23T15:48:42Z</time>
      </trkpt>
      <trkpt lat="44.73982" lon="3.2959">
        <ele>994.62</ele>
        <time>2016-02-23T15:48:43Z</time>
      </trkpt>
      <trkpt lat="44.73984" lon="3.29592">
        <ele>994.62</ele>
        <time>2016-02-23T15:48:44Z</time>
      </trkpt>
      <trkpt lat="44.73986" lon="3.29594">
        <ele>994.62</ele>
        <time>2016-02-23T15:48:45Z</time>
      </trkpt>
      <trkpt lat="44.74021" lon="3.29636">
        <ele>993.66</ele>
        <time>2016-02-23T15:49:00Z</time>
      </trkpt>
      <trkpt lat="44.74049" lon="3.2969">
        <ele>994.62</ele>
        <time>2016-02-23T15:49:14Z</time>
      </trkpt>
      <trkpt lat="44.74065" lon="3.29732">
        <ele>996.54</ele>
        <time>2016-02-23T15:49:24Z</time>
      </trkpt>
      <trkpt lat="44.7407" lon="3.29742">
        <ele>997.99</ele>
        <time>2016-02-23T15:49:27Z</time>
      </trkpt>
      <trkpt lat="44.74082" lon="3.29753">
        <ele>999.43</ele>
        <time>2016-02-23T15:49:33Z</time>
      </trkpt>
      <trkpt lat="44.74088" lon="3.29764">
        <ele>1000.87</ele>
        <time>2016-02-23T15:49:39Z</time>
      </trkpt>
      <trkpt lat="44.7409" lon="3.29765">
        <ele>1001.35</ele>
        <time>2016-02-23T15:49:40Z</time>
      </trkpt>
      <trkpt lat="44.74091" lon="3.29765">
        <ele>1001.35</ele>
        <time>2016-02-23T15:49:41Z</time>
      </trkpt>
      <trkpt lat="44.74093" lon="3.29766">
        <ele>1001.83</ele>
        <time>2016-02-23T15:49:42Z</time>
      </trkpt>
      <trkpt lat="44.74095" lon="3.29767">
        <ele>1001.83</ele>
        <time>2016-02-23T15:49:43Z</time>
      </trkpt>
      <trkpt lat="44.74097" lon="3.29769">
        <ele>1002.31</ele>
        <time>2016-02-23T15:49:44Z</time>
      </trkpt>
      <trkpt lat="44.741" lon="3.2977">
        <ele>1002.31</ele>
        <time>2016-02-23T15:49:45Z</time>
      </trkpt>
      <trkpt lat="44.74102" lon="3.29772">
        <ele>1002.79</ele>
        <time>2016-02-23T15:49:46Z</time>
      </trkpt>
      <trkpt lat="44.74129" lon="3.29792">
        <ele>1005.2</ele>
        <time>2016-02-23T15:49:57Z</time>
      </trkpt>
      <trkpt lat="44.74154" lon="3.29819">
        <ele>1006.16</ele>
        <time>2016-02-23T15:50:11Z</time>
      </trkpt>
      <trkpt lat="44.74154" lon="3.29822">
        <ele>1006.16</ele>
        <time>2016-02-23T15:50:12Z</time>
      </trkpt>
      <trkpt lat="44.74154" lon="3.29824">
        <ele>1006.64</ele>
        <time>2016-02-23T15:50:13Z</time>
      </trkpt>
      <trkpt lat="44.7413" lon="3.29865">
        <ele>1003.75</ele>
        <time>2016-02-23T15:50:25Z</time>
      </trkpt>
      <trkpt lat="44.74108" lon="3.29917">
        <ele>1004.72</ele>
        <time>2016-02-23T15:50:36Z</time>
      </trkpt>
      <trkpt lat="44.74101" lon="3.29919">
        <ele>1005.2</ele>
        <time>2016-02-23T15:50:38Z</time>
      </trkpt>
      <trkpt lat="44.74098" lon="3.29918">
        <ele>1005.68</ele>
        <time>2016-02-23T15:50:39Z</time>
      </trkpt>
      <trkpt lat="44.74095" lon="3.29917">
        <ele>1006.16</ele>
        <time>2016-02-23T15:50:40Z</time>
      </trkpt>
      <trkpt lat="44.74092" lon="3.29916">
        <ele>1006.16</ele>
        <time>2016-02-23T15:50:41Z</time>
      </trkpt>
      <trkpt lat="44.7409" lon="3.29916">
        <ele>1006.16</ele>
        <time>2016-02-23T15:50:42Z</time>
      </trkpt>
      <trkpt lat="44.74067" lon="3.29912">
        <ele>1004.23</ele>
        <time>2016-02-23T15:50:49Z</time>
      </trkpt>
      <trkpt lat="44.74062" lon="3.29914">
        <ele>1003.75</ele>
        <time>2016-02-23T15:50:50Z</time>
      </trkpt>
      <trkpt lat="44.74057" lon="3.29915">
        <ele>1003.27</ele>
        <time>2016-02-23T15:50:51Z</time>
      </trkpt>
      <trkpt lat="44.74034" lon="3.29917">
        <ele>1003.75</ele>
        <time>2016-02-23T15:50:57Z</time>
      </trkpt>
      <trkpt lat="44.74032" lon="3.29914">
        <ele>1003.75</ele>
        <time>2016-02-23T15:50:58Z</time>
      </trkpt>
      <trkpt lat="44.74025" lon="3.2989">
        <ele>1002.79</ele>
        <time>2016-02-23T15:51:04Z</time>
      </trkpt>
      <trkpt lat="44.74019" lon="3.29874">
        <ele>1001.83</ele>
        <time>2016-02-23T15:51:07Z</time>
      </trkpt>
      <trkpt lat="44.74014" lon="3.29837">
        <ele>1001.35</ele>
        <time>2016-02-23T15:51:12Z</time>
      </trkpt>
      <trkpt lat="44.74016" lon="3.29816">
        <ele>1001.35</ele>
        <time>2016-02-23T15:51:15Z</time>
      </trkpt>
      <trkpt lat="44.74014" lon="3.29783">
        <ele>999.43</ele>
        <time>2016-02-23T15:51:19Z</time>
      </trkpt>
      <trkpt lat="44.73998" lon="3.29738">
        <ele>995.58</ele>
        <time>2016-02-23T15:51:25Z</time>
      </trkpt>
      <trkpt lat="44.73983" lon="3.29706">
        <ele>994.62</ele>
        <time>2016-02-23T15:51:30Z</time>
      </trkpt>
      <trkpt lat="44.73956" lon="3.29708">
        <ele>996.06</ele>
        <time>2016-02-23T15:51:41Z</time>
      </trkpt>
      <trkpt lat="44.73952" lon="3.29709">
        <ele>996.54</ele>
        <time>2016-02-23T15:51:42Z</time>
      </trkpt>
      <trkpt lat="44.7391" lon="3.29699">
        <ele>997.02</ele>
        <time>2016-02-23T15:51:53Z</time>
      </trkpt>
      <trkpt lat="44.73877" lon="3.29682">
        <ele>997.51</ele>
        <time>2016-02-23T15:52:02Z</time>
      </trkpt>
      <trkpt lat="44.73862" lon="3.29667">
        <ele>996.06</ele>
        <time>2016-02-23T15:52:07Z</time>
      </trkpt>
      <trkpt lat="44.7382" lon="3.29635">
        <ele>995.1</ele>
        <time>2016-02-23T15:52:19Z</time>
      </trkpt>
      <trkpt lat="44.73808" lon="3.29624">
        <ele>993.66</ele>
        <time>2016-02-23T15:52:22Z</time>
      </trkpt>
      <trkpt lat="44.73786" lon="3.29613">
        <ele>993.66</ele>
        <time>2016-02-23T15:52:27Z</time>
      </trkpt>
      <trkpt lat="44.73775" lon="3.29612">
        <ele>993.66</ele>
        <time>2016-02-23T15:52:29Z</time>
      </trkpt>
      <trkpt lat="44.73765" lon="3.29614">
        <ele>993.66</ele>
        <time>2016-02-23T15:52:31Z</time>
      </trkpt>
      <trkpt lat="44.73747" lon="3.2962">
        <ele>994.62</ele>
        <time>2016-02-23T15:52:35Z</time>
      </trkpt>
      <trkpt lat="44.73714" lon="3.29642">
        <ele>995.58</ele>
        <time>2016-02-23T15:52:46Z</time>
      </trkpt>
      <trkpt lat="44.73682" lon="3.29685">
        <ele>996.54</ele>
        <time>2016-02-23T15:53:00Z</time>
      </trkpt>
      <trkpt lat="44.7364" lon="3.29731">
        <ele>997.51</ele>
        <time>2016-02-23T15:53:16Z</time>
      </trkpt>
      <trkpt lat="44.73599" lon="3.29764">
        <ele>997.02</ele>
        <time>2016-02-23T15:53:30Z</time>
      </trkpt>
      <trkpt lat="44.73551" lon="3.29802">
        <ele>997.51</ele>
        <time>2016-02-23T15:53:45Z</time>
      </trkpt>
      <trkpt lat="44.7353" lon="3.29834">
        <ele>999.91</ele>
        <time>2016-02-23T15:53:56Z</time>
      </trkpt>
      <trkpt lat="44.73524" lon="3.2988">
        <ele>1001.35</ele>
        <time>2016-02-23T15:54:08Z</time>
      </trkpt>
      <trkpt lat="44.735" lon="3.29922">
        <ele>1001.35</ele>
        <time>2016-02-23T15:54:22Z</time>
      </trkpt>
      <trkpt lat="44.73484" lon="3.29951">
        <ele>1001.35</ele>
        <time>2016-02-23T15:54:32Z</time>
      </trkpt>
      <trkpt lat="44.73472" lon="3.29992">
        <ele>1001.35</ele>
        <time>2016-02-23T15:54:44Z</time>
      </trkpt>
      <trkpt lat="44.73466" lon="3.30011">
        <ele>1001.83</ele>
        <time>2016-02-23T15:54:57Z</time>
      </trkpt>
      <trkpt lat="44.73466" lon="3.30011">
        <ele>1001.83</ele>
        <time>2016-02-23T15:55:02Z</time>
      </trkpt>
      <trkpt lat="44.73455" lon="3.29988">
        <ele>1000.39</ele>
        <time>2016-02-23T15:55:11Z</time>
      </trkpt>
      <trkpt lat="44.73427" lon="3.29975">
        <ele>999.43</ele>
        <time>2016-02-23T15:55:21Z</time>
      </trkpt>
      <trkpt lat="44.73407" lon="3.29986">
        <ele>999.91</ele>
        <time>2016-02-23T15:55:30Z</time>
      </trkpt>
      <trkpt lat="44.73404" lon="3.29993">
        <ele>1000.87</ele>
        <time>2016-02-23T15:55:32Z</time>
      </trkpt>
      <trkpt lat="44.73396" lon="3.30026">
        <ele>1002.79</ele>
        <time>2016-02-23T15:55:43Z</time>
      </trkpt>
      <trkpt lat="44.73381" lon="3.30065">
        <ele>1004.23</ele>
        <time>2016-02-23T15:55:58Z</time>
      </trkpt>
      <trkpt lat="44.73375" lon="3.30087">
        <ele>1004.23</ele>
        <time>2016-02-23T15:56:06Z</time>
      </trkpt>
      <trkpt lat="44.73372" lon="3.30111">
        <ele>1005.2</ele>
        <time>2016-02-23T15:56:15Z</time>
      </trkpt>
      <trkpt lat="44.73372" lon="3.30113">
        <ele>1005.2</ele>
        <time>2016-02-23T15:56:16Z</time>
      </trkpt>
      <trkpt lat="44.73372" lon="3.30159">
        <ele>1007.12</ele>
        <time>2016-02-23T15:56:30Z</time>
      </trkpt>
      <trkpt lat="44.73372" lon="3.30208">
        <ele>1008.56</ele>
        <time>2016-02-23T15:56:43Z</time>
      </trkpt>
      <trkpt lat="44.7337" lon="3.30231">
        <ele>1009.04</ele>
        <time>2016-02-23T15:56:52Z</time>
      </trkpt>
      <trkpt lat="44.73365" lon="3.30234">
        <ele>1010</ele>
        <time>2016-02-23T15:56:56Z</time>
      </trkpt>
      <trkpt lat="44.73361" lon="3.30241">
        <ele>1010.96</ele>
        <time>2016-02-23T15:57:01Z</time>
      </trkpt>
      <trkpt lat="44.73358" lon="3.30235">
        <ele>1010.96</ele>
        <time>2016-02-23T15:57:11Z</time>
      </trkpt>
      <trkpt lat="44.73357" lon="3.30235">
        <ele>1012.41</ele>
        <time>2016-02-23T15:57:24Z</time>
      </trkpt>
      <trkpt lat="44.73357" lon="3.30234">
        <ele>1012.41</ele>
        <time>2016-02-23T15:57:36Z</time>
      </trkpt>
      <trkpt lat="44.73356" lon="3.30235">
        <ele>1012.41</ele>
        <time>2016-02-23T15:57:42Z</time>
      </trkpt>
      <trkpt lat="44.73352" lon="3.30238">
        <ele>1012.89</ele>
        <time>2016-02-23T15:57:54Z</time>
      </trkpt>
      <trkpt lat="44.73352" lon="3.30238">
        <ele>1012.89</ele>
        <time>2016-02-23T15:57:57Z</time>
      </trkpt>
      <trkpt lat="44.73343" lon="3.30229">
        <ele>1013.85</ele>
        <time>2016-02-23T15:58:04Z</time>
      </trkpt>
      <trkpt lat="44.73336" lon="3.30222">
        <ele>1014.33</ele>
        <time>2016-02-23T15:58:11Z</time>
      </trkpt>
      <trkpt lat="44.73334" lon="3.30218">
        <ele>1014.33</ele>
        <time>2016-02-23T15:58:13Z</time>
      </trkpt>
      <trkpt lat="44.73326" lon="3.302">
        <ele>1015.29</ele>
        <time>2016-02-23T15:58:22Z</time>
      </trkpt>
      <trkpt lat="44.73325" lon="3.30191">
        <ele>1016.25</ele>
        <time>2016-02-23T15:58:26Z</time>
      </trkpt>
      <trkpt lat="44.73329" lon="3.30157">
        <ele>1018.65</ele>
        <time>2016-02-23T15:58:39Z</time>
      </trkpt>
      <trkpt lat="44.73327" lon="3.30133">
        <ele>1019.62</ele>
        <time>2016-02-23T15:58:51Z</time>
      </trkpt>
      <trkpt lat="44.73326" lon="3.30126">
        <ele>1019.13</ele>
        <time>2016-02-23T15:58:53Z</time>
      </trkpt>
      <trkpt lat="44.73323" lon="3.30119">
        <ele>1019.13</ele>
        <time>2016-02-23T15:58:56Z</time>
      </trkpt>
      <trkpt lat="44.73317" lon="3.30092">
        <ele>1020.1</ele>
        <time>2016-02-23T15:59:06Z</time>
      </trkpt>
      <trkpt lat="44.73315" lon="3.30084">
        <ele>1021.06</ele>
        <time>2016-02-23T15:59:14Z</time>
      </trkpt>
      <trkpt lat="44.73312" lon="3.30071">
        <ele>1021.54</ele>
        <time>2016-02-23T15:59:19Z</time>
      </trkpt>
      <trkpt lat="44.73296" lon="3.30015">
        <ele>1023.94</ele>
        <time>2016-02-23T15:59:35Z</time>
      </trkpt>
      <trkpt lat="44.73292" lon="3.30007">
        <ele>1023.94</ele>
        <time>2016-02-23T15:59:39Z</time>
      </trkpt>
      <trkpt lat="44.73289" lon="3.29996">
        <ele>1023.94</ele>
        <time>2016-02-23T15:59:43Z</time>
      </trkpt>
      <trkpt lat="44.73284" lon="3.29983">
        <ele>1024.42</ele>
        <time>2016-02-23T15:59:48Z</time>
      </trkpt>
      <trkpt lat="44.73276" lon="3.29952">
        <ele>1025.86</ele>
        <time>2016-02-23T15:59:58Z</time>
      </trkpt>
      <trkpt lat="44.73265" lon="3.29924">
        <ele>1026.83</ele>
        <time>2016-02-23T16:00:09Z</time>
      </trkpt>
      <trkpt lat="44.73264" lon="3.29919">
        <ele>1027.31</ele>
        <time>2016-02-23T16:00:11Z</time>
      </trkpt>
      <trkpt lat="44.73261" lon="3.29913">
        <ele>1027.31</ele>
        <time>2016-02-23T16:00:14Z</time>
      </trkpt>
      <trkpt lat="44.73257" lon="3.29904">
        <ele>1027.79</ele>
        <time>2016-02-23T16:00:18Z</time>
      </trkpt>
      <trkpt lat="44.73247" lon="3.29891">
        <ele>1029.23</ele>
        <time>2016-02-23T16:00:25Z</time>
      </trkpt>
      <trkpt lat="44.73245" lon="3.29884">
        <ele>1029.71</ele>
        <time>2016-02-23T16:00:28Z</time>
      </trkpt>
      <trkpt lat="44.73219" lon="3.29853">
        <ele>1031.15</ele>
        <time>2016-02-23T16:00:44Z</time>
      </trkpt>
      <trkpt lat="44.73206" lon="3.29838">
        <ele>1032.59</ele>
        <time>2016-02-23T16:00:54Z</time>
      </trkpt>
      <trkpt lat="44.73194" lon="3.29822">
        <ele>1033.55</ele>
        <time>2016-02-23T16:01:04Z</time>
      </trkpt>
      <trkpt lat="44.73178" lon="3.29798">
        <ele>1035.96</ele>
        <time>2016-02-23T16:01:14Z</time>
      </trkpt>
      <trkpt lat="44.7316" lon="3.29772">
        <ele>1036.44</ele>
        <time>2016-02-23T16:01:25Z</time>
      </trkpt>
      <trkpt lat="44.73138" lon="3.29746">
        <ele>1038.36</ele>
        <time>2016-02-23T16:01:37Z</time>
      </trkpt>
      <trkpt lat="44.73117" lon="3.29727">
        <ele>1040.28</ele>
        <time>2016-02-23T16:01:48Z</time>
      </trkpt>
      <trkpt lat="44.73102" lon="3.29718">
        <ele>1041.73</ele>
        <time>2016-02-23T16:01:58Z</time>
      </trkpt>
      <trkpt lat="44.73082" lon="3.2971">
        <ele>1042.69</ele>
        <time>2016-02-23T16:02:08Z</time>
      </trkpt>
      <trkpt lat="44.73056" lon="3.29698">
        <ele>1044.13</ele>
        <time>2016-02-23T16:02:19Z</time>
      </trkpt>
      <trkpt lat="44.73037" lon="3.29701">
        <ele>1045.09</ele>
        <time>2016-02-23T16:02:27Z</time>
      </trkpt>
      <trkpt lat="44.73022" lon="3.29705">
        <ele>1045.57</ele>
        <time>2016-02-23T16:02:34Z</time>
      </trkpt>
      <trkpt lat="44.73016" lon="3.29706">
        <ele>1046.05</ele>
        <time>2016-02-23T16:02:36Z</time>
      </trkpt>
      <trkpt lat="44.7301" lon="3.29706">
        <ele>1046.53</ele>
        <time>2016-02-23T16:02:40Z</time>
      </trkpt>
      <trkpt lat="44.72995" lon="3.29709">
        <ele>1047.49</ele>
        <time>2016-02-23T16:02:48Z</time>
      </trkpt>
      <trkpt lat="44.72973" lon="3.29715">
        <ele>1048.94</ele>
        <time>2016-02-23T16:02:59Z</time>
      </trkpt>
      <trkpt lat="44.72964" lon="3.29721">
        <ele>1049.9</ele>
        <time>2016-02-23T16:03:04Z</time>
      </trkpt>
      <trkpt lat="44.72943" lon="3.29736">
        <ele>1051.34</ele>
        <time>2016-02-23T16:03:16Z</time>
      </trkpt>
      <trkpt lat="44.7294" lon="3.29738">
        <ele>1051.82</ele>
        <time>2016-02-23T16:03:18Z</time>
      </trkpt>
      <trkpt lat="44.72936" lon="3.29741">
        <ele>1052.78</ele>
        <time>2016-02-23T16:03:21Z</time>
      </trkpt>
      <trkpt lat="44.72922" lon="3.29753">
        <ele>1054.22</ele>
        <time>2016-02-23T16:03:31Z</time>
      </trkpt>
      <trkpt lat="44.72899" lon="3.2978">
        <ele>1055.67</ele>
        <time>2016-02-23T16:03:44Z</time>
      </trkpt>
      <trkpt lat="44.72897" lon="3.29785">
        <ele>1056.15</ele>
        <time>2016-02-23T16:03:47Z</time>
      </trkpt>
      <trkpt lat="44.72896" lon="3.29795">
        <ele>1057.11</ele>
        <time>2016-02-23T16:03:53Z</time>
      </trkpt>
      <trkpt lat="44.72899" lon="3.29796">
        <ele>1057.59</ele>
        <time>2016-02-23T16:03:56Z</time>
      </trkpt>
      <trkpt lat="44.72905" lon="3.29795">
        <ele>1058.55</ele>
        <time>2016-02-23T16:04:01Z</time>
      </trkpt>
      <trkpt lat="44.72921" lon="3.29787">
        <ele>1060.95</ele>
        <time>2016-02-23T16:04:14Z</time>
      </trkpt>
      <trkpt lat="44.72923" lon="3.29785">
        <ele>1061.43</ele>
        <time>2016-02-23T16:04:19Z</time>
      </trkpt>
      <trkpt lat="44.72928" lon="3.29786">
        <ele>1062.39</ele>
        <time>2016-02-23T16:04:24Z</time>
      </trkpt>
      <trkpt lat="44.72949" lon="3.29784">
        <ele>1064.32</ele>
        <time>2016-02-23T16:04:36Z</time>
      </trkpt>
      <trkpt lat="44.72973" lon="3.29789">
        <ele>1066.72</ele>
        <time>2016-02-23T16:04:50Z</time>
      </trkpt>
      <trkpt lat="44.72986" lon="3.29794">
        <ele>1068.64</ele>
        <time>2016-02-23T16:04:59Z</time>
      </trkpt>
      <trkpt lat="44.72997" lon="3.29802">
        <ele>1070.08</ele>
        <time>2016-02-23T16:05:09Z</time>
      </trkpt>
      <trkpt lat="44.73002" lon="3.29803">
        <ele>1070.57</ele>
        <time>2016-02-23T16:05:12Z</time>
      </trkpt>
      <trkpt lat="44.73017" lon="3.29816">
        <ele>1072.97</ele>
        <time>2016-02-23T16:05:23Z</time>
      </trkpt>
      <trkpt lat="44.73027" lon="3.29819">
        <ele>1073.93</ele>
        <time>2016-02-23T16:05:32Z</time>
      </trkpt>
      <trkpt lat="44.73038" lon="3.29828">
        <ele>1075.85</ele>
        <time>2016-02-23T16:05:43Z</time>
      </trkpt>
      <trkpt lat="44.73051" lon="3.29836">
        <ele>1077.78</ele>
        <time>2016-02-23T16:05:54Z</time>
      </trkpt>
      <trkpt lat="44.73055" lon="3.29839">
        <ele>1078.74</ele>
        <time>2016-02-23T16:05:58Z</time>
      </trkpt>
      <trkpt lat="44.7306" lon="3.29845">
        <ele>1079.22</ele>
        <time>2016-02-23T16:06:02Z</time>
      </trkpt>
      <trkpt lat="44.7307" lon="3.29861">
        <ele>1080.66</ele>
        <time>2016-02-23T16:06:12Z</time>
      </trkpt>
      <trkpt lat="44.73083" lon="3.29887">
        <ele>1082.1</ele>
        <time>2016-02-23T16:06:27Z</time>
      </trkpt>
      <trkpt lat="44.73084" lon="3.29895">
        <ele>1083.06</ele>
        <time>2016-02-23T16:06:39Z</time>
      </trkpt>
      <trkpt lat="44.73084" lon="3.29895">
        <ele>1086.91</ele>
        <time>2016-02-23T16:07:01Z</time>
      </trkpt>
      <trkpt lat="44.73084" lon="3.29895">
        <ele>1083.54</ele>
        <time>2016-02-23T16:07:02Z</time>
      </trkpt>
      <trkpt lat="44.73084" lon="3.29895">
        <ele>1086.43</ele>
        <time>2016-02-23T16:07:04Z</time>
      </trkpt>
      <trkpt lat="44.73084" lon="3.29895">
        <ele>1082.58</ele>
        <time>2016-02-23T16:07:05Z</time>
      </trkpt>
      <trkpt lat="44.73084" lon="3.29895">
        <ele>1083.06</ele>
        <time>2016-02-23T16:07:12Z</time>
      </trkpt>
      <trkpt lat="44.73084" lon="3.29896">
        <ele>1083.54</ele>
        <time>2016-02-23T16:07:34Z</time>
      </trkpt>
      <trkpt lat="44.73084" lon="3.29901">
        <ele>1084.02</ele>
        <time>2016-02-23T16:07:38Z</time>
      </trkpt>
      <trkpt lat="44.73087" lon="3.29908">
        <ele>1084.99</ele>
        <time>2016-02-23T16:07:42Z</time>
      </trkpt>
      <trkpt lat="44.73088" lon="3.29914">
        <ele>1084.99</ele>
        <time>2016-02-23T16:07:45Z</time>
      </trkpt>
      <trkpt lat="44.7309" lon="3.29929">
        <ele>1085.95</ele>
        <time>2016-02-23T16:07:50Z</time>
      </trkpt>
      <trkpt lat="44.73092" lon="3.29934">
        <ele>1086.91</ele>
        <time>2016-02-23T16:07:53Z</time>
      </trkpt>
      <trkpt lat="44.73094" lon="3.29955">
        <ele>1089.31</ele>
        <time>2016-02-23T16:08:06Z</time>
      </trkpt>
      <trkpt lat="44.73103" lon="3.29975">
        <ele>1091.23</ele>
        <time>2016-02-23T16:08:18Z</time>
      </trkpt>
      <trkpt lat="44.73103" lon="3.29998">
        <ele>1094.6</ele>
        <time>2016-02-23T16:08:28Z</time>
      </trkpt>
      <trkpt lat="44.73104" lon="3.30021">
        <ele>1095.56</ele>
        <time>2016-02-23T16:08:39Z</time>
      </trkpt>
      <trkpt lat="44.73105" lon="3.30036">
        <ele>1096.52</ele>
        <time>2016-02-23T16:08:45Z</time>
      </trkpt>
      <trkpt lat="44.73104" lon="3.30066">
        <ele>1098.44</ele>
        <time>2016-02-23T16:08:54Z</time>
      </trkpt>
      <trkpt lat="44.73104" lon="3.30094">
        <ele>1098.92</ele>
        <time>2016-02-23T16:09:04Z</time>
      </trkpt>
      <trkpt lat="44.731" lon="3.30125">
        <ele>1101.33</ele>
        <time>2016-02-23T16:09:19Z</time>
      </trkpt>
      <trkpt lat="44.73099" lon="3.30129">
        <ele>1101.81</ele>
        <time>2016-02-23T16:09:22Z</time>
      </trkpt>
      <trkpt lat="44.73095" lon="3.30142">
        <ele>1102.77</ele>
        <time>2016-02-23T16:09:31Z</time>
      </trkpt>
      <trkpt lat="44.7309" lon="3.30151">
        <ele>1103.73</ele>
        <time>2016-02-23T16:09:37Z</time>
      </trkpt>
      <trkpt lat="44.73084" lon="3.30162">
        <ele>1104.69</ele>
        <time>2016-02-23T16:09:44Z</time>
      </trkpt>
      <trkpt lat="44.73074" lon="3.30183">
        <ele>1106.61</ele>
        <time>2016-02-23T16:09:59Z</time>
      </trkpt>
      <trkpt lat="44.73066" lon="3.3019">
        <ele>1106.61</ele>
        <time>2016-02-23T16:10:12Z</time>
      </trkpt>
      <trkpt lat="44.73064" lon="3.30194">
        <ele>1107.58</ele>
        <time>2016-02-23T16:10:29Z</time>
      </trkpt>
      <trkpt lat="44.73055" lon="3.30209">
        <ele>1108.54</ele>
        <time>2016-02-23T16:10:40Z</time>
      </trkpt>
      <trkpt lat="44.73042" lon="3.30234">
        <ele>1111.9</ele>
        <time>2016-02-23T16:10:53Z</time>
      </trkpt>
      <trkpt lat="44.73038" lon="3.30242">
        <ele>1112.38</ele>
        <time>2016-02-23T16:10:56Z</time>
      </trkpt>
      <trkpt lat="44.73023" lon="3.30269">
        <ele>1114.31</ele>
        <time>2016-02-23T16:11:09Z</time>
      </trkpt>
      <trkpt lat="44.73019" lon="3.30274">
        <ele>1115.27</ele>
        <time>2016-02-23T16:11:13Z</time>
      </trkpt>
      <trkpt lat="44.73012" lon="3.30279">
        <ele>1116.71</ele>
        <time>2016-02-23T16:11:19Z</time>
      </trkpt>
      <trkpt lat="44.73003" lon="3.30283">
        <ele>1118.63</ele>
        <time>2016-02-23T16:11:26Z</time>
      </trkpt>
      <trkpt lat="44.72997" lon="3.30284">
        <ele>1119.59</ele>
        <time>2016-02-23T16:11:30Z</time>
      </trkpt>
      <trkpt lat="44.72979" lon="3.3029">
        <ele>1121.52</ele>
        <time>2016-02-23T16:11:42Z</time>
      </trkpt>
      <trkpt lat="44.72976" lon="3.30291">
        <ele>1122</ele>
        <time>2016-02-23T16:11:44Z</time>
      </trkpt>
      <trkpt lat="44.72969" lon="3.30305">
        <ele>1122</ele>
        <time>2016-02-23T16:11:53Z</time>
      </trkpt>
      <trkpt lat="44.72965" lon="3.30339">
        <ele>1122</ele>
        <time>2016-02-23T16:12:08Z</time>
      </trkpt>
      <trkpt lat="44.72963" lon="3.30341">
        <ele>1122.48</ele>
        <time>2016-02-23T16:12:19Z</time>
      </trkpt>
      <trkpt lat="44.72963" lon="3.30344">
        <ele>1123.44</ele>
        <time>2016-02-23T16:12:25Z</time>
      </trkpt>
      <trkpt lat="44.72963" lon="3.30349">
        <ele>1122</ele>
        <time>2016-02-23T16:12:31Z</time>
      </trkpt>
      <trkpt lat="44.72954" lon="3.30371">
        <ele>1121.52</ele>
        <time>2016-02-23T16:12:42Z</time>
      </trkpt>
      <trkpt lat="44.72953" lon="3.3038">
        <ele>1121.52</ele>
        <time>2016-02-23T16:12:46Z</time>
      </trkpt>
      <trkpt lat="44.72954" lon="3.30385">
        <ele>1121.52</ele>
        <time>2016-02-23T16:12:57Z</time>
      </trkpt>
      <trkpt lat="44.72954" lon="3.30385">
        <ele>1121.52</ele>
        <time>2016-02-23T16:13:01Z</time>
      </trkpt>
      <trkpt lat="44.72953" lon="3.30396">
        <ele>1121.52</ele>
        <time>2016-02-23T16:13:06Z</time>
      </trkpt>
      <trkpt lat="44.72949" lon="3.30441">
        <ele>1121.52</ele>
        <time>2016-02-23T16:13:20Z</time>
      </trkpt>
      <trkpt lat="44.72931" lon="3.30502">
        <ele>1119.59</ele>
        <time>2016-02-23T16:13:33Z</time>
      </trkpt>
      <trkpt lat="44.72912" lon="3.30536">
        <ele>1116.23</ele>
        <time>2016-02-23T16:13:39Z</time>
      </trkpt>
      <trkpt lat="44.72906" lon="3.30541">
        <ele>1115.27</ele>
        <time>2016-02-23T16:13:40Z</time>
      </trkpt>
      <trkpt lat="44.72899" lon="3.30543">
        <ele>1113.82</ele>
        <time>2016-02-23T16:13:41Z</time>
      </trkpt>
      <trkpt lat="44.72891" lon="3.30543">
        <ele>1112.86</ele>
        <time>2016-02-23T16:13:42Z</time>
      </trkpt>
      <trkpt lat="44.72884" lon="3.30543">
        <ele>1112.38</ele>
        <time>2016-02-23T16:13:43Z</time>
      </trkpt>
      <trkpt lat="44.72877" lon="3.30541">
        <ele>1112.38</ele>
        <time>2016-02-23T16:13:44Z</time>
      </trkpt>
      <trkpt lat="44.72856" lon="3.30537">
        <ele>1112.38</ele>
        <time>2016-02-23T16:13:47Z</time>
      </trkpt>
      <trkpt lat="44.7285" lon="3.30537">
        <ele>1112.38</ele>
        <time>2016-02-23T16:13:48Z</time>
      </trkpt>
      <trkpt lat="44.72845" lon="3.30538">
        <ele>1112.38</ele>
        <time>2016-02-23T16:13:49Z</time>
      </trkpt>
      <trkpt lat="44.7284" lon="3.3054">
        <ele>1112.86</ele>
        <time>2016-02-23T16:13:50Z</time>
      </trkpt>
      <trkpt lat="44.72836" lon="3.30542">
        <ele>1112.86</ele>
        <time>2016-02-23T16:13:51Z</time>
      </trkpt>
      <trkpt lat="44.72805" lon="3.30555">
        <ele>1113.34</ele>
        <time>2016-02-23T16:14:01Z</time>
      </trkpt>
      <trkpt lat="44.72799" lon="3.30556">
        <ele>1113.34</ele>
        <time>2016-02-23T16:14:03Z</time>
      </trkpt>
      <trkpt lat="44.72779" lon="3.30559">
        <ele>1110.94</ele>
        <time>2016-02-23T16:14:07Z</time>
      </trkpt>
      <trkpt lat="44.72752" lon="3.30556">
        <ele>1109.5</ele>
        <time>2016-02-23T16:14:12Z</time>
      </trkpt>
      <trkpt lat="44.72747" lon="3.30554">
        <ele>1109.02</ele>
        <time>2016-02-23T16:14:13Z</time>
      </trkpt>
      <trkpt lat="44.72694" lon="3.30529">
        <ele>1106.13</ele>
        <time>2016-02-23T16:14:23Z</time>
      </trkpt>
      <trkpt lat="44.72676" lon="3.3052">
        <ele>1103.73</ele>
        <time>2016-02-23T16:14:26Z</time>
      </trkpt>
      <trkpt lat="44.72671" lon="3.30516">
        <ele>1103.73</ele>
        <time>2016-02-23T16:14:27Z</time>
      </trkpt>
      <trkpt lat="44.72633" lon="3.30485">
        <ele>1101.33</ele>
        <time>2016-02-23T16:14:34Z</time>
      </trkpt>
      <trkpt lat="44.72627" lon="3.30481">
        <ele>1100.85</ele>
        <time>2016-02-23T16:14:35Z</time>
      </trkpt>
      <trkpt lat="44.72622" lon="3.30477">
        <ele>1100.37</ele>
        <time>2016-02-23T16:14:36Z</time>
      </trkpt>
      <trkpt lat="44.72616" lon="3.30474">
        <ele>1099.4</ele>
        <time>2016-02-23T16:14:37Z</time>
      </trkpt>
      <trkpt lat="44.72609" lon="3.30472">
        <ele>1098.92</ele>
        <time>2016-02-23T16:14:38Z</time>
      </trkpt>
      <trkpt lat="44.72579" lon="3.30465">
        <ele>1097</ele>
        <time>2016-02-23T16:14:42Z</time>
      </trkpt>
      <trkpt lat="44.72565" lon="3.30465">
        <ele>1096.52</ele>
        <time>2016-02-23T16:14:44Z</time>
      </trkpt>
      <trkpt lat="44.72559" lon="3.30467">
        <ele>1096.52</ele>
        <time>2016-02-23T16:14:45Z</time>
      </trkpt>
      <trkpt lat="44.72553" lon="3.3047">
        <ele>1096.52</ele>
        <time>2016-02-23T16:14:46Z</time>
      </trkpt>
      <trkpt lat="44.72536" lon="3.30478">
        <ele>1097</ele>
        <time>2016-02-23T16:14:49Z</time>
      </trkpt>
      <trkpt lat="44.72531" lon="3.30477">
        <ele>1097</ele>
        <time>2016-02-23T16:14:50Z</time>
      </trkpt>
      <trkpt lat="44.72494" lon="3.30462">
        <ele>1097.96</ele>
        <time>2016-02-23T16:15:01Z</time>
      </trkpt>
      <trkpt lat="44.72476" lon="3.30447">
        <ele>1097.96</ele>
        <time>2016-02-23T16:15:08Z</time>
      </trkpt>
      <trkpt lat="44.72473" lon="3.30442">
        <ele>1097.96</ele>
        <time>2016-02-23T16:15:09Z</time>
      </trkpt>
      <trkpt lat="44.72463" lon="3.30414">
        <ele>1094.6</ele>
        <time>2016-02-23T16:15:15Z</time>
      </trkpt>
      <trkpt lat="44.72462" lon="3.3041">
        <ele>1101.81</ele>
        <time>2016-02-23T16:15:16Z</time>
      </trkpt>
      <trkpt lat="44.72461" lon="3.30405">
        <ele>1098.44</ele>
        <time>2016-02-23T16:15:17Z</time>
      </trkpt>
      <trkpt lat="44.72455" lon="3.30392">
        <ele>1101.81</ele>
        <time>2016-02-23T16:15:20Z</time>
      </trkpt>
      <trkpt lat="44.72454" lon="3.30387">
        <ele>1098.44</ele>
        <time>2016-02-23T16:15:21Z</time>
      </trkpt>
      <trkpt lat="44.72433" lon="3.30331">
        <ele>1099.89</ele>
        <time>2016-02-23T16:15:35Z</time>
      </trkpt>
      <trkpt lat="44.72402" lon="3.30272">
        <ele>1100.37</ele>
        <time>2016-02-23T16:15:50Z</time>
      </trkpt>
      <trkpt lat="44.72396" lon="3.30262">
        <ele>1104.21</ele>
        <time>2016-02-23T16:15:53Z</time>
      </trkpt>
      <trkpt lat="44.72391" lon="3.30255">
        <ele>1100.85</ele>
        <time>2016-02-23T16:15:55Z</time>
      </trkpt>
      <trkpt lat="44.72384" lon="3.30246">
        <ele>1097.48</ele>
        <time>2016-02-23T16:15:58Z</time>
      </trkpt>
      <trkpt lat="44.72381" lon="3.30242">
        <ele>1103.25</ele>
        <time>2016-02-23T16:15:59Z</time>
      </trkpt>
      <trkpt lat="44.72347" lon="3.30195">
        <ele>1102.77</ele>
        <time>2016-02-23T16:16:12Z</time>
      </trkpt>
      <trkpt lat="44.72328" lon="3.30156">
        <ele>1103.25</ele>
        <time>2016-02-23T16:16:22Z</time>
      </trkpt>
      <trkpt lat="44.72304" lon="3.301">
        <ele>1102.29</ele>
        <time>2016-02-23T16:16:37Z</time>
      </trkpt>
      <trkpt lat="44.723" lon="3.30089">
        <ele>1101.81</ele>
        <time>2016-02-23T16:16:39Z</time>
      </trkpt>
      <trkpt lat="44.72295" lon="3.30077">
        <ele>1101.33</ele>
        <time>2016-02-23T16:16:41Z</time>
      </trkpt>
      <trkpt lat="44.72291" lon="3.30071">
        <ele>1099.89</ele>
        <time>2016-02-23T16:16:42Z</time>
      </trkpt>
      <trkpt lat="44.72289" lon="3.30063">
        <ele>1098.92</ele>
        <time>2016-02-23T16:16:43Z</time>
      </trkpt>
      <trkpt lat="44.72287" lon="3.30054">
        <ele>1098.44</ele>
        <time>2016-02-23T16:16:44Z</time>
      </trkpt>
      <trkpt lat="44.72283" lon="3.30045">
        <ele>1097</ele>
        <time>2016-02-23T16:16:45Z</time>
      </trkpt>
      <trkpt lat="44.72272" lon="3.30018">
        <ele>1093.64</ele>
        <time>2016-02-23T16:16:48Z</time>
      </trkpt>
      <trkpt lat="44.72264" lon="3.29999">
        <ele>1092.2</ele>
        <time>2016-02-23T16:16:50Z</time>
      </trkpt>
      <trkpt lat="44.72258" lon="3.2999">
        <ele>1090.27</ele>
        <time>2016-02-23T16:16:51Z</time>
      </trkpt>
      <trkpt lat="44.72253" lon="3.29981">
        <ele>1089.79</ele>
        <time>2016-02-23T16:16:52Z</time>
      </trkpt>
      <trkpt lat="44.72239" lon="3.29967">
        <ele>1088.83</ele>
        <time>2016-02-23T16:16:54Z</time>
      </trkpt>
      <trkpt lat="44.72232" lon="3.29961">
        <ele>1088.35</ele>
        <time>2016-02-23T16:16:55Z</time>
      </trkpt>
      <trkpt lat="44.72224" lon="3.29956">
        <ele>1087.87</ele>
        <time>2016-02-23T16:16:56Z</time>
      </trkpt>
      <trkpt lat="44.72171" lon="3.29928">
        <ele>1085.47</ele>
        <time>2016-02-23T16:17:03Z</time>
      </trkpt>
      <trkpt lat="44.72164" lon="3.29924">
        <ele>1085.95</ele>
        <time>2016-02-23T16:17:04Z</time>
      </trkpt>
      <trkpt lat="44.72158" lon="3.29918">
        <ele>1084.5</ele>
        <time>2016-02-23T16:17:05Z</time>
      </trkpt>
      <trkpt lat="44.72107" lon="3.29864">
        <ele>1085.47</ele>
        <time>2016-02-23T16:17:16Z</time>
      </trkpt>
      <trkpt lat="44.72103" lon="3.2986">
        <ele>1085.47</ele>
        <time>2016-02-23T16:17:17Z</time>
      </trkpt>
      <trkpt lat="44.721" lon="3.29856">
        <ele>1085.47</ele>
        <time>2016-02-23T16:17:18Z</time>
      </trkpt>
      <trkpt lat="44.72092" lon="3.29819">
        <ele>1084.5</ele>
        <time>2016-02-23T16:17:26Z</time>
      </trkpt>
      <trkpt lat="44.72091" lon="3.29814">
        <ele>1083.54</ele>
        <time>2016-02-23T16:17:27Z</time>
      </trkpt>
      <trkpt lat="44.72091" lon="3.29807">
        <ele>1084.02</ele>
        <time>2016-02-23T16:17:28Z</time>
      </trkpt>
      <trkpt lat="44.72091" lon="3.29801">
        <ele>1084.02</ele>
        <time>2016-02-23T16:17:29Z</time>
      </trkpt>
      <trkpt lat="44.7209" lon="3.29794">
        <ele>1084.02</ele>
        <time>2016-02-23T16:17:30Z</time>
      </trkpt>
      <trkpt lat="44.7209" lon="3.29788">
        <ele>1084.02</ele>
        <time>2016-02-23T16:17:31Z</time>
      </trkpt>
      <trkpt lat="44.7209" lon="3.29782">
        <ele>1084.02</ele>
        <time>2016-02-23T16:17:32Z</time>
      </trkpt>
      <trkpt lat="44.7209" lon="3.29776">
        <ele>1083.54</ele>
        <time>2016-02-23T16:17:33Z</time>
      </trkpt>
      <trkpt lat="44.72089" lon="3.29769">
        <ele>1083.54</ele>
        <time>2016-02-23T16:17:34Z</time>
      </trkpt>
      <trkpt lat="44.72089" lon="3.29764">
        <ele>1083.54</ele>
        <time>2016-02-23T16:17:35Z</time>
      </trkpt>
      <trkpt lat="44.72088" lon="3.29758">
        <ele>1083.54</ele>
        <time>2016-02-23T16:17:36Z</time>
      </trkpt>
      <trkpt lat="44.72083" lon="3.29698">
        <ele>1085.47</ele>
        <time>2016-02-23T16:17:48Z</time>
      </trkpt>
      <trkpt lat="44.7208" lon="3.29683">
        <ele>1084.5</ele>
        <time>2016-02-23T16:17:52Z</time>
      </trkpt>
      <trkpt lat="44.72076" lon="3.29653">
        <ele>1083.54</ele>
        <time>2016-02-23T16:17:58Z</time>
      </trkpt>
      <trkpt lat="44.72076" lon="3.29648">
        <ele>1083.06</ele>
        <time>2016-02-23T16:17:59Z</time>
      </trkpt>
      <trkpt lat="44.72076" lon="3.29642">
        <ele>1082.58</ele>
        <time>2016-02-23T16:18:00Z</time>
      </trkpt>
      <trkpt lat="44.72073" lon="3.29625">
        <ele>1081.14</ele>
        <time>2016-02-23T16:18:03Z</time>
      </trkpt>
      <trkpt lat="44.72071" lon="3.2962">
        <ele>1081.62</ele>
        <time>2016-02-23T16:18:04Z</time>
      </trkpt>
      <trkpt lat="44.72065" lon="3.29612">
        <ele>1080.18</ele>
        <time>2016-02-23T16:18:06Z</time>
      </trkpt>
      <trkpt lat="44.72062" lon="3.29606">
        <ele>1079.7</ele>
        <time>2016-02-23T16:18:07Z</time>
      </trkpt>
      <trkpt lat="44.72059" lon="3.29601">
        <ele>1079.22</ele>
        <time>2016-02-23T16:18:08Z</time>
      </trkpt>
      <trkpt lat="44.72055" lon="3.29597">
        <ele>1078.74</ele>
        <time>2016-02-23T16:18:09Z</time>
      </trkpt>
      <trkpt lat="44.72051" lon="3.29594">
        <ele>1078.74</ele>
        <time>2016-02-23T16:18:10Z</time>
      </trkpt>
      <trkpt lat="44.72048" lon="3.29591">
        <ele>1077.78</ele>
        <time>2016-02-23T16:18:11Z</time>
      </trkpt>
      <trkpt lat="44.72039" lon="3.29579">
        <ele>1076.33</ele>
        <time>2016-02-23T16:18:16Z</time>
      </trkpt>
      <trkpt lat="44.72026" lon="3.29546">
        <ele>1073.93</ele>
        <time>2016-02-23T16:18:22Z</time>
      </trkpt>
      <trkpt lat="44.72025" lon="3.2954">
        <ele>1073.45</ele>
        <time>2016-02-23T16:18:23Z</time>
      </trkpt>
      <trkpt lat="44.72024" lon="3.29534">
        <ele>1073.45</ele>
        <time>2016-02-23T16:18:24Z</time>
      </trkpt>
      <trkpt lat="44.7202" lon="3.29509">
        <ele>1073.45</ele>
        <time>2016-02-23T16:18:28Z</time>
      </trkpt>
      <trkpt lat="44.7202" lon="3.29483">
        <ele>1072.97</ele>
        <time>2016-02-23T16:18:32Z</time>
      </trkpt>
      <trkpt lat="44.72021" lon="3.29478">
        <ele>1072.97</ele>
        <time>2016-02-23T16:18:33Z</time>
      </trkpt>
      <trkpt lat="44.72021" lon="3.29472">
        <ele>1072.97</ele>
        <time>2016-02-23T16:18:34Z</time>
      </trkpt>
      <trkpt lat="44.72022" lon="3.29468">
        <ele>1072.97</ele>
        <time>2016-02-23T16:18:35Z</time>
      </trkpt>
      <trkpt lat="44.72023" lon="3.29464">
        <ele>1072.97</ele>
        <time>2016-02-23T16:18:36Z</time>
      </trkpt>
      <trkpt lat="44.72025" lon="3.29459">
        <ele>1072.97</ele>
        <time>2016-02-23T16:18:37Z</time>
      </trkpt>
      <trkpt lat="44.72039" lon="3.2941">
        <ele>1072.97</ele>
        <time>2016-02-23T16:18:48Z</time>
      </trkpt>
      <trkpt lat="44.72053" lon="3.2935">
        <ele>1073.45</ele>
        <time>2016-02-23T16:19:01Z</time>
      </trkpt>
      <trkpt lat="44.72066" lon="3.29305">
        <ele>1074.41</ele>
        <time>2016-02-23T16:19:12Z</time>
      </trkpt>
      <trkpt lat="44.72074" lon="3.2927">
        <ele>1076.33</ele>
        <time>2016-02-23T16:19:24Z</time>
      </trkpt>
      <trkpt lat="44.72101" lon="3.2925">
        <ele>1076.33</ele>
        <time>2016-02-23T16:19:35Z</time>
      </trkpt>
      <trkpt lat="44.72138" lon="3.29227">
        <ele>1075.85</ele>
        <time>2016-02-23T16:19:48Z</time>
      </trkpt>
      <trkpt lat="44.72163" lon="3.29218">
        <ele>1075.85</ele>
        <time>2016-02-23T16:19:56Z</time>
      </trkpt>
      <trkpt lat="44.72165" lon="3.29216">
        <ele>1075.37</ele>
        <time>2016-02-23T16:19:57Z</time>
      </trkpt>
      <trkpt lat="44.72168" lon="3.29214">
        <ele>1075.37</ele>
        <time>2016-02-23T16:19:58Z</time>
      </trkpt>
      <trkpt lat="44.72171" lon="3.29211">
        <ele>1074.89</ele>
        <time>2016-02-23T16:19:59Z</time>
      </trkpt>
      <trkpt lat="44.72174" lon="3.29208">
        <ele>1074.89</ele>
        <time>2016-02-23T16:20:00Z</time>
      </trkpt>
      <trkpt lat="44.72178" lon="3.29205">
        <ele>1074.41</ele>
        <time>2016-02-23T16:20:01Z</time>
      </trkpt>
      <trkpt lat="44.72222" lon="3.29154">
        <ele>1071.05</ele>
        <time>2016-02-23T16:20:15Z</time>
      </trkpt>
      <trkpt lat="44.72224" lon="3.2915">
        <ele>1071.05</ele>
        <time>2016-02-23T16:20:16Z</time>
      </trkpt>
      <trkpt lat="44.72249" lon="3.29108">
        <ele>1067.68</ele>
        <time>2016-02-23T16:20:24Z</time>
      </trkpt>
      <trkpt lat="44.72261" lon="3.29082">
        <ele>1066.72</ele>
        <time>2016-02-23T16:20:28Z</time>
      </trkpt>
      <trkpt lat="44.72265" lon="3.29067">
        <ele>1065.28</ele>
        <time>2016-02-23T16:20:30Z</time>
      </trkpt>
      <trkpt lat="44.72267" lon="3.29057">
        <ele>1064.8</ele>
        <time>2016-02-23T16:20:32Z</time>
      </trkpt>
      <trkpt lat="44.72268" lon="3.29051">
        <ele>1064.32</ele>
        <time>2016-02-23T16:20:33Z</time>
      </trkpt>
      <trkpt lat="44.72271" lon="3.29038">
        <ele>1062.87</ele>
        <time>2016-02-23T16:20:35Z</time>
      </trkpt>
      <trkpt lat="44.72273" lon="3.29031">
        <ele>1062.39</ele>
        <time>2016-02-23T16:20:36Z</time>
      </trkpt>
      <trkpt lat="44.72275" lon="3.29024">
        <ele>1062.39</ele>
        <time>2016-02-23T16:20:37Z</time>
      </trkpt>
      <trkpt lat="44.72279" lon="3.29018">
        <ele>1062.39</ele>
        <time>2016-02-23T16:20:38Z</time>
      </trkpt>
      <trkpt lat="44.72282" lon="3.29011">
        <ele>1061.91</ele>
        <time>2016-02-23T16:20:39Z</time>
      </trkpt>
      <trkpt lat="44.72287" lon="3.29005">
        <ele>1060.95</ele>
        <time>2016-02-23T16:20:40Z</time>
      </trkpt>
      <trkpt lat="44.72292" lon="3.28997">
        <ele>1059.03</ele>
        <time>2016-02-23T16:20:41Z</time>
      </trkpt>
      <trkpt lat="44.72297" lon="3.28988">
        <ele>1057.59</ele>
        <time>2016-02-23T16:20:42Z</time>
      </trkpt>
      <trkpt lat="44.72302" lon="3.2898">
        <ele>1056.15</ele>
        <time>2016-02-23T16:20:43Z</time>
      </trkpt>
      <trkpt lat="44.72308" lon="3.28972">
        <ele>1055.18</ele>
        <time>2016-02-23T16:20:44Z</time>
      </trkpt>
      <trkpt lat="44.72314" lon="3.28965">
        <ele>1055.67</ele>
        <time>2016-02-23T16:20:45Z</time>
      </trkpt>
      <trkpt lat="44.72337" lon="3.28933">
        <ele>1053.26</ele>
        <time>2016-02-23T16:20:49Z</time>
      </trkpt>
      <trkpt lat="44.72342" lon="3.28924">
        <ele>1052.78</ele>
        <time>2016-02-23T16:20:50Z</time>
      </trkpt>
      <trkpt lat="44.72346" lon="3.28915">
        <ele>1052.78</ele>
        <time>2016-02-23T16:20:51Z</time>
      </trkpt>
      <trkpt lat="44.7237" lon="3.28851">
        <ele>1050.86</ele>
        <time>2016-02-23T16:21:01Z</time>
      </trkpt>
      <trkpt lat="44.72369" lon="3.2885">
        <ele>1050.86</ele>
        <time>2016-02-23T16:21:02Z</time>
      </trkpt>
      <trkpt lat="44.72368" lon="3.28849">
        <ele>1050.86</ele>
        <time>2016-02-23T16:21:03Z</time>
      </trkpt>
      <trkpt lat="44.72365" lon="3.28848">
        <ele>1050.86</ele>
        <time>2016-02-23T16:21:04Z</time>
      </trkpt>
      <trkpt lat="44.72362" lon="3.28846">
        <ele>1049.9</ele>
        <time>2016-02-23T16:21:05Z</time>
      </trkpt>
      <trkpt lat="44.72357" lon="3.28845">
        <ele>1048.94</ele>
        <time>2016-02-23T16:21:06Z</time>
      </trkpt>
      <trkpt lat="44.72352" lon="3.28843">
        <ele>1048.45</ele>
        <time>2016-02-23T16:21:07Z</time>
      </trkpt>
      <trkpt lat="44.72346" lon="3.28838">
        <ele>1047.49</ele>
        <time>2016-02-23T16:21:08Z</time>
      </trkpt>
      <trkpt lat="44.72341" lon="3.28831">
        <ele>1047.01</ele>
        <time>2016-02-23T16:21:09Z</time>
      </trkpt>
      <trkpt lat="44.72337" lon="3.28824">
        <ele>1046.53</ele>
        <time>2016-02-23T16:21:10Z</time>
      </trkpt>
      <trkpt lat="44.72334" lon="3.28815">
        <ele>1045.57</ele>
        <time>2016-02-23T16:21:11Z</time>
      </trkpt>
      <trkpt lat="44.72333" lon="3.28807">
        <ele>1045.57</ele>
        <time>2016-02-23T16:21:12Z</time>
      </trkpt>
      <trkpt lat="44.72332" lon="3.28798">
        <ele>1046.05</ele>
        <time>2016-02-23T16:21:13Z</time>
      </trkpt>
      <trkpt lat="44.72329" lon="3.28775">
        <ele>1046.05</ele>
        <time>2016-02-23T16:21:16Z</time>
      </trkpt>
      <trkpt lat="44.72327" lon="3.28769">
        <ele>1046.53</ele>
        <time>2016-02-23T16:21:17Z</time>
      </trkpt>
      <trkpt lat="44.72325" lon="3.28763">
        <ele>1047.01</ele>
        <time>2016-02-23T16:21:18Z</time>
      </trkpt>
      <trkpt lat="44.72323" lon="3.28757">
        <ele>1047.49</ele>
        <time>2016-02-23T16:21:19Z</time>
      </trkpt>
      <trkpt lat="44.72321" lon="3.28752">
        <ele>1047.97</ele>
        <time>2016-02-23T16:21:20Z</time>
      </trkpt>
      <trkpt lat="44.7229" lon="3.28698">
        <ele>1049.9</ele>
        <time>2016-02-23T16:21:32Z</time>
      </trkpt>
      <trkpt lat="44.72269" lon="3.28668">
        <ele>1048.45</ele>
        <time>2016-02-23T16:21:42Z</time>
      </trkpt>
      <trkpt lat="44.72269" lon="3.28666">
        <ele>1048.45</ele>
        <time>2016-02-23T16:21:43Z</time>
      </trkpt>
      <trkpt lat="44.72268" lon="3.28663">
        <ele>1047.97</ele>
        <time>2016-02-23T16:21:44Z</time>
      </trkpt>
      <trkpt lat="44.72267" lon="3.28659">
        <ele>1047.01</ele>
        <time>2016-02-23T16:21:45Z</time>
      </trkpt>
      <trkpt lat="44.72264" lon="3.28613">
        <ele>1045.57</ele>
        <time>2016-02-23T16:21:53Z</time>
      </trkpt>
      <trkpt lat="44.72265" lon="3.28607">
        <ele>1045.09</ele>
        <time>2016-02-23T16:21:54Z</time>
      </trkpt>
      <trkpt lat="44.72263" lon="3.28593">
        <ele>1044.61</ele>
        <time>2016-02-23T16:21:56Z</time>
      </trkpt>
      <trkpt lat="44.72261" lon="3.28576">
        <ele>1044.61</ele>
        <time>2016-02-23T16:21:58Z</time>
      </trkpt>
      <trkpt lat="44.72258" lon="3.28525">
        <ele>1046.53</ele>
        <time>2016-02-23T16:22:07Z</time>
      </trkpt>
      <trkpt lat="44.72255" lon="3.28524">
        <ele>1047.01</ele>
        <time>2016-02-23T16:22:08Z</time>
      </trkpt>
      <trkpt lat="44.72252" lon="3.28526">
        <ele>1047.01</ele>
        <time>2016-02-23T16:22:09Z</time>
      </trkpt>
      <trkpt lat="44.7225" lon="3.2853">
        <ele>1047.01</ele>
        <time>2016-02-23T16:22:10Z</time>
      </trkpt>
      <trkpt lat="44.72248" lon="3.28533">
        <ele>1047.01</ele>
        <time>2016-02-23T16:22:11Z</time>
      </trkpt>
      <trkpt lat="44.72223" lon="3.28581">
        <ele>1049.42</ele>
        <time>2016-02-23T16:22:27Z</time>
      </trkpt>
      <trkpt lat="44.72222" lon="3.28584">
        <ele>1049.9</ele>
        <time>2016-02-23T16:22:28Z</time>
      </trkpt>
      <trkpt lat="44.72214" lon="3.28617">
        <ele>1050.86</ele>
        <time>2016-02-23T16:22:36Z</time>
      </trkpt>
      <trkpt lat="44.72208" lon="3.28645">
        <ele>1051.82</ele>
        <time>2016-02-23T16:22:45Z</time>
      </trkpt>
      <trkpt lat="44.72206" lon="3.28647">
        <ele>1051.82</ele>
        <time>2016-02-23T16:22:46Z</time>
      </trkpt>
      <trkpt lat="44.7218" lon="3.28659">
        <ele>1055.18</ele>
        <time>2016-02-23T16:22:59Z</time>
      </trkpt>
      <trkpt lat="44.72159" lon="3.28672">
        <ele>1057.59</ele>
        <time>2016-02-23T16:23:14Z</time>
      </trkpt>
      <trkpt lat="44.72158" lon="3.28672">
        <ele>1057.59</ele>
        <time>2016-02-23T16:23:15Z</time>
      </trkpt>
      <trkpt lat="44.72157" lon="3.28671">
        <ele>1058.07</ele>
        <time>2016-02-23T16:23:16Z</time>
      </trkpt>
      <trkpt lat="44.72156" lon="3.2867">
        <ele>1058.55</ele>
        <time>2016-02-23T16:23:17Z</time>
      </trkpt>
      <trkpt lat="44.72155" lon="3.28669">
        <ele>1058.55</ele>
        <time>2016-02-23T16:23:18Z</time>
      </trkpt>
      <trkpt lat="44.72153" lon="3.28669">
        <ele>1059.03</ele>
        <time>2016-02-23T16:23:19Z</time>
      </trkpt>
      <trkpt lat="44.72149" lon="3.28671">
        <ele>1059.51</ele>
        <time>2016-02-23T16:23:22Z</time>
      </trkpt>
      <trkpt lat="44.72146" lon="3.28689">
        <ele>1059.99</ele>
        <time>2016-02-23T16:23:32Z</time>
      </trkpt>
      <trkpt lat="44.72147" lon="3.28691">
        <ele>1059.99</ele>
        <time>2016-02-23T16:23:33Z</time>
      </trkpt>
      <trkpt lat="44.72151" lon="3.28692">
        <ele>1059.99</ele>
        <time>2016-02-23T16:23:42Z</time>
      </trkpt>
      <trkpt lat="44.72151" lon="3.28692">
        <ele>1060.47</ele>
        <time>2016-02-23T16:24:05Z</time>
      </trkpt>
    </trkseg>
  </trk>
</gpx>